<?xml version="1.0" encoding="UTF-8" standalone="no" ?>
<gpx xmlns="http://www.topografix.com/GPX/1/1" xmlns:xsi="http://www.w3.org/2001/XMLSchema-instance" xsi:schemaLocation="http://www.topografix.com/GPX/1/1 http://www.topografix.com/GPX/1/1/gpx.xsd" version="1.1" creator="VisuGPX - https://www.visugpx.com">
  <metadata>
    <name>Bourguignon-Belchamp-Voujeaucourt</name>
    <desc><![CDATA[rando vtt du dimanche 16 octobre 2016]]></desc>
  </metadata>
  <wpt lat="47.46569" lon="6.76282">
    <ele>322.14</ele>
    <name><![CDATA[WPT_0000001]]></name>
    <desc><![CDATA[]]></desc>
    <type><![CDATA[Photo]]></type>
  </wpt>
  <trk>
    <name><![CDATA[2016-10-16 09:04]]></name>
    <desc><![CDATA[<p>Heure de départ: 10/16/2016 09:04</p><p>Heure d'arrivée: 10/16/2016 11:56</p><p>Distance: 36,5 km (02:51)</p><p>Temps déplacement: 02:29</p><p>Vitesse moyenne: 12,76 km/h</p><p>Vitesse moyenne mouv.: 14,65 km/h</p><p>Vitesse Max.: 39,34km/h</p><p>Altitude minimale: 299 m</p><p>Altitude maximale: 463 m</p><p>Vitesse de montée: 468,6 m/h</p><p>Vitesse de descente: -869 m/h</p><p>Gain d'altitude: 744 m</p><p>Perte d'altitude: -708 m</p><p>Temps de montée: 01:35</p><p>Temps de descente: 00:48</p><hr align="center" width="480" style="height: 2px; width: 517px"/>]]></desc>
    <trkseg>
      <trkpt lat="47.41396" lon="6.78402">
        <ele>314.41</ele>
        <time>2016-10-16T07:04:18Z</time>
      </trkpt>
      <trkpt lat="47.41411" lon="6.7842">
        <ele>333.23</ele>
        <time>2016-10-16T07:04:20Z</time>
      </trkpt>
      <trkpt lat="47.41407" lon="6.78446">
        <ele>344.5</ele>
        <time>2016-10-16T07:06:02Z</time>
      </trkpt>
      <trkpt lat="47.41427" lon="6.78446">
        <ele>343.61</ele>
        <time>2016-10-16T07:06:16Z</time>
      </trkpt>
      <trkpt lat="47.41439" lon="6.78424">
        <ele>342.77</ele>
        <time>2016-10-16T07:06:26Z</time>
      </trkpt>
      <trkpt lat="47.41448" lon="6.78398">
        <ele>342.31</ele>
        <time>2016-10-16T07:06:35Z</time>
      </trkpt>
      <trkpt lat="47.41456" lon="6.78371">
        <ele>342.07</ele>
        <time>2016-10-16T07:06:44Z</time>
      </trkpt>
      <trkpt lat="47.41463" lon="6.78346">
        <ele>342.45</ele>
        <time>2016-10-16T07:06:52Z</time>
      </trkpt>
      <trkpt lat="47.41469" lon="6.7832">
        <ele>342.87</ele>
        <time>2016-10-16T07:06:59Z</time>
      </trkpt>
      <trkpt lat="47.41475" lon="6.78294">
        <ele>343.4</ele>
        <time>2016-10-16T07:07:05Z</time>
      </trkpt>
      <trkpt lat="47.4148" lon="6.78268">
        <ele>343.94</ele>
        <time>2016-10-16T07:07:11Z</time>
      </trkpt>
      <trkpt lat="47.41487" lon="6.78242">
        <ele>344.57</ele>
        <time>2016-10-16T07:07:17Z</time>
      </trkpt>
      <trkpt lat="47.41493" lon="6.78214">
        <ele>345.11</ele>
        <time>2016-10-16T07:07:23Z</time>
      </trkpt>
      <trkpt lat="47.41498" lon="6.78187">
        <ele>345.59</ele>
        <time>2016-10-16T07:07:29Z</time>
      </trkpt>
      <trkpt lat="47.41512" lon="6.78168">
        <ele>346.05</ele>
        <time>2016-10-16T07:07:41Z</time>
      </trkpt>
      <trkpt lat="47.41532" lon="6.78174">
        <ele>345.54</ele>
        <time>2016-10-16T07:07:48Z</time>
      </trkpt>
      <trkpt lat="47.4155" lon="6.78182">
        <ele>345.03</ele>
        <time>2016-10-16T07:07:54Z</time>
      </trkpt>
      <trkpt lat="47.41569" lon="6.78184">
        <ele>344.57</ele>
        <time>2016-10-16T07:08:00Z</time>
      </trkpt>
      <trkpt lat="47.41582" lon="6.78203">
        <ele>344.12</ele>
        <time>2016-10-16T07:08:10Z</time>
      </trkpt>
      <trkpt lat="47.41602" lon="6.78214">
        <ele>343.6</ele>
        <time>2016-10-16T07:08:16Z</time>
      </trkpt>
      <trkpt lat="47.41619" lon="6.78225">
        <ele>342.48</ele>
        <time>2016-10-16T07:08:21Z</time>
      </trkpt>
      <trkpt lat="47.41637" lon="6.78236">
        <ele>341.67</ele>
        <time>2016-10-16T07:08:26Z</time>
      </trkpt>
      <trkpt lat="47.41656" lon="6.78234">
        <ele>341.86</ele>
        <time>2016-10-16T07:08:32Z</time>
      </trkpt>
      <trkpt lat="47.41676" lon="6.78222">
        <ele>342.78</ele>
        <time>2016-10-16T07:08:37Z</time>
      </trkpt>
      <trkpt lat="47.41695" lon="6.78225">
        <ele>344.08</ele>
        <time>2016-10-16T07:08:42Z</time>
      </trkpt>
      <trkpt lat="47.41715" lon="6.78228">
        <ele>343.17</ele>
        <time>2016-10-16T07:08:47Z</time>
      </trkpt>
      <trkpt lat="47.41735" lon="6.78227">
        <ele>341.64</ele>
        <time>2016-10-16T07:08:52Z</time>
      </trkpt>
      <trkpt lat="47.41753" lon="6.78223">
        <ele>341.65</ele>
        <time>2016-10-16T07:08:57Z</time>
      </trkpt>
      <trkpt lat="47.41771" lon="6.78224">
        <ele>341.08</ele>
        <time>2016-10-16T07:09:02Z</time>
      </trkpt>
      <trkpt lat="47.4179" lon="6.78229">
        <ele>342.19</ele>
        <time>2016-10-16T07:09:07Z</time>
      </trkpt>
      <trkpt lat="47.4181" lon="6.78236">
        <ele>342.09</ele>
        <time>2016-10-16T07:09:12Z</time>
      </trkpt>
      <trkpt lat="47.41829" lon="6.78244">
        <ele>340.66</ele>
        <time>2016-10-16T07:09:17Z</time>
      </trkpt>
      <trkpt lat="47.4185" lon="6.7825">
        <ele>340.18</ele>
        <time>2016-10-16T07:09:22Z</time>
      </trkpt>
      <trkpt lat="47.41868" lon="6.78258">
        <ele>338.57</ele>
        <time>2016-10-16T07:09:27Z</time>
      </trkpt>
      <trkpt lat="47.41884" lon="6.78276">
        <ele>338.22</ele>
        <time>2016-10-16T07:09:33Z</time>
      </trkpt>
      <trkpt lat="47.41885" lon="6.78304">
        <ele>338.16</ele>
        <time>2016-10-16T07:09:38Z</time>
      </trkpt>
      <trkpt lat="47.41889" lon="6.78334">
        <ele>339.01</ele>
        <time>2016-10-16T07:09:43Z</time>
      </trkpt>
      <trkpt lat="47.41892" lon="6.7836">
        <ele>339.34</ele>
        <time>2016-10-16T07:09:48Z</time>
      </trkpt>
      <trkpt lat="47.41893" lon="6.78388">
        <ele>340.82</ele>
        <time>2016-10-16T07:09:53Z</time>
      </trkpt>
      <trkpt lat="47.41899" lon="6.78415">
        <ele>341.14</ele>
        <time>2016-10-16T07:09:58Z</time>
      </trkpt>
      <trkpt lat="47.4191" lon="6.78438">
        <ele>340.36</ele>
        <time>2016-10-16T07:10:27Z</time>
      </trkpt>
      <trkpt lat="47.41913" lon="6.78468">
        <ele>340.52</ele>
        <time>2016-10-16T07:10:34Z</time>
      </trkpt>
      <trkpt lat="47.41916" lon="6.78496">
        <ele>340.66</ele>
        <time>2016-10-16T07:10:40Z</time>
      </trkpt>
      <trkpt lat="47.41919" lon="6.78527">
        <ele>340.56</ele>
        <time>2016-10-16T07:10:47Z</time>
      </trkpt>
      <trkpt lat="47.41922" lon="6.78554">
        <ele>340.42</ele>
        <time>2016-10-16T07:10:53Z</time>
      </trkpt>
      <trkpt lat="47.41924" lon="6.78584">
        <ele>340.24</ele>
        <time>2016-10-16T07:10:59Z</time>
      </trkpt>
      <trkpt lat="47.41926" lon="6.78611">
        <ele>340.12</ele>
        <time>2016-10-16T07:11:05Z</time>
      </trkpt>
      <trkpt lat="47.41926" lon="6.78638">
        <ele>340.33</ele>
        <time>2016-10-16T07:11:14Z</time>
      </trkpt>
      <trkpt lat="47.41944" lon="6.78647">
        <ele>340.73</ele>
        <time>2016-10-16T07:11:45Z</time>
      </trkpt>
      <trkpt lat="47.41964" lon="6.78651">
        <ele>341.15</ele>
        <time>2016-10-16T07:11:55Z</time>
      </trkpt>
      <trkpt lat="47.41982" lon="6.78655">
        <ele>341.81</ele>
        <time>2016-10-16T07:12:01Z</time>
      </trkpt>
      <trkpt lat="47.42" lon="6.78659">
        <ele>341.9</ele>
        <time>2016-10-16T07:12:06Z</time>
      </trkpt>
      <trkpt lat="47.4202" lon="6.78666">
        <ele>341.93</ele>
        <time>2016-10-16T07:12:12Z</time>
      </trkpt>
      <trkpt lat="47.42037" lon="6.78673">
        <ele>341.76</ele>
        <time>2016-10-16T07:12:17Z</time>
      </trkpt>
      <trkpt lat="47.42055" lon="6.78683">
        <ele>343.35</ele>
        <time>2016-10-16T07:12:22Z</time>
      </trkpt>
      <trkpt lat="47.42073" lon="6.78693">
        <ele>343.35</ele>
        <time>2016-10-16T07:12:28Z</time>
      </trkpt>
      <trkpt lat="47.42093" lon="6.78705">
        <ele>342.83</ele>
        <time>2016-10-16T07:12:33Z</time>
      </trkpt>
      <trkpt lat="47.42108" lon="6.78722">
        <ele>342.33</ele>
        <time>2016-10-16T07:12:38Z</time>
      </trkpt>
      <trkpt lat="47.42123" lon="6.7874">
        <ele>341.68</ele>
        <time>2016-10-16T07:12:43Z</time>
      </trkpt>
      <trkpt lat="47.42139" lon="6.78758">
        <ele>339.83</ele>
        <time>2016-10-16T07:12:48Z</time>
      </trkpt>
      <trkpt lat="47.42156" lon="6.78777">
        <ele>337.52</ele>
        <time>2016-10-16T07:12:53Z</time>
      </trkpt>
      <trkpt lat="47.42172" lon="6.78796">
        <ele>336.37</ele>
        <time>2016-10-16T07:12:59Z</time>
      </trkpt>
      <trkpt lat="47.42187" lon="6.78816">
        <ele>335.69</ele>
        <time>2016-10-16T07:13:04Z</time>
      </trkpt>
      <trkpt lat="47.42199" lon="6.78839">
        <ele>336.22</ele>
        <time>2016-10-16T07:13:09Z</time>
      </trkpt>
      <trkpt lat="47.42214" lon="6.78859">
        <ele>338.31</ele>
        <time>2016-10-16T07:13:14Z</time>
      </trkpt>
      <trkpt lat="47.42227" lon="6.78881">
        <ele>341.02</ele>
        <time>2016-10-16T07:13:19Z</time>
      </trkpt>
      <trkpt lat="47.4224" lon="6.78904">
        <ele>341.38</ele>
        <time>2016-10-16T07:13:24Z</time>
      </trkpt>
      <trkpt lat="47.42252" lon="6.78929">
        <ele>341.82</ele>
        <time>2016-10-16T07:13:29Z</time>
      </trkpt>
      <trkpt lat="47.42264" lon="6.78949">
        <ele>343.15</ele>
        <time>2016-10-16T07:13:33Z</time>
      </trkpt>
      <trkpt lat="47.42276" lon="6.78973">
        <ele>343.65</ele>
        <time>2016-10-16T07:13:38Z</time>
      </trkpt>
      <trkpt lat="47.42288" lon="6.78997">
        <ele>343.84</ele>
        <time>2016-10-16T07:13:42Z</time>
      </trkpt>
      <trkpt lat="47.42303" lon="6.79014">
        <ele>343.55</ele>
        <time>2016-10-16T07:13:46Z</time>
      </trkpt>
      <trkpt lat="47.42325" lon="6.79018">
        <ele>341.72</ele>
        <time>2016-10-16T07:13:50Z</time>
      </trkpt>
      <trkpt lat="47.42345" lon="6.79016">
        <ele>340.69</ele>
        <time>2016-10-16T07:13:54Z</time>
      </trkpt>
      <trkpt lat="47.42364" lon="6.79013">
        <ele>339</ele>
        <time>2016-10-16T07:13:58Z</time>
      </trkpt>
      <trkpt lat="47.42384" lon="6.79008">
        <ele>336.41</ele>
        <time>2016-10-16T07:14:02Z</time>
      </trkpt>
      <trkpt lat="47.42402" lon="6.79003">
        <ele>335.92</ele>
        <time>2016-10-16T07:14:06Z</time>
      </trkpt>
      <trkpt lat="47.42423" lon="6.78994">
        <ele>336.15</ele>
        <time>2016-10-16T07:14:11Z</time>
      </trkpt>
      <trkpt lat="47.42442" lon="6.78985">
        <ele>336.67</ele>
        <time>2016-10-16T07:14:15Z</time>
      </trkpt>
      <trkpt lat="47.42458" lon="6.78971">
        <ele>336.94</ele>
        <time>2016-10-16T07:14:19Z</time>
      </trkpt>
      <trkpt lat="47.42469" lon="6.78945">
        <ele>337.89</ele>
        <time>2016-10-16T07:14:24Z</time>
      </trkpt>
      <trkpt lat="47.42484" lon="6.78929">
        <ele>338.82</ele>
        <time>2016-10-16T07:14:28Z</time>
      </trkpt>
      <trkpt lat="47.42502" lon="6.78917">
        <ele>339.24</ele>
        <time>2016-10-16T07:14:32Z</time>
      </trkpt>
      <trkpt lat="47.42521" lon="6.78907">
        <ele>338.71</ele>
        <time>2016-10-16T07:14:36Z</time>
      </trkpt>
      <trkpt lat="47.4254" lon="6.78897">
        <ele>338.84</ele>
        <time>2016-10-16T07:14:40Z</time>
      </trkpt>
      <trkpt lat="47.42559" lon="6.78891">
        <ele>338.99</ele>
        <time>2016-10-16T07:14:44Z</time>
      </trkpt>
      <trkpt lat="47.42579" lon="6.78885">
        <ele>338.09</ele>
        <time>2016-10-16T07:14:48Z</time>
      </trkpt>
      <trkpt lat="47.426" lon="6.78885">
        <ele>338.03</ele>
        <time>2016-10-16T07:14:52Z</time>
      </trkpt>
      <trkpt lat="47.4262" lon="6.78884">
        <ele>337.64</ele>
        <time>2016-10-16T07:14:56Z</time>
      </trkpt>
      <trkpt lat="47.42639" lon="6.78882">
        <ele>337.75</ele>
        <time>2016-10-16T07:15:00Z</time>
      </trkpt>
      <trkpt lat="47.42657" lon="6.7888">
        <ele>339.01</ele>
        <time>2016-10-16T07:15:04Z</time>
      </trkpt>
      <trkpt lat="47.42676" lon="6.78875">
        <ele>340</ele>
        <time>2016-10-16T07:15:08Z</time>
      </trkpt>
      <trkpt lat="47.42696" lon="6.78872">
        <ele>340.77</ele>
        <time>2016-10-16T07:15:12Z</time>
      </trkpt>
      <trkpt lat="47.42715" lon="6.78862">
        <ele>340.24</ele>
        <time>2016-10-16T07:15:16Z</time>
      </trkpt>
      <trkpt lat="47.42733" lon="6.7885">
        <ele>340.55</ele>
        <time>2016-10-16T07:15:20Z</time>
      </trkpt>
      <trkpt lat="47.42752" lon="6.7885">
        <ele>340.29</ele>
        <time>2016-10-16T07:15:25Z</time>
      </trkpt>
      <trkpt lat="47.42773" lon="6.78839">
        <ele>340.44</ele>
        <time>2016-10-16T07:15:30Z</time>
      </trkpt>
      <trkpt lat="47.42793" lon="6.78826">
        <ele>340.67</ele>
        <time>2016-10-16T07:15:34Z</time>
      </trkpt>
      <trkpt lat="47.42813" lon="6.78816">
        <ele>338.93</ele>
        <time>2016-10-16T07:15:38Z</time>
      </trkpt>
      <trkpt lat="47.42831" lon="6.78807">
        <ele>338.04</ele>
        <time>2016-10-16T07:15:42Z</time>
      </trkpt>
      <trkpt lat="47.42848" lon="6.78794">
        <ele>338.39</ele>
        <time>2016-10-16T07:15:46Z</time>
      </trkpt>
      <trkpt lat="47.42863" lon="6.78771">
        <ele>338.35</ele>
        <time>2016-10-16T07:15:51Z</time>
      </trkpt>
      <trkpt lat="47.4288" lon="6.78749">
        <ele>337.78</ele>
        <time>2016-10-16T07:15:56Z</time>
      </trkpt>
      <trkpt lat="47.42896" lon="6.78734">
        <ele>336.88</ele>
        <time>2016-10-16T07:16:00Z</time>
      </trkpt>
      <trkpt lat="47.4291" lon="6.78718">
        <ele>338.06</ele>
        <time>2016-10-16T07:16:04Z</time>
      </trkpt>
      <trkpt lat="47.42929" lon="6.78706">
        <ele>338.12</ele>
        <time>2016-10-16T07:16:09Z</time>
      </trkpt>
      <trkpt lat="47.42949" lon="6.78713">
        <ele>337.45</ele>
        <time>2016-10-16T07:16:14Z</time>
      </trkpt>
      <trkpt lat="47.42969" lon="6.7871">
        <ele>337.73</ele>
        <time>2016-10-16T07:16:18Z</time>
      </trkpt>
      <trkpt lat="47.42989" lon="6.78704">
        <ele>336.08</ele>
        <time>2016-10-16T07:16:22Z</time>
      </trkpt>
      <trkpt lat="47.43008" lon="6.78698">
        <ele>335.9</ele>
        <time>2016-10-16T07:16:26Z</time>
      </trkpt>
      <trkpt lat="47.43028" lon="6.78693">
        <ele>335.89</ele>
        <time>2016-10-16T07:16:30Z</time>
      </trkpt>
      <trkpt lat="47.43047" lon="6.78687">
        <ele>336.38</ele>
        <time>2016-10-16T07:16:34Z</time>
      </trkpt>
      <trkpt lat="47.43066" lon="6.78679">
        <ele>335.7</ele>
        <time>2016-10-16T07:16:38Z</time>
      </trkpt>
      <trkpt lat="47.43085" lon="6.78672">
        <ele>334.64</ele>
        <time>2016-10-16T07:16:42Z</time>
      </trkpt>
      <trkpt lat="47.43105" lon="6.78668">
        <ele>333.85</ele>
        <time>2016-10-16T07:16:46Z</time>
      </trkpt>
      <trkpt lat="47.43124" lon="6.78661">
        <ele>334.28</ele>
        <time>2016-10-16T07:16:50Z</time>
      </trkpt>
      <trkpt lat="47.43144" lon="6.78654">
        <ele>334.26</ele>
        <time>2016-10-16T07:16:54Z</time>
      </trkpt>
      <trkpt lat="47.43164" lon="6.78644">
        <ele>334.17</ele>
        <time>2016-10-16T07:16:59Z</time>
      </trkpt>
      <trkpt lat="47.43184" lon="6.78632">
        <ele>337.54</ele>
        <time>2016-10-16T07:17:05Z</time>
      </trkpt>
      <trkpt lat="47.43201" lon="6.78624">
        <ele>339.34</ele>
        <time>2016-10-16T07:17:10Z</time>
      </trkpt>
      <trkpt lat="47.4322" lon="6.78613">
        <ele>339.79</ele>
        <time>2016-10-16T07:17:14Z</time>
      </trkpt>
      <trkpt lat="47.43239" lon="6.78602">
        <ele>339.04</ele>
        <time>2016-10-16T07:17:18Z</time>
      </trkpt>
      <trkpt lat="47.43256" lon="6.78592">
        <ele>337.75</ele>
        <time>2016-10-16T07:17:22Z</time>
      </trkpt>
      <trkpt lat="47.43274" lon="6.7858">
        <ele>336.69</ele>
        <time>2016-10-16T07:17:26Z</time>
      </trkpt>
      <trkpt lat="47.43292" lon="6.78568">
        <ele>336.17</ele>
        <time>2016-10-16T07:17:31Z</time>
      </trkpt>
      <trkpt lat="47.43308" lon="6.78551">
        <ele>337</ele>
        <time>2016-10-16T07:17:36Z</time>
      </trkpt>
      <trkpt lat="47.43319" lon="6.78579">
        <ele>337.62</ele>
        <time>2016-10-16T07:17:46Z</time>
      </trkpt>
      <trkpt lat="47.43318" lon="6.78607">
        <ele>337.6</ele>
        <time>2016-10-16T07:17:51Z</time>
      </trkpt>
      <trkpt lat="47.43319" lon="6.78635">
        <ele>338.52</ele>
        <time>2016-10-16T07:17:55Z</time>
      </trkpt>
      <trkpt lat="47.4332" lon="6.78668">
        <ele>339.68</ele>
        <time>2016-10-16T07:18:00Z</time>
      </trkpt>
      <trkpt lat="47.43322" lon="6.787">
        <ele>338.77</ele>
        <time>2016-10-16T07:18:05Z</time>
      </trkpt>
      <trkpt lat="47.43333" lon="6.78727">
        <ele>338.69</ele>
        <time>2016-10-16T07:18:10Z</time>
      </trkpt>
      <trkpt lat="47.43339" lon="6.78756">
        <ele>338.2</ele>
        <time>2016-10-16T07:18:15Z</time>
      </trkpt>
      <trkpt lat="47.43341" lon="6.78787">
        <ele>338.47</ele>
        <time>2016-10-16T07:18:20Z</time>
      </trkpt>
      <trkpt lat="47.43342" lon="6.7882">
        <ele>338.43</ele>
        <time>2016-10-16T07:18:25Z</time>
      </trkpt>
      <trkpt lat="47.43344" lon="6.78847">
        <ele>337.76</ele>
        <time>2016-10-16T07:18:29Z</time>
      </trkpt>
      <trkpt lat="47.43345" lon="6.78874">
        <ele>337.27</ele>
        <time>2016-10-16T07:18:33Z</time>
      </trkpt>
      <trkpt lat="47.43346" lon="6.78907">
        <ele>337.41</ele>
        <time>2016-10-16T07:18:38Z</time>
      </trkpt>
      <trkpt lat="47.43348" lon="6.78939">
        <ele>337.73</ele>
        <time>2016-10-16T07:18:43Z</time>
      </trkpt>
      <trkpt lat="47.43351" lon="6.78971">
        <ele>337.54</ele>
        <time>2016-10-16T07:18:48Z</time>
      </trkpt>
      <trkpt lat="47.43354" lon="6.79002">
        <ele>337.45</ele>
        <time>2016-10-16T07:18:53Z</time>
      </trkpt>
      <trkpt lat="47.43357" lon="6.79031">
        <ele>337.35</ele>
        <time>2016-10-16T07:18:57Z</time>
      </trkpt>
      <trkpt lat="47.43357" lon="6.79061">
        <ele>336.8</ele>
        <time>2016-10-16T07:19:01Z</time>
      </trkpt>
      <trkpt lat="47.43357" lon="6.79092">
        <ele>337.68</ele>
        <time>2016-10-16T07:19:05Z</time>
      </trkpt>
      <trkpt lat="47.43376" lon="6.79103">
        <ele>338.6</ele>
        <time>2016-10-16T07:19:11Z</time>
      </trkpt>
      <trkpt lat="47.43396" lon="6.79095">
        <ele>340.51</ele>
        <time>2016-10-16T07:19:16Z</time>
      </trkpt>
      <trkpt lat="47.43411" lon="6.79077">
        <ele>341.34</ele>
        <time>2016-10-16T07:19:20Z</time>
      </trkpt>
      <trkpt lat="47.43424" lon="6.79058">
        <ele>339.41</ele>
        <time>2016-10-16T07:19:24Z</time>
      </trkpt>
      <trkpt lat="47.43437" lon="6.79038">
        <ele>338.34</ele>
        <time>2016-10-16T07:19:28Z</time>
      </trkpt>
      <trkpt lat="47.43453" lon="6.79017">
        <ele>339.14</ele>
        <time>2016-10-16T07:19:33Z</time>
      </trkpt>
      <trkpt lat="47.43468" lon="6.78999">
        <ele>338.82</ele>
        <time>2016-10-16T07:19:37Z</time>
      </trkpt>
      <trkpt lat="47.43482" lon="6.7898">
        <ele>336.55</ele>
        <time>2016-10-16T07:19:41Z</time>
      </trkpt>
      <trkpt lat="47.43499" lon="6.78958">
        <ele>334.85</ele>
        <time>2016-10-16T07:19:46Z</time>
      </trkpt>
      <trkpt lat="47.43516" lon="6.78942">
        <ele>333.88</ele>
        <time>2016-10-16T07:19:51Z</time>
      </trkpt>
      <trkpt lat="47.43533" lon="6.78928">
        <ele>335.67</ele>
        <time>2016-10-16T07:19:56Z</time>
      </trkpt>
      <trkpt lat="47.43549" lon="6.78915">
        <ele>336.71</ele>
        <time>2016-10-16T07:20:00Z</time>
      </trkpt>
      <trkpt lat="47.43565" lon="6.78901">
        <ele>336.14</ele>
        <time>2016-10-16T07:20:04Z</time>
      </trkpt>
      <trkpt lat="47.4358" lon="6.78882">
        <ele>337.02</ele>
        <time>2016-10-16T07:20:09Z</time>
      </trkpt>
      <trkpt lat="47.43581" lon="6.78852">
        <ele>335.46</ele>
        <time>2016-10-16T07:20:15Z</time>
      </trkpt>
      <trkpt lat="47.43591" lon="6.78825">
        <ele>335.25</ele>
        <time>2016-10-16T07:20:21Z</time>
      </trkpt>
      <trkpt lat="47.43607" lon="6.78805">
        <ele>335.24</ele>
        <time>2016-10-16T07:20:27Z</time>
      </trkpt>
      <trkpt lat="47.43626" lon="6.78793">
        <ele>335.38</ele>
        <time>2016-10-16T07:20:32Z</time>
      </trkpt>
      <trkpt lat="47.43646" lon="6.7878">
        <ele>334.82</ele>
        <time>2016-10-16T07:20:37Z</time>
      </trkpt>
      <trkpt lat="47.43665" lon="6.78765">
        <ele>335.01</ele>
        <time>2016-10-16T07:20:42Z</time>
      </trkpt>
      <trkpt lat="47.43683" lon="6.7875">
        <ele>335.47</ele>
        <time>2016-10-16T07:20:47Z</time>
      </trkpt>
      <trkpt lat="47.43702" lon="6.78735">
        <ele>335.49</ele>
        <time>2016-10-16T07:20:52Z</time>
      </trkpt>
      <trkpt lat="47.43707" lon="6.78709">
        <ele>335.93</ele>
        <time>2016-10-16T07:20:57Z</time>
      </trkpt>
      <trkpt lat="47.43701" lon="6.78677">
        <ele>335.89</ele>
        <time>2016-10-16T07:21:02Z</time>
      </trkpt>
      <trkpt lat="47.43697" lon="6.78647">
        <ele>337.97</ele>
        <time>2016-10-16T07:21:07Z</time>
      </trkpt>
      <trkpt lat="47.43699" lon="6.78617">
        <ele>337.32</ele>
        <time>2016-10-16T07:21:12Z</time>
      </trkpt>
      <trkpt lat="47.43707" lon="6.78591">
        <ele>336.87</ele>
        <time>2016-10-16T07:21:19Z</time>
      </trkpt>
      <trkpt lat="47.43711" lon="6.78561">
        <ele>336.53</ele>
        <time>2016-10-16T07:21:25Z</time>
      </trkpt>
      <trkpt lat="47.43714" lon="6.78534">
        <ele>335.93</ele>
        <time>2016-10-16T07:21:30Z</time>
      </trkpt>
      <trkpt lat="47.43718" lon="6.78505">
        <ele>336.18</ele>
        <time>2016-10-16T07:21:35Z</time>
      </trkpt>
      <trkpt lat="47.43722" lon="6.78474">
        <ele>339.06</ele>
        <time>2016-10-16T07:21:40Z</time>
      </trkpt>
      <trkpt lat="47.43725" lon="6.78443">
        <ele>339.43</ele>
        <time>2016-10-16T07:21:45Z</time>
      </trkpt>
      <trkpt lat="47.43729" lon="6.78414">
        <ele>339.06</ele>
        <time>2016-10-16T07:21:50Z</time>
      </trkpt>
      <trkpt lat="47.43732" lon="6.78386">
        <ele>338.12</ele>
        <time>2016-10-16T07:21:55Z</time>
      </trkpt>
      <trkpt lat="47.43735" lon="6.78356">
        <ele>339.8</ele>
        <time>2016-10-16T07:22:00Z</time>
      </trkpt>
      <trkpt lat="47.43738" lon="6.78328">
        <ele>341.08</ele>
        <time>2016-10-16T07:22:05Z</time>
      </trkpt>
      <trkpt lat="47.43741" lon="6.78298">
        <ele>339.55</ele>
        <time>2016-10-16T07:22:10Z</time>
      </trkpt>
      <trkpt lat="47.43745" lon="6.78267">
        <ele>339.23</ele>
        <time>2016-10-16T07:22:15Z</time>
      </trkpt>
      <trkpt lat="47.43765" lon="6.78258">
        <ele>338.85</ele>
        <time>2016-10-16T07:22:20Z</time>
      </trkpt>
      <trkpt lat="47.43784" lon="6.78256">
        <ele>337.98</ele>
        <time>2016-10-16T07:22:24Z</time>
      </trkpt>
      <trkpt lat="47.43804" lon="6.78254">
        <ele>336.58</ele>
        <time>2016-10-16T07:22:28Z</time>
      </trkpt>
      <trkpt lat="47.43823" lon="6.78251">
        <ele>335.89</ele>
        <time>2016-10-16T07:22:32Z</time>
      </trkpt>
      <trkpt lat="47.43842" lon="6.78249">
        <ele>335.31</ele>
        <time>2016-10-16T07:22:36Z</time>
      </trkpt>
      <trkpt lat="47.4386" lon="6.78248">
        <ele>336.05</ele>
        <time>2016-10-16T07:22:40Z</time>
      </trkpt>
      <trkpt lat="47.43879" lon="6.78246">
        <ele>336.34</ele>
        <time>2016-10-16T07:22:44Z</time>
      </trkpt>
      <trkpt lat="47.43899" lon="6.78246">
        <ele>337.2</ele>
        <time>2016-10-16T07:22:48Z</time>
      </trkpt>
      <trkpt lat="47.43919" lon="6.78247">
        <ele>337.8</ele>
        <time>2016-10-16T07:22:52Z</time>
      </trkpt>
      <trkpt lat="47.43939" lon="6.78251">
        <ele>337.55</ele>
        <time>2016-10-16T07:22:56Z</time>
      </trkpt>
      <trkpt lat="47.43957" lon="6.78253">
        <ele>337.85</ele>
        <time>2016-10-16T07:23:00Z</time>
      </trkpt>
      <trkpt lat="47.43977" lon="6.78255">
        <ele>337.71</ele>
        <time>2016-10-16T07:23:04Z</time>
      </trkpt>
      <trkpt lat="47.43996" lon="6.78256">
        <ele>336.36</ele>
        <time>2016-10-16T07:23:08Z</time>
      </trkpt>
      <trkpt lat="47.44014" lon="6.78258">
        <ele>334.58</ele>
        <time>2016-10-16T07:23:12Z</time>
      </trkpt>
      <trkpt lat="47.44037" lon="6.78264">
        <ele>335.07</ele>
        <time>2016-10-16T07:23:17Z</time>
      </trkpt>
      <trkpt lat="47.44055" lon="6.7827">
        <ele>334.83</ele>
        <time>2016-10-16T07:23:21Z</time>
      </trkpt>
      <trkpt lat="47.44073" lon="6.78278">
        <ele>333.81</ele>
        <time>2016-10-16T07:23:25Z</time>
      </trkpt>
      <trkpt lat="47.44093" lon="6.78291">
        <ele>334.78</ele>
        <time>2016-10-16T07:23:30Z</time>
      </trkpt>
      <trkpt lat="47.44109" lon="6.78306">
        <ele>336.72</ele>
        <time>2016-10-16T07:23:34Z</time>
      </trkpt>
      <trkpt lat="47.44127" lon="6.78322">
        <ele>337.62</ele>
        <time>2016-10-16T07:23:38Z</time>
      </trkpt>
      <trkpt lat="47.44146" lon="6.78328">
        <ele>338.01</ele>
        <time>2016-10-16T07:23:43Z</time>
      </trkpt>
      <trkpt lat="47.44154" lon="6.78299">
        <ele>336.33</ele>
        <time>2016-10-16T07:23:48Z</time>
      </trkpt>
      <trkpt lat="47.4416" lon="6.7827">
        <ele>335.55</ele>
        <time>2016-10-16T07:23:53Z</time>
      </trkpt>
      <trkpt lat="47.44166" lon="6.78238">
        <ele>335.9</ele>
        <time>2016-10-16T07:23:58Z</time>
      </trkpt>
      <trkpt lat="47.44184" lon="6.7822">
        <ele>335.72</ele>
        <time>2016-10-16T07:24:03Z</time>
      </trkpt>
      <trkpt lat="47.44205" lon="6.78211">
        <ele>333.52</ele>
        <time>2016-10-16T07:24:08Z</time>
      </trkpt>
      <trkpt lat="47.44226" lon="6.782">
        <ele>332.01</ele>
        <time>2016-10-16T07:24:13Z</time>
      </trkpt>
      <trkpt lat="47.44246" lon="6.78189">
        <ele>331.43</ele>
        <time>2016-10-16T07:24:18Z</time>
      </trkpt>
      <trkpt lat="47.44267" lon="6.78178">
        <ele>332.07</ele>
        <time>2016-10-16T07:24:23Z</time>
      </trkpt>
      <trkpt lat="47.44283" lon="6.78166">
        <ele>332.8</ele>
        <time>2016-10-16T07:24:27Z</time>
      </trkpt>
      <trkpt lat="47.44295" lon="6.78145">
        <ele>333.22</ele>
        <time>2016-10-16T07:24:31Z</time>
      </trkpt>
      <trkpt lat="47.44311" lon="6.78128">
        <ele>334.88</ele>
        <time>2016-10-16T07:24:36Z</time>
      </trkpt>
      <trkpt lat="47.44331" lon="6.78135">
        <ele>335.17</ele>
        <time>2016-10-16T07:24:43Z</time>
      </trkpt>
      <trkpt lat="47.44348" lon="6.78151">
        <ele>335.89</ele>
        <time>2016-10-16T07:24:49Z</time>
      </trkpt>
      <trkpt lat="47.44368" lon="6.78164">
        <ele>337.35</ele>
        <time>2016-10-16T07:24:54Z</time>
      </trkpt>
      <trkpt lat="47.44387" lon="6.78167">
        <ele>335.83</ele>
        <time>2016-10-16T07:24:59Z</time>
      </trkpt>
      <trkpt lat="47.44406" lon="6.78166">
        <ele>335.6</ele>
        <time>2016-10-16T07:25:04Z</time>
      </trkpt>
      <trkpt lat="47.44423" lon="6.78159">
        <ele>335.69</ele>
        <time>2016-10-16T07:25:09Z</time>
      </trkpt>
      <trkpt lat="47.44441" lon="6.78153">
        <ele>335.93</ele>
        <time>2016-10-16T07:25:14Z</time>
      </trkpt>
      <trkpt lat="47.44459" lon="6.78141">
        <ele>335.56</ele>
        <time>2016-10-16T07:25:21Z</time>
      </trkpt>
      <trkpt lat="47.44468" lon="6.78111">
        <ele>334.67</ele>
        <time>2016-10-16T07:25:27Z</time>
      </trkpt>
      <trkpt lat="47.44477" lon="6.78086">
        <ele>334.78</ele>
        <time>2016-10-16T07:25:32Z</time>
      </trkpt>
      <trkpt lat="47.44484" lon="6.78059">
        <ele>334.68</ele>
        <time>2016-10-16T07:25:37Z</time>
      </trkpt>
      <trkpt lat="47.44494" lon="6.78033">
        <ele>335.63</ele>
        <time>2016-10-16T07:25:42Z</time>
      </trkpt>
      <trkpt lat="47.44505" lon="6.78006">
        <ele>335.1</ele>
        <time>2016-10-16T07:25:47Z</time>
      </trkpt>
      <trkpt lat="47.44518" lon="6.77981">
        <ele>333.15</ele>
        <time>2016-10-16T07:25:52Z</time>
      </trkpt>
      <trkpt lat="47.44531" lon="6.77956">
        <ele>333.06</ele>
        <time>2016-10-16T07:25:57Z</time>
      </trkpt>
      <trkpt lat="47.44545" lon="6.77935">
        <ele>333.27</ele>
        <time>2016-10-16T07:26:02Z</time>
      </trkpt>
      <trkpt lat="47.4456" lon="6.77918">
        <ele>333.17</ele>
        <time>2016-10-16T07:26:07Z</time>
      </trkpt>
      <trkpt lat="47.44573" lon="6.77899">
        <ele>333.74</ele>
        <time>2016-10-16T07:26:12Z</time>
      </trkpt>
      <trkpt lat="47.44583" lon="6.77876">
        <ele>334.65</ele>
        <time>2016-10-16T07:26:17Z</time>
      </trkpt>
      <trkpt lat="47.4459" lon="6.77852">
        <ele>335.02</ele>
        <time>2016-10-16T07:26:22Z</time>
      </trkpt>
      <trkpt lat="47.44605" lon="6.77836">
        <ele>336.13</ele>
        <time>2016-10-16T07:26:27Z</time>
      </trkpt>
      <trkpt lat="47.44624" lon="6.77835">
        <ele>339.53</ele>
        <time>2016-10-16T07:26:32Z</time>
      </trkpt>
      <trkpt lat="47.44643" lon="6.7784">
        <ele>341.69</ele>
        <time>2016-10-16T07:26:38Z</time>
      </trkpt>
      <trkpt lat="47.44662" lon="6.77851">
        <ele>343.14</ele>
        <time>2016-10-16T07:26:44Z</time>
      </trkpt>
      <trkpt lat="47.4468" lon="6.77863">
        <ele>346.14</ele>
        <time>2016-10-16T07:26:49Z</time>
      </trkpt>
      <trkpt lat="47.44699" lon="6.77872">
        <ele>346.75</ele>
        <time>2016-10-16T07:26:54Z</time>
      </trkpt>
      <trkpt lat="47.44717" lon="6.77884">
        <ele>347.37</ele>
        <time>2016-10-16T07:27:01Z</time>
      </trkpt>
      <trkpt lat="47.44737" lon="6.77895">
        <ele>348.09</ele>
        <time>2016-10-16T07:27:07Z</time>
      </trkpt>
      <trkpt lat="47.44755" lon="6.77907">
        <ele>349.03</ele>
        <time>2016-10-16T07:27:14Z</time>
      </trkpt>
      <trkpt lat="47.44773" lon="6.77916">
        <ele>350.08</ele>
        <time>2016-10-16T07:27:21Z</time>
      </trkpt>
      <trkpt lat="47.44791" lon="6.77928">
        <ele>355.4</ele>
        <time>2016-10-16T07:28:06Z</time>
      </trkpt>
      <trkpt lat="47.4481" lon="6.77933">
        <ele>356.78</ele>
        <time>2016-10-16T07:28:16Z</time>
      </trkpt>
      <trkpt lat="47.44827" lon="6.77946">
        <ele>357.49</ele>
        <time>2016-10-16T07:28:23Z</time>
      </trkpt>
      <trkpt lat="47.44844" lon="6.77962">
        <ele>358.49</ele>
        <time>2016-10-16T07:28:30Z</time>
      </trkpt>
      <trkpt lat="47.44861" lon="6.77973">
        <ele>359.09</ele>
        <time>2016-10-16T07:28:35Z</time>
      </trkpt>
      <trkpt lat="47.44877" lon="6.77987">
        <ele>359.7</ele>
        <time>2016-10-16T07:28:41Z</time>
      </trkpt>
      <trkpt lat="47.44892" lon="6.78004">
        <ele>360.35</ele>
        <time>2016-10-16T07:28:47Z</time>
      </trkpt>
      <trkpt lat="47.44908" lon="6.78022">
        <ele>361.22</ele>
        <time>2016-10-16T07:28:52Z</time>
      </trkpt>
      <trkpt lat="47.44926" lon="6.78039">
        <ele>361.97</ele>
        <time>2016-10-16T07:28:58Z</time>
      </trkpt>
      <trkpt lat="47.44944" lon="6.78056">
        <ele>362.29</ele>
        <time>2016-10-16T07:29:03Z</time>
      </trkpt>
      <trkpt lat="47.4496" lon="6.78075">
        <ele>362.74</ele>
        <time>2016-10-16T07:29:07Z</time>
      </trkpt>
      <trkpt lat="47.44976" lon="6.78096">
        <ele>362.91</ele>
        <time>2016-10-16T07:29:13Z</time>
      </trkpt>
      <trkpt lat="47.44993" lon="6.78115">
        <ele>363.5</ele>
        <time>2016-10-16T07:29:18Z</time>
      </trkpt>
      <trkpt lat="47.45007" lon="6.78138">
        <ele>362.7</ele>
        <time>2016-10-16T07:29:22Z</time>
      </trkpt>
      <trkpt lat="47.4502" lon="6.7816">
        <ele>364.48</ele>
        <time>2016-10-16T07:29:26Z</time>
      </trkpt>
      <trkpt lat="47.45033" lon="6.78181">
        <ele>365.52</ele>
        <time>2016-10-16T07:29:30Z</time>
      </trkpt>
      <trkpt lat="47.45046" lon="6.78201">
        <ele>365.61</ele>
        <time>2016-10-16T07:29:34Z</time>
      </trkpt>
      <trkpt lat="47.4506" lon="6.78221">
        <ele>365.64</ele>
        <time>2016-10-16T07:29:38Z</time>
      </trkpt>
      <trkpt lat="47.45075" lon="6.7824">
        <ele>365.3</ele>
        <time>2016-10-16T07:29:42Z</time>
      </trkpt>
      <trkpt lat="47.4509" lon="6.7826">
        <ele>364.13</ele>
        <time>2016-10-16T07:29:46Z</time>
      </trkpt>
      <trkpt lat="47.45108" lon="6.78274">
        <ele>363.92</ele>
        <time>2016-10-16T07:29:50Z</time>
      </trkpt>
      <trkpt lat="47.45128" lon="6.78286">
        <ele>364.39</ele>
        <time>2016-10-16T07:29:54Z</time>
      </trkpt>
      <trkpt lat="47.45145" lon="6.78293">
        <ele>364.92</ele>
        <time>2016-10-16T07:29:57Z</time>
      </trkpt>
      <trkpt lat="47.45167" lon="6.78302">
        <ele>363.68</ele>
        <time>2016-10-16T07:30:01Z</time>
      </trkpt>
      <trkpt lat="47.45187" lon="6.78311">
        <ele>362.39</ele>
        <time>2016-10-16T07:30:05Z</time>
      </trkpt>
      <trkpt lat="47.45209" lon="6.7832">
        <ele>362.43</ele>
        <time>2016-10-16T07:30:09Z</time>
      </trkpt>
      <trkpt lat="47.45229" lon="6.78329">
        <ele>362.95</ele>
        <time>2016-10-16T07:30:13Z</time>
      </trkpt>
      <trkpt lat="47.45248" lon="6.7834">
        <ele>360.66</ele>
        <time>2016-10-16T07:30:18Z</time>
      </trkpt>
      <trkpt lat="47.45264" lon="6.78355">
        <ele>360</ele>
        <time>2016-10-16T07:30:24Z</time>
      </trkpt>
      <trkpt lat="47.45281" lon="6.78364">
        <ele>359.85</ele>
        <time>2016-10-16T07:30:30Z</time>
      </trkpt>
      <trkpt lat="47.45298" lon="6.78375">
        <ele>359.36</ele>
        <time>2016-10-16T07:30:39Z</time>
      </trkpt>
      <trkpt lat="47.45306" lon="6.784">
        <ele>358.51</ele>
        <time>2016-10-16T07:30:46Z</time>
      </trkpt>
      <trkpt lat="47.45299" lon="6.78429">
        <ele>356.57</ele>
        <time>2016-10-16T07:30:55Z</time>
      </trkpt>
      <trkpt lat="47.45315" lon="6.78449">
        <ele>355.04</ele>
        <time>2016-10-16T07:31:01Z</time>
      </trkpt>
      <trkpt lat="47.45334" lon="6.7845">
        <ele>353.11</ele>
        <time>2016-10-16T07:31:07Z</time>
      </trkpt>
      <trkpt lat="47.45354" lon="6.78455">
        <ele>351.26</ele>
        <time>2016-10-16T07:31:13Z</time>
      </trkpt>
      <trkpt lat="47.4537" lon="6.78468">
        <ele>349.7</ele>
        <time>2016-10-16T07:31:19Z</time>
      </trkpt>
      <trkpt lat="47.45388" lon="6.78481">
        <ele>348.66</ele>
        <time>2016-10-16T07:31:26Z</time>
      </trkpt>
      <trkpt lat="47.45406" lon="6.78494">
        <ele>347.64</ele>
        <time>2016-10-16T07:31:33Z</time>
      </trkpt>
      <trkpt lat="47.45424" lon="6.78506">
        <ele>346.89</ele>
        <time>2016-10-16T07:31:40Z</time>
      </trkpt>
      <trkpt lat="47.45444" lon="6.78505">
        <ele>346.5</ele>
        <time>2016-10-16T07:31:47Z</time>
      </trkpt>
      <trkpt lat="47.45463" lon="6.78498">
        <ele>346.37</ele>
        <time>2016-10-16T07:31:54Z</time>
      </trkpt>
      <trkpt lat="47.4548" lon="6.78489">
        <ele>346.58</ele>
        <time>2016-10-16T07:32:00Z</time>
      </trkpt>
      <trkpt lat="47.45498" lon="6.78478">
        <ele>346.8</ele>
        <time>2016-10-16T07:32:06Z</time>
      </trkpt>
      <trkpt lat="47.45516" lon="6.78465">
        <ele>346.83</ele>
        <time>2016-10-16T07:32:12Z</time>
      </trkpt>
      <trkpt lat="47.45535" lon="6.78452">
        <ele>346.92</ele>
        <time>2016-10-16T07:32:18Z</time>
      </trkpt>
      <trkpt lat="47.45555" lon="6.78442">
        <ele>347.15</ele>
        <time>2016-10-16T07:32:24Z</time>
      </trkpt>
      <trkpt lat="47.45574" lon="6.78431">
        <ele>347.42</ele>
        <time>2016-10-16T07:32:30Z</time>
      </trkpt>
      <trkpt lat="47.45594" lon="6.78422">
        <ele>347.79</ele>
        <time>2016-10-16T07:32:36Z</time>
      </trkpt>
      <trkpt lat="47.45611" lon="6.78413">
        <ele>348.27</ele>
        <time>2016-10-16T07:32:41Z</time>
      </trkpt>
      <trkpt lat="47.45629" lon="6.78402">
        <ele>349.4</ele>
        <time>2016-10-16T07:32:46Z</time>
      </trkpt>
      <trkpt lat="47.45648" lon="6.78392">
        <ele>350.36</ele>
        <time>2016-10-16T07:32:51Z</time>
      </trkpt>
      <trkpt lat="47.45669" lon="6.78385">
        <ele>351.43</ele>
        <time>2016-10-16T07:32:56Z</time>
      </trkpt>
      <trkpt lat="47.45688" lon="6.78382">
        <ele>352.11</ele>
        <time>2016-10-16T07:33:00Z</time>
      </trkpt>
      <trkpt lat="47.45707" lon="6.7838">
        <ele>352.88</ele>
        <time>2016-10-16T07:33:04Z</time>
      </trkpt>
      <trkpt lat="47.45725" lon="6.78381">
        <ele>353.87</ele>
        <time>2016-10-16T07:33:08Z</time>
      </trkpt>
      <trkpt lat="47.45748" lon="6.78385">
        <ele>355.68</ele>
        <time>2016-10-16T07:33:13Z</time>
      </trkpt>
      <trkpt lat="47.45768" lon="6.78392">
        <ele>358.45</ele>
        <time>2016-10-16T07:33:18Z</time>
      </trkpt>
      <trkpt lat="47.45784" lon="6.78404">
        <ele>360.5</ele>
        <time>2016-10-16T07:33:22Z</time>
      </trkpt>
      <trkpt lat="47.45798" lon="6.78421">
        <ele>362.16</ele>
        <time>2016-10-16T07:33:27Z</time>
      </trkpt>
      <trkpt lat="47.45809" lon="6.78444">
        <ele>363.67</ele>
        <time>2016-10-16T07:33:32Z</time>
      </trkpt>
      <trkpt lat="47.45815" lon="6.78472">
        <ele>366.52</ele>
        <time>2016-10-16T07:33:37Z</time>
      </trkpt>
      <trkpt lat="47.45821" lon="6.78502">
        <ele>367.72</ele>
        <time>2016-10-16T07:33:42Z</time>
      </trkpt>
      <trkpt lat="47.45828" lon="6.7853">
        <ele>368.93</ele>
        <time>2016-10-16T07:33:47Z</time>
      </trkpt>
      <trkpt lat="47.45838" lon="6.78558">
        <ele>369.72</ele>
        <time>2016-10-16T07:33:52Z</time>
      </trkpt>
      <trkpt lat="47.45846" lon="6.78583">
        <ele>372.09</ele>
        <time>2016-10-16T07:33:57Z</time>
      </trkpt>
      <trkpt lat="47.45856" lon="6.78608">
        <ele>373.67</ele>
        <time>2016-10-16T07:34:01Z</time>
      </trkpt>
      <trkpt lat="47.45865" lon="6.78633">
        <ele>373.13</ele>
        <time>2016-10-16T07:34:06Z</time>
      </trkpt>
      <trkpt lat="47.45874" lon="6.7866">
        <ele>373.9</ele>
        <time>2016-10-16T07:34:11Z</time>
      </trkpt>
      <trkpt lat="47.45882" lon="6.78686">
        <ele>375.99</ele>
        <time>2016-10-16T07:34:16Z</time>
      </trkpt>
      <trkpt lat="47.45889" lon="6.78713">
        <ele>377.25</ele>
        <time>2016-10-16T07:34:21Z</time>
      </trkpt>
      <trkpt lat="47.45899" lon="6.78739">
        <ele>377.18</ele>
        <time>2016-10-16T07:34:26Z</time>
      </trkpt>
      <trkpt lat="47.45908" lon="6.78764">
        <ele>376.49</ele>
        <time>2016-10-16T07:34:31Z</time>
      </trkpt>
      <trkpt lat="47.45917" lon="6.78791">
        <ele>376.44</ele>
        <time>2016-10-16T07:34:36Z</time>
      </trkpt>
      <trkpt lat="47.45928" lon="6.78818">
        <ele>375.38</ele>
        <time>2016-10-16T07:34:41Z</time>
      </trkpt>
      <trkpt lat="47.45937" lon="6.78844">
        <ele>375.03</ele>
        <time>2016-10-16T07:34:46Z</time>
      </trkpt>
      <trkpt lat="47.45946" lon="6.78872">
        <ele>376.51</ele>
        <time>2016-10-16T07:34:51Z</time>
      </trkpt>
      <trkpt lat="47.45955" lon="6.78898">
        <ele>377.85</ele>
        <time>2016-10-16T07:34:56Z</time>
      </trkpt>
      <trkpt lat="47.45963" lon="6.78923">
        <ele>379.53</ele>
        <time>2016-10-16T07:35:01Z</time>
      </trkpt>
      <trkpt lat="47.45973" lon="6.78952">
        <ele>379.99</ele>
        <time>2016-10-16T07:35:06Z</time>
      </trkpt>
      <trkpt lat="47.45982" lon="6.78978">
        <ele>380.66</ele>
        <time>2016-10-16T07:35:11Z</time>
      </trkpt>
      <trkpt lat="47.45991" lon="6.79006">
        <ele>380.35</ele>
        <time>2016-10-16T07:35:16Z</time>
      </trkpt>
      <trkpt lat="47.46001" lon="6.79035">
        <ele>379.92</ele>
        <time>2016-10-16T07:35:21Z</time>
      </trkpt>
      <trkpt lat="47.46007" lon="6.79061">
        <ele>381.72</ele>
        <time>2016-10-16T07:35:26Z</time>
      </trkpt>
      <trkpt lat="47.46015" lon="6.79086">
        <ele>382.4</ele>
        <time>2016-10-16T07:35:31Z</time>
      </trkpt>
      <trkpt lat="47.46024" lon="6.79117">
        <ele>384.04</ele>
        <time>2016-10-16T07:35:37Z</time>
      </trkpt>
      <trkpt lat="47.46031" lon="6.79144">
        <ele>384.79</ele>
        <time>2016-10-16T07:35:42Z</time>
      </trkpt>
      <trkpt lat="47.46037" lon="6.79169">
        <ele>387.13</ele>
        <time>2016-10-16T07:35:46Z</time>
      </trkpt>
      <trkpt lat="47.46043" lon="6.79198">
        <ele>388.71</ele>
        <time>2016-10-16T07:35:51Z</time>
      </trkpt>
      <trkpt lat="47.46048" lon="6.79227">
        <ele>390.67</ele>
        <time>2016-10-16T07:35:56Z</time>
      </trkpt>
      <trkpt lat="47.46053" lon="6.79255">
        <ele>390.17</ele>
        <time>2016-10-16T07:36:01Z</time>
      </trkpt>
      <trkpt lat="47.46059" lon="6.79281">
        <ele>390.5</ele>
        <time>2016-10-16T07:36:05Z</time>
      </trkpt>
      <trkpt lat="47.46065" lon="6.79311">
        <ele>390.75</ele>
        <time>2016-10-16T07:36:10Z</time>
      </trkpt>
      <trkpt lat="47.46068" lon="6.79339">
        <ele>391.47</ele>
        <time>2016-10-16T07:36:14Z</time>
      </trkpt>
      <trkpt lat="47.46071" lon="6.7937">
        <ele>392.13</ele>
        <time>2016-10-16T07:36:19Z</time>
      </trkpt>
      <trkpt lat="47.46071" lon="6.79397">
        <ele>394.26</ele>
        <time>2016-10-16T07:36:23Z</time>
      </trkpt>
      <trkpt lat="47.4607" lon="6.79424">
        <ele>395.48</ele>
        <time>2016-10-16T07:36:27Z</time>
      </trkpt>
      <trkpt lat="47.46068" lon="6.79452">
        <ele>395.3</ele>
        <time>2016-10-16T07:36:31Z</time>
      </trkpt>
      <trkpt lat="47.46065" lon="6.79482">
        <ele>394.76</ele>
        <time>2016-10-16T07:36:35Z</time>
      </trkpt>
      <trkpt lat="47.4606" lon="6.79514">
        <ele>394.68</ele>
        <time>2016-10-16T07:36:39Z</time>
      </trkpt>
      <trkpt lat="47.46054" lon="6.79545">
        <ele>393.59</ele>
        <time>2016-10-16T07:36:43Z</time>
      </trkpt>
      <trkpt lat="47.46049" lon="6.79576">
        <ele>393.57</ele>
        <time>2016-10-16T07:36:47Z</time>
      </trkpt>
      <trkpt lat="47.46045" lon="6.7961">
        <ele>392.76</ele>
        <time>2016-10-16T07:36:51Z</time>
      </trkpt>
      <trkpt lat="47.46039" lon="6.79644">
        <ele>395.21</ele>
        <time>2016-10-16T07:36:55Z</time>
      </trkpt>
      <trkpt lat="47.4604" lon="6.79674">
        <ele>395.96</ele>
        <time>2016-10-16T07:36:59Z</time>
      </trkpt>
      <trkpt lat="47.46042" lon="6.79703">
        <ele>395.75</ele>
        <time>2016-10-16T07:37:03Z</time>
      </trkpt>
      <trkpt lat="47.46043" lon="6.79733">
        <ele>398.25</ele>
        <time>2016-10-16T07:37:07Z</time>
      </trkpt>
      <trkpt lat="47.46043" lon="6.79766">
        <ele>398</ele>
        <time>2016-10-16T07:37:11Z</time>
      </trkpt>
      <trkpt lat="47.46034" lon="6.79794">
        <ele>395.1</ele>
        <time>2016-10-16T07:37:15Z</time>
      </trkpt>
      <trkpt lat="47.46019" lon="6.79818">
        <ele>394.76</ele>
        <time>2016-10-16T07:37:19Z</time>
      </trkpt>
      <trkpt lat="47.46004" lon="6.79838">
        <ele>395.02</ele>
        <time>2016-10-16T07:37:25Z</time>
      </trkpt>
      <trkpt lat="47.45995" lon="6.79862">
        <ele>395.59</ele>
        <time>2016-10-16T07:37:30Z</time>
      </trkpt>
      <trkpt lat="47.45992" lon="6.79889">
        <ele>396.68</ele>
        <time>2016-10-16T07:37:36Z</time>
      </trkpt>
      <trkpt lat="47.45991" lon="6.7992">
        <ele>397.65</ele>
        <time>2016-10-16T07:37:42Z</time>
      </trkpt>
      <trkpt lat="47.4599" lon="6.79951">
        <ele>398.65</ele>
        <time>2016-10-16T07:37:49Z</time>
      </trkpt>
      <trkpt lat="47.45991" lon="6.79978">
        <ele>399.63</ele>
        <time>2016-10-16T07:37:54Z</time>
      </trkpt>
      <trkpt lat="47.45993" lon="6.80009">
        <ele>400.79</ele>
        <time>2016-10-16T07:38:01Z</time>
      </trkpt>
      <trkpt lat="47.45994" lon="6.80038">
        <ele>401.7</ele>
        <time>2016-10-16T07:38:08Z</time>
      </trkpt>
      <trkpt lat="47.45997" lon="6.80066">
        <ele>402.58</ele>
        <time>2016-10-16T07:38:14Z</time>
      </trkpt>
      <trkpt lat="47.46001" lon="6.80093">
        <ele>403.42</ele>
        <time>2016-10-16T07:38:21Z</time>
      </trkpt>
      <trkpt lat="47.46004" lon="6.8012">
        <ele>404.33</ele>
        <time>2016-10-16T07:38:28Z</time>
      </trkpt>
      <trkpt lat="47.46007" lon="6.80147">
        <ele>404.95</ele>
        <time>2016-10-16T07:38:34Z</time>
      </trkpt>
      <trkpt lat="47.46013" lon="6.80176">
        <ele>406.18</ele>
        <time>2016-10-16T07:38:42Z</time>
      </trkpt>
      <trkpt lat="47.46017" lon="6.80206">
        <ele>407.23</ele>
        <time>2016-10-16T07:38:49Z</time>
      </trkpt>
      <trkpt lat="47.46021" lon="6.80232">
        <ele>408.34</ele>
        <time>2016-10-16T07:38:56Z</time>
      </trkpt>
      <trkpt lat="47.46025" lon="6.80262">
        <ele>409.11</ele>
        <time>2016-10-16T07:39:03Z</time>
      </trkpt>
      <trkpt lat="47.46018" lon="6.80287">
        <ele>412.84</ele>
        <time>2016-10-16T07:40:40Z</time>
      </trkpt>
      <trkpt lat="47.46022" lon="6.80318">
        <ele>411.9</ele>
        <time>2016-10-16T07:42:29Z</time>
      </trkpt>
      <trkpt lat="47.46031" lon="6.80345">
        <ele>411.82</ele>
        <time>2016-10-16T07:42:35Z</time>
      </trkpt>
      <trkpt lat="47.46041" lon="6.80374">
        <ele>410.96</ele>
        <time>2016-10-16T07:42:41Z</time>
      </trkpt>
      <trkpt lat="47.4605" lon="6.80402">
        <ele>409.4</ele>
        <time>2016-10-16T07:42:45Z</time>
      </trkpt>
      <trkpt lat="47.46053" lon="6.8043">
        <ele>406.7</ele>
        <time>2016-10-16T07:42:48Z</time>
      </trkpt>
      <trkpt lat="47.46046" lon="6.80458">
        <ele>404.56</ele>
        <time>2016-10-16T07:42:51Z</time>
      </trkpt>
      <trkpt lat="47.4604" lon="6.80488">
        <ele>403.11</ele>
        <time>2016-10-16T07:42:54Z</time>
      </trkpt>
      <trkpt lat="47.46033" lon="6.80518">
        <ele>400.59</ele>
        <time>2016-10-16T07:42:58Z</time>
      </trkpt>
      <trkpt lat="47.46027" lon="6.80547">
        <ele>397.06</ele>
        <time>2016-10-16T07:43:02Z</time>
      </trkpt>
      <trkpt lat="47.46024" lon="6.80579">
        <ele>396.27</ele>
        <time>2016-10-16T07:43:06Z</time>
      </trkpt>
      <trkpt lat="47.46012" lon="6.80605">
        <ele>395.39</ele>
        <time>2016-10-16T07:43:11Z</time>
      </trkpt>
      <trkpt lat="47.46005" lon="6.80633">
        <ele>395.36</ele>
        <time>2016-10-16T07:43:16Z</time>
      </trkpt>
      <trkpt lat="47.45999" lon="6.80659">
        <ele>395.73</ele>
        <time>2016-10-16T07:43:21Z</time>
      </trkpt>
      <trkpt lat="47.45983" lon="6.80676">
        <ele>397.04</ele>
        <time>2016-10-16T07:43:26Z</time>
      </trkpt>
      <trkpt lat="47.45971" lon="6.80703">
        <ele>397.9</ele>
        <time>2016-10-16T07:43:30Z</time>
      </trkpt>
      <trkpt lat="47.45964" lon="6.80728">
        <ele>397.17</ele>
        <time>2016-10-16T07:43:34Z</time>
      </trkpt>
      <trkpt lat="47.45971" lon="6.80757">
        <ele>396.02</ele>
        <time>2016-10-16T07:43:45Z</time>
      </trkpt>
      <trkpt lat="47.45978" lon="6.80782">
        <ele>395.24</ele>
        <time>2016-10-16T07:43:52Z</time>
      </trkpt>
      <trkpt lat="47.45971" lon="6.8081">
        <ele>392.81</ele>
        <time>2016-10-16T07:43:57Z</time>
      </trkpt>
      <trkpt lat="47.4597" lon="6.80837">
        <ele>390.04</ele>
        <time>2016-10-16T07:44:00Z</time>
      </trkpt>
      <trkpt lat="47.45972" lon="6.80869">
        <ele>390.11</ele>
        <time>2016-10-16T07:44:04Z</time>
      </trkpt>
      <trkpt lat="47.45976" lon="6.80898">
        <ele>388.53</ele>
        <time>2016-10-16T07:44:07Z</time>
      </trkpt>
      <trkpt lat="47.45975" lon="6.80927">
        <ele>387.24</ele>
        <time>2016-10-16T07:44:14Z</time>
      </trkpt>
      <trkpt lat="47.45967" lon="6.80952">
        <ele>387.5</ele>
        <time>2016-10-16T07:44:18Z</time>
      </trkpt>
      <trkpt lat="47.45956" lon="6.80975">
        <ele>387.77</ele>
        <time>2016-10-16T07:44:25Z</time>
      </trkpt>
      <trkpt lat="47.45949" lon="6.81003">
        <ele>387.74</ele>
        <time>2016-10-16T07:44:33Z</time>
      </trkpt>
      <trkpt lat="47.45963" lon="6.81024">
        <ele>388.39</ele>
        <time>2016-10-16T07:44:47Z</time>
      </trkpt>
      <trkpt lat="47.45979" lon="6.81039">
        <ele>388.7</ele>
        <time>2016-10-16T07:44:57Z</time>
      </trkpt>
      <trkpt lat="47.45995" lon="6.81053">
        <ele>389.44</ele>
        <time>2016-10-16T07:45:06Z</time>
      </trkpt>
      <trkpt lat="47.46014" lon="6.81057">
        <ele>389.75</ele>
        <time>2016-10-16T07:45:17Z</time>
      </trkpt>
      <trkpt lat="47.4603" lon="6.81072">
        <ele>390.88</ele>
        <time>2016-10-16T07:45:29Z</time>
      </trkpt>
      <trkpt lat="47.46046" lon="6.81087">
        <ele>392.34</ele>
        <time>2016-10-16T07:45:38Z</time>
      </trkpt>
      <trkpt lat="47.46063" lon="6.81097">
        <ele>393.8</ele>
        <time>2016-10-16T07:45:49Z</time>
      </trkpt>
      <trkpt lat="47.4608" lon="6.81112">
        <ele>395.91</ele>
        <time>2016-10-16T07:45:59Z</time>
      </trkpt>
      <trkpt lat="47.46096" lon="6.81126">
        <ele>397.72</ele>
        <time>2016-10-16T07:46:10Z</time>
      </trkpt>
      <trkpt lat="47.46114" lon="6.8114">
        <ele>400.03</ele>
        <time>2016-10-16T07:46:22Z</time>
      </trkpt>
      <trkpt lat="47.46131" lon="6.81151">
        <ele>401.98</ele>
        <time>2016-10-16T07:46:32Z</time>
      </trkpt>
      <trkpt lat="47.46146" lon="6.81167">
        <ele>403.68</ele>
        <time>2016-10-16T07:46:41Z</time>
      </trkpt>
      <trkpt lat="47.46163" lon="6.81178">
        <ele>406.73</ele>
        <time>2016-10-16T07:46:53Z</time>
      </trkpt>
      <trkpt lat="47.46179" lon="6.8119">
        <ele>409.57</ele>
        <time>2016-10-16T07:47:04Z</time>
      </trkpt>
      <trkpt lat="47.46196" lon="6.81201">
        <ele>412.13</ele>
        <time>2016-10-16T07:47:16Z</time>
      </trkpt>
      <trkpt lat="47.46213" lon="6.8121">
        <ele>414.7</ele>
        <time>2016-10-16T07:47:28Z</time>
      </trkpt>
      <trkpt lat="47.46229" lon="6.81224">
        <ele>415.4</ele>
        <time>2016-10-16T07:47:38Z</time>
      </trkpt>
      <trkpt lat="47.46247" lon="6.81237">
        <ele>416.5</ele>
        <time>2016-10-16T07:47:48Z</time>
      </trkpt>
      <trkpt lat="47.46264" lon="6.81253">
        <ele>417.12</ele>
        <time>2016-10-16T07:47:54Z</time>
      </trkpt>
      <trkpt lat="47.4628" lon="6.81266">
        <ele>418.33</ele>
        <time>2016-10-16T07:48:07Z</time>
      </trkpt>
      <trkpt lat="47.46298" lon="6.81278">
        <ele>418.98</ele>
        <time>2016-10-16T07:48:15Z</time>
      </trkpt>
      <trkpt lat="47.46315" lon="6.81291">
        <ele>419.02</ele>
        <time>2016-10-16T07:48:21Z</time>
      </trkpt>
      <trkpt lat="47.46333" lon="6.81304">
        <ele>419.1</ele>
        <time>2016-10-16T07:48:26Z</time>
      </trkpt>
      <trkpt lat="47.46351" lon="6.81317">
        <ele>418.42</ele>
        <time>2016-10-16T07:48:30Z</time>
      </trkpt>
      <trkpt lat="47.46371" lon="6.81336">
        <ele>417.76</ele>
        <time>2016-10-16T07:48:34Z</time>
      </trkpt>
      <trkpt lat="47.46393" lon="6.81351">
        <ele>415.23</ele>
        <time>2016-10-16T07:48:38Z</time>
      </trkpt>
      <trkpt lat="47.46412" lon="6.81365">
        <ele>414.69</ele>
        <time>2016-10-16T07:48:41Z</time>
      </trkpt>
      <trkpt lat="47.46433" lon="6.81379">
        <ele>415.08</ele>
        <time>2016-10-16T07:48:44Z</time>
      </trkpt>
      <trkpt lat="47.46457" lon="6.81396">
        <ele>414.21</ele>
        <time>2016-10-16T07:48:47Z</time>
      </trkpt>
      <trkpt lat="47.46474" lon="6.81409">
        <ele>412.17</ele>
        <time>2016-10-16T07:48:49Z</time>
      </trkpt>
      <trkpt lat="47.46492" lon="6.81418">
        <ele>409.82</ele>
        <time>2016-10-16T07:48:51Z</time>
      </trkpt>
      <trkpt lat="47.46513" lon="6.81427">
        <ele>406.8</ele>
        <time>2016-10-16T07:48:53Z</time>
      </trkpt>
      <trkpt lat="47.46534" lon="6.81435">
        <ele>404.32</ele>
        <time>2016-10-16T07:48:55Z</time>
      </trkpt>
      <trkpt lat="47.46553" lon="6.81439">
        <ele>402.3</ele>
        <time>2016-10-16T07:48:57Z</time>
      </trkpt>
      <trkpt lat="47.46579" lon="6.81446">
        <ele>399.1</ele>
        <time>2016-10-16T07:49:00Z</time>
      </trkpt>
      <trkpt lat="47.46597" lon="6.81451">
        <ele>396.82</ele>
        <time>2016-10-16T07:49:02Z</time>
      </trkpt>
      <trkpt lat="47.46619" lon="6.81459">
        <ele>394.7</ele>
        <time>2016-10-16T07:49:05Z</time>
      </trkpt>
      <trkpt lat="47.46641" lon="6.81456">
        <ele>392.68</ele>
        <time>2016-10-16T07:49:08Z</time>
      </trkpt>
      <trkpt lat="47.46662" lon="6.81454">
        <ele>390.76</ele>
        <time>2016-10-16T07:49:11Z</time>
      </trkpt>
      <trkpt lat="47.46678" lon="6.81468">
        <ele>388.71</ele>
        <time>2016-10-16T07:49:14Z</time>
      </trkpt>
      <trkpt lat="47.46696" lon="6.81481">
        <ele>388.5</ele>
        <time>2016-10-16T07:49:17Z</time>
      </trkpt>
      <trkpt lat="47.46715" lon="6.81497">
        <ele>389.41</ele>
        <time>2016-10-16T07:49:21Z</time>
      </trkpt>
      <trkpt lat="47.46729" lon="6.81517">
        <ele>392.02</ele>
        <time>2016-10-16T07:49:25Z</time>
      </trkpt>
      <trkpt lat="47.46729" lon="6.81543">
        <ele>394.15</ele>
        <time>2016-10-16T07:49:29Z</time>
      </trkpt>
      <trkpt lat="47.46719" lon="6.81571">
        <ele>396.82</ele>
        <time>2016-10-16T07:49:34Z</time>
      </trkpt>
      <trkpt lat="47.4671" lon="6.81596">
        <ele>397.82</ele>
        <time>2016-10-16T07:49:38Z</time>
      </trkpt>
      <trkpt lat="47.46701" lon="6.81622">
        <ele>397.69</ele>
        <time>2016-10-16T07:49:43Z</time>
      </trkpt>
      <trkpt lat="47.46716" lon="6.81645">
        <ele>398.45</ele>
        <time>2016-10-16T07:49:50Z</time>
      </trkpt>
      <trkpt lat="47.4673" lon="6.81663">
        <ele>398.82</ele>
        <time>2016-10-16T07:49:55Z</time>
      </trkpt>
      <trkpt lat="47.46737" lon="6.81689">
        <ele>398.73</ele>
        <time>2016-10-16T07:50:01Z</time>
      </trkpt>
      <trkpt lat="47.4674" lon="6.81718">
        <ele>398.68</ele>
        <time>2016-10-16T07:50:08Z</time>
      </trkpt>
      <trkpt lat="47.46736" lon="6.81748">
        <ele>398.51</ele>
        <time>2016-10-16T07:50:21Z</time>
      </trkpt>
      <trkpt lat="47.46726" lon="6.81773">
        <ele>399.39</ele>
        <time>2016-10-16T07:50:28Z</time>
      </trkpt>
      <trkpt lat="47.46719" lon="6.81799">
        <ele>400.42</ele>
        <time>2016-10-16T07:50:35Z</time>
      </trkpt>
      <trkpt lat="47.46719" lon="6.81828">
        <ele>401.51</ele>
        <time>2016-10-16T07:50:44Z</time>
      </trkpt>
      <trkpt lat="47.46715" lon="6.81856">
        <ele>402.26</ele>
        <time>2016-10-16T07:50:50Z</time>
      </trkpt>
      <trkpt lat="47.46716" lon="6.81883">
        <ele>402.82</ele>
        <time>2016-10-16T07:50:56Z</time>
      </trkpt>
      <trkpt lat="47.4671" lon="6.81912">
        <ele>403.57</ele>
        <time>2016-10-16T07:51:05Z</time>
      </trkpt>
      <trkpt lat="47.46707" lon="6.81941">
        <ele>404.34</ele>
        <time>2016-10-16T07:51:11Z</time>
      </trkpt>
      <trkpt lat="47.46704" lon="6.81968">
        <ele>404.41</ele>
        <time>2016-10-16T07:51:16Z</time>
      </trkpt>
      <trkpt lat="47.46716" lon="6.81993">
        <ele>404.55</ele>
        <time>2016-10-16T07:51:26Z</time>
      </trkpt>
      <trkpt lat="47.46725" lon="6.82017">
        <ele>404.51</ele>
        <time>2016-10-16T07:51:32Z</time>
      </trkpt>
      <trkpt lat="47.46741" lon="6.8203">
        <ele>404.78</ele>
        <time>2016-10-16T07:51:38Z</time>
      </trkpt>
      <trkpt lat="47.4676" lon="6.8204">
        <ele>405.99</ele>
        <time>2016-10-16T07:51:44Z</time>
      </trkpt>
      <trkpt lat="47.46779" lon="6.82055">
        <ele>406.64</ele>
        <time>2016-10-16T07:51:50Z</time>
      </trkpt>
      <trkpt lat="47.46795" lon="6.82068">
        <ele>406.91</ele>
        <time>2016-10-16T07:51:56Z</time>
      </trkpt>
      <trkpt lat="47.46812" lon="6.82086">
        <ele>407.22</ele>
        <time>2016-10-16T07:52:01Z</time>
      </trkpt>
      <trkpt lat="47.4683" lon="6.82098">
        <ele>409.08</ele>
        <time>2016-10-16T07:52:05Z</time>
      </trkpt>
      <trkpt lat="47.46849" lon="6.82112">
        <ele>410.84</ele>
        <time>2016-10-16T07:52:09Z</time>
      </trkpt>
      <trkpt lat="47.46867" lon="6.82128">
        <ele>409.6</ele>
        <time>2016-10-16T07:52:12Z</time>
      </trkpt>
      <trkpt lat="47.46889" lon="6.82148">
        <ele>407.44</ele>
        <time>2016-10-16T07:52:15Z</time>
      </trkpt>
      <trkpt lat="47.46911" lon="6.82172">
        <ele>404.16</ele>
        <time>2016-10-16T07:52:18Z</time>
      </trkpt>
      <trkpt lat="47.46929" lon="6.82182">
        <ele>402.47</ele>
        <time>2016-10-16T07:52:20Z</time>
      </trkpt>
      <trkpt lat="47.46953" lon="6.82187">
        <ele>397.78</ele>
        <time>2016-10-16T07:52:23Z</time>
      </trkpt>
      <trkpt lat="47.46977" lon="6.8219">
        <ele>395.7</ele>
        <time>2016-10-16T07:52:26Z</time>
      </trkpt>
      <trkpt lat="47.47003" lon="6.82194">
        <ele>393.33</ele>
        <time>2016-10-16T07:52:29Z</time>
      </trkpt>
      <trkpt lat="47.47024" lon="6.822">
        <ele>391.83</ele>
        <time>2016-10-16T07:52:32Z</time>
      </trkpt>
      <trkpt lat="47.47045" lon="6.82204">
        <ele>391.41</ele>
        <time>2016-10-16T07:52:35Z</time>
      </trkpt>
      <trkpt lat="47.47065" lon="6.82204">
        <ele>389.82</ele>
        <time>2016-10-16T07:52:38Z</time>
      </trkpt>
      <trkpt lat="47.47083" lon="6.82198">
        <ele>388.23</ele>
        <time>2016-10-16T07:52:41Z</time>
      </trkpt>
      <trkpt lat="47.47104" lon="6.82194">
        <ele>391.32</ele>
        <time>2016-10-16T07:52:45Z</time>
      </trkpt>
      <trkpt lat="47.47124" lon="6.82189">
        <ele>393.02</ele>
        <time>2016-10-16T07:52:50Z</time>
      </trkpt>
      <trkpt lat="47.47145" lon="6.82189">
        <ele>394.95</ele>
        <time>2016-10-16T07:52:54Z</time>
      </trkpt>
      <trkpt lat="47.47157" lon="6.82169">
        <ele>395.8</ele>
        <time>2016-10-16T07:53:00Z</time>
      </trkpt>
      <trkpt lat="47.47164" lon="6.8214">
        <ele>396.79</ele>
        <time>2016-10-16T07:53:04Z</time>
      </trkpt>
      <trkpt lat="47.47171" lon="6.82112">
        <ele>395.36</ele>
        <time>2016-10-16T07:53:09Z</time>
      </trkpt>
      <trkpt lat="47.47176" lon="6.82084">
        <ele>391.94</ele>
        <time>2016-10-16T07:53:13Z</time>
      </trkpt>
      <trkpt lat="47.47185" lon="6.82054">
        <ele>389.4</ele>
        <time>2016-10-16T07:53:17Z</time>
      </trkpt>
      <trkpt lat="47.472" lon="6.8203">
        <ele>388.67</ele>
        <time>2016-10-16T07:53:21Z</time>
      </trkpt>
      <trkpt lat="47.47213" lon="6.82009">
        <ele>387.81</ele>
        <time>2016-10-16T07:53:24Z</time>
      </trkpt>
      <trkpt lat="47.47235" lon="6.82001">
        <ele>386.06</ele>
        <time>2016-10-16T07:53:28Z</time>
      </trkpt>
      <trkpt lat="47.47253" lon="6.81997">
        <ele>384.25</ele>
        <time>2016-10-16T07:53:31Z</time>
      </trkpt>
      <trkpt lat="47.47272" lon="6.81999">
        <ele>383.82</ele>
        <time>2016-10-16T07:53:34Z</time>
      </trkpt>
      <trkpt lat="47.47292" lon="6.82007">
        <ele>385.26</ele>
        <time>2016-10-16T07:53:38Z</time>
      </trkpt>
      <trkpt lat="47.47312" lon="6.82016">
        <ele>385.12</ele>
        <time>2016-10-16T07:53:42Z</time>
      </trkpt>
      <trkpt lat="47.47332" lon="6.82017">
        <ele>381.91</ele>
        <time>2016-10-16T07:53:45Z</time>
      </trkpt>
      <trkpt lat="47.47354" lon="6.82014">
        <ele>376.91</ele>
        <time>2016-10-16T07:53:48Z</time>
      </trkpt>
      <trkpt lat="47.47375" lon="6.82009">
        <ele>372.46</ele>
        <time>2016-10-16T07:53:52Z</time>
      </trkpt>
      <trkpt lat="47.47391" lon="6.82024">
        <ele>370.51</ele>
        <time>2016-10-16T07:53:58Z</time>
      </trkpt>
      <trkpt lat="47.47409" lon="6.82036">
        <ele>370.72</ele>
        <time>2016-10-16T07:54:05Z</time>
      </trkpt>
      <trkpt lat="47.47428" lon="6.82047">
        <ele>370.83</ele>
        <time>2016-10-16T07:54:11Z</time>
      </trkpt>
      <trkpt lat="47.47446" lon="6.82049">
        <ele>371.23</ele>
        <time>2016-10-16T07:54:16Z</time>
      </trkpt>
      <trkpt lat="47.47467" lon="6.82045">
        <ele>371.88</ele>
        <time>2016-10-16T07:54:22Z</time>
      </trkpt>
      <trkpt lat="47.47486" lon="6.82042">
        <ele>372.52</ele>
        <time>2016-10-16T07:54:28Z</time>
      </trkpt>
      <trkpt lat="47.47507" lon="6.82042">
        <ele>373.34</ele>
        <time>2016-10-16T07:54:34Z</time>
      </trkpt>
      <trkpt lat="47.47528" lon="6.8204">
        <ele>373.81</ele>
        <time>2016-10-16T07:54:39Z</time>
      </trkpt>
      <trkpt lat="47.47548" lon="6.82039">
        <ele>375.89</ele>
        <time>2016-10-16T07:54:44Z</time>
      </trkpt>
      <trkpt lat="47.47569" lon="6.82042">
        <ele>380.48</ele>
        <time>2016-10-16T07:54:49Z</time>
      </trkpt>
      <trkpt lat="47.47589" lon="6.82061">
        <ele>380.81</ele>
        <time>2016-10-16T07:54:54Z</time>
      </trkpt>
      <trkpt lat="47.47608" lon="6.8207">
        <ele>380.42</ele>
        <time>2016-10-16T07:54:57Z</time>
      </trkpt>
      <trkpt lat="47.4763" lon="6.82077">
        <ele>379.45</ele>
        <time>2016-10-16T07:55:01Z</time>
      </trkpt>
      <trkpt lat="47.47649" lon="6.82068">
        <ele>379.13</ele>
        <time>2016-10-16T07:55:04Z</time>
      </trkpt>
      <trkpt lat="47.47668" lon="6.82062">
        <ele>378.98</ele>
        <time>2016-10-16T07:55:07Z</time>
      </trkpt>
      <trkpt lat="47.47685" lon="6.82045">
        <ele>375.93</ele>
        <time>2016-10-16T07:55:10Z</time>
      </trkpt>
      <trkpt lat="47.47703" lon="6.82027">
        <ele>372.42</ele>
        <time>2016-10-16T07:55:13Z</time>
      </trkpt>
      <trkpt lat="47.47723" lon="6.82007">
        <ele>370.24</ele>
        <time>2016-10-16T07:55:16Z</time>
      </trkpt>
      <trkpt lat="47.47739" lon="6.81986">
        <ele>369.68</ele>
        <time>2016-10-16T07:55:20Z</time>
      </trkpt>
      <trkpt lat="47.47753" lon="6.81966">
        <ele>366.95</ele>
        <time>2016-10-16T07:55:23Z</time>
      </trkpt>
      <trkpt lat="47.47769" lon="6.81946">
        <ele>363.93</ele>
        <time>2016-10-16T07:55:26Z</time>
      </trkpt>
      <trkpt lat="47.47786" lon="6.81925">
        <ele>362.63</ele>
        <time>2016-10-16T07:55:29Z</time>
      </trkpt>
      <trkpt lat="47.47806" lon="6.81898">
        <ele>363.25</ele>
        <time>2016-10-16T07:55:32Z</time>
      </trkpt>
      <trkpt lat="47.47819" lon="6.81877">
        <ele>363.32</ele>
        <time>2016-10-16T07:55:34Z</time>
      </trkpt>
      <trkpt lat="47.47835" lon="6.81845">
        <ele>363.2</ele>
        <time>2016-10-16T07:55:37Z</time>
      </trkpt>
      <trkpt lat="47.47842" lon="6.8182">
        <ele>362.45</ele>
        <time>2016-10-16T07:55:40Z</time>
      </trkpt>
      <trkpt lat="47.47856" lon="6.81802">
        <ele>358.86</ele>
        <time>2016-10-16T07:55:43Z</time>
      </trkpt>
      <trkpt lat="47.47858" lon="6.81774">
        <ele>358.01</ele>
        <time>2016-10-16T07:55:47Z</time>
      </trkpt>
      <trkpt lat="47.47859" lon="6.81742">
        <ele>358.9</ele>
        <time>2016-10-16T07:55:51Z</time>
      </trkpt>
      <trkpt lat="47.47862" lon="6.81714">
        <ele>357.17</ele>
        <time>2016-10-16T07:55:54Z</time>
      </trkpt>
      <trkpt lat="47.47881" lon="6.8172">
        <ele>353.88</ele>
        <time>2016-10-16T07:55:59Z</time>
      </trkpt>
      <trkpt lat="47.47895" lon="6.81695">
        <ele>351.28</ele>
        <time>2016-10-16T07:56:04Z</time>
      </trkpt>
      <trkpt lat="47.47899" lon="6.81668">
        <ele>349.07</ele>
        <time>2016-10-16T07:56:08Z</time>
      </trkpt>
      <trkpt lat="47.47914" lon="6.8165">
        <ele>348.94</ele>
        <time>2016-10-16T07:56:12Z</time>
      </trkpt>
      <trkpt lat="47.47925" lon="6.81627">
        <ele>349.18</ele>
        <time>2016-10-16T07:56:16Z</time>
      </trkpt>
      <trkpt lat="47.47934" lon="6.816">
        <ele>348.95</ele>
        <time>2016-10-16T07:56:24Z</time>
      </trkpt>
      <trkpt lat="47.47937" lon="6.81572">
        <ele>348.69</ele>
        <time>2016-10-16T07:56:29Z</time>
      </trkpt>
      <trkpt lat="47.47943" lon="6.81542">
        <ele>348.87</ele>
        <time>2016-10-16T07:56:35Z</time>
      </trkpt>
      <trkpt lat="47.4795" lon="6.81511">
        <ele>349.71</ele>
        <time>2016-10-16T07:56:42Z</time>
      </trkpt>
      <trkpt lat="47.47962" lon="6.8149">
        <ele>350.66</ele>
        <time>2016-10-16T07:56:49Z</time>
      </trkpt>
      <trkpt lat="47.47981" lon="6.81486">
        <ele>351.4</ele>
        <time>2016-10-16T07:56:55Z</time>
      </trkpt>
      <trkpt lat="47.47999" lon="6.81484">
        <ele>353.41</ele>
        <time>2016-10-16T07:56:59Z</time>
      </trkpt>
      <trkpt lat="47.48022" lon="6.81486">
        <ele>355.11</ele>
        <time>2016-10-16T07:57:03Z</time>
      </trkpt>
      <trkpt lat="47.48042" lon="6.8148">
        <ele>353.94</ele>
        <time>2016-10-16T07:57:07Z</time>
      </trkpt>
      <trkpt lat="47.48054" lon="6.81452">
        <ele>350.32</ele>
        <time>2016-10-16T07:57:11Z</time>
      </trkpt>
      <trkpt lat="47.48069" lon="6.81431">
        <ele>347.04</ele>
        <time>2016-10-16T07:57:14Z</time>
      </trkpt>
      <trkpt lat="47.48091" lon="6.81436">
        <ele>345.89</ele>
        <time>2016-10-16T07:57:20Z</time>
      </trkpt>
      <trkpt lat="47.48113" lon="6.81438">
        <ele>342.72</ele>
        <time>2016-10-16T07:57:24Z</time>
      </trkpt>
      <trkpt lat="47.48135" lon="6.81441">
        <ele>341.11</ele>
        <time>2016-10-16T07:57:27Z</time>
      </trkpt>
      <trkpt lat="47.48162" lon="6.81442">
        <ele>339.24</ele>
        <time>2016-10-16T07:57:30Z</time>
      </trkpt>
      <trkpt lat="47.48182" lon="6.81444">
        <ele>337.34</ele>
        <time>2016-10-16T07:57:32Z</time>
      </trkpt>
      <trkpt lat="47.48204" lon="6.81446">
        <ele>334.91</ele>
        <time>2016-10-16T07:57:34Z</time>
      </trkpt>
      <trkpt lat="47.48224" lon="6.81443">
        <ele>332.58</ele>
        <time>2016-10-16T07:57:36Z</time>
      </trkpt>
      <trkpt lat="47.48243" lon="6.81436">
        <ele>328.88</ele>
        <time>2016-10-16T07:57:38Z</time>
      </trkpt>
      <trkpt lat="47.48263" lon="6.81415">
        <ele>323.54</ele>
        <time>2016-10-16T07:57:41Z</time>
      </trkpt>
      <trkpt lat="47.48278" lon="6.81429">
        <ele>319.87</ele>
        <time>2016-10-16T07:57:53Z</time>
      </trkpt>
      <trkpt lat="47.48283" lon="6.81456">
        <ele>319.83</ele>
        <time>2016-10-16T07:58:01Z</time>
      </trkpt>
      <trkpt lat="47.48296" lon="6.8148">
        <ele>318.37</ele>
        <time>2016-10-16T07:58:06Z</time>
      </trkpt>
      <trkpt lat="47.483" lon="6.81511">
        <ele>318.11</ele>
        <time>2016-10-16T07:58:11Z</time>
      </trkpt>
      <trkpt lat="47.48302" lon="6.81538">
        <ele>319.03</ele>
        <time>2016-10-16T07:58:15Z</time>
      </trkpt>
      <trkpt lat="47.48308" lon="6.81566">
        <ele>320.08</ele>
        <time>2016-10-16T07:58:19Z</time>
      </trkpt>
      <trkpt lat="47.48317" lon="6.81594">
        <ele>319.01</ele>
        <time>2016-10-16T07:58:24Z</time>
      </trkpt>
      <trkpt lat="47.48334" lon="6.8161">
        <ele>318.93</ele>
        <time>2016-10-16T07:58:28Z</time>
      </trkpt>
      <trkpt lat="47.4835" lon="6.81624">
        <ele>317.84</ele>
        <time>2016-10-16T07:58:32Z</time>
      </trkpt>
      <trkpt lat="47.48371" lon="6.8162">
        <ele>316.57</ele>
        <time>2016-10-16T07:58:37Z</time>
      </trkpt>
      <trkpt lat="47.48393" lon="6.81616">
        <ele>318.46</ele>
        <time>2016-10-16T07:58:42Z</time>
      </trkpt>
      <trkpt lat="47.48414" lon="6.81612">
        <ele>317.35</ele>
        <time>2016-10-16T07:58:47Z</time>
      </trkpt>
      <trkpt lat="47.48413" lon="6.81583">
        <ele>319.54</ele>
        <time>2016-10-16T07:58:56Z</time>
      </trkpt>
      <trkpt lat="47.48407" lon="6.81551">
        <ele>321.07</ele>
        <time>2016-10-16T07:59:01Z</time>
      </trkpt>
      <trkpt lat="47.48405" lon="6.8152">
        <ele>321.95</ele>
        <time>2016-10-16T07:59:06Z</time>
      </trkpt>
      <trkpt lat="47.48402" lon="6.81492">
        <ele>320.68</ele>
        <time>2016-10-16T07:59:10Z</time>
      </trkpt>
      <trkpt lat="47.484" lon="6.81459">
        <ele>318.07</ele>
        <time>2016-10-16T07:59:15Z</time>
      </trkpt>
      <trkpt lat="47.48396" lon="6.8143">
        <ele>317.18</ele>
        <time>2016-10-16T07:59:19Z</time>
      </trkpt>
      <trkpt lat="47.48393" lon="6.81401">
        <ele>317.12</ele>
        <time>2016-10-16T07:59:23Z</time>
      </trkpt>
      <trkpt lat="47.48391" lon="6.81374">
        <ele>316.39</ele>
        <time>2016-10-16T07:59:27Z</time>
      </trkpt>
      <trkpt lat="47.48388" lon="6.81345">
        <ele>314.84</ele>
        <time>2016-10-16T07:59:31Z</time>
      </trkpt>
      <trkpt lat="47.48386" lon="6.81317">
        <ele>314.13</ele>
        <time>2016-10-16T07:59:35Z</time>
      </trkpt>
      <trkpt lat="47.48388" lon="6.81289">
        <ele>313.9</ele>
        <time>2016-10-16T07:59:39Z</time>
      </trkpt>
      <trkpt lat="47.48393" lon="6.81261">
        <ele>313.38</ele>
        <time>2016-10-16T07:59:43Z</time>
      </trkpt>
      <trkpt lat="47.48397" lon="6.81233">
        <ele>312.48</ele>
        <time>2016-10-16T07:59:47Z</time>
      </trkpt>
      <trkpt lat="47.48402" lon="6.81204">
        <ele>315.09</ele>
        <time>2016-10-16T07:59:52Z</time>
      </trkpt>
      <trkpt lat="47.48407" lon="6.81173">
        <ele>317.81</ele>
        <time>2016-10-16T07:59:57Z</time>
      </trkpt>
      <trkpt lat="47.48414" lon="6.81142">
        <ele>316.55</ele>
        <time>2016-10-16T08:00:02Z</time>
      </trkpt>
      <trkpt lat="47.48418" lon="6.81112">
        <ele>312.06</ele>
        <time>2016-10-16T08:00:06Z</time>
      </trkpt>
      <trkpt lat="47.48422" lon="6.81085">
        <ele>310.12</ele>
        <time>2016-10-16T08:00:10Z</time>
      </trkpt>
      <trkpt lat="47.48428" lon="6.81054">
        <ele>311.13</ele>
        <time>2016-10-16T08:00:14Z</time>
      </trkpt>
      <trkpt lat="47.48434" lon="6.81026">
        <ele>312.84</ele>
        <time>2016-10-16T08:00:18Z</time>
      </trkpt>
      <trkpt lat="47.48441" lon="6.80995">
        <ele>315.07</ele>
        <time>2016-10-16T08:00:22Z</time>
      </trkpt>
      <trkpt lat="47.48447" lon="6.80968">
        <ele>316.53</ele>
        <time>2016-10-16T08:00:26Z</time>
      </trkpt>
      <trkpt lat="47.48454" lon="6.8094">
        <ele>318.11</ele>
        <time>2016-10-16T08:00:30Z</time>
      </trkpt>
      <trkpt lat="47.48459" lon="6.80912">
        <ele>317.62</ele>
        <time>2016-10-16T08:00:34Z</time>
      </trkpt>
      <trkpt lat="47.48466" lon="6.8088">
        <ele>317.42</ele>
        <time>2016-10-16T08:00:38Z</time>
      </trkpt>
      <trkpt lat="47.48472" lon="6.80853">
        <ele>316.22</ele>
        <time>2016-10-16T08:00:42Z</time>
      </trkpt>
      <trkpt lat="47.48479" lon="6.80826">
        <ele>317.45</ele>
        <time>2016-10-16T08:00:46Z</time>
      </trkpt>
      <trkpt lat="47.48482" lon="6.80794">
        <ele>317.63</ele>
        <time>2016-10-16T08:00:50Z</time>
      </trkpt>
      <trkpt lat="47.4848" lon="6.80765">
        <ele>318.24</ele>
        <time>2016-10-16T08:00:54Z</time>
      </trkpt>
      <trkpt lat="47.48477" lon="6.80738">
        <ele>318.61</ele>
        <time>2016-10-16T08:00:58Z</time>
      </trkpt>
      <trkpt lat="47.48479" lon="6.8071">
        <ele>316.1</ele>
        <time>2016-10-16T08:01:02Z</time>
      </trkpt>
      <trkpt lat="47.48487" lon="6.80682">
        <ele>314.39</ele>
        <time>2016-10-16T08:01:07Z</time>
      </trkpt>
      <trkpt lat="47.48504" lon="6.80661">
        <ele>314.61</ele>
        <time>2016-10-16T08:01:12Z</time>
      </trkpt>
      <trkpt lat="47.48515" lon="6.80639">
        <ele>314.96</ele>
        <time>2016-10-16T08:01:16Z</time>
      </trkpt>
      <trkpt lat="47.48524" lon="6.80614">
        <ele>316.85</ele>
        <time>2016-10-16T08:01:21Z</time>
      </trkpt>
      <trkpt lat="47.48534" lon="6.80585">
        <ele>317.99</ele>
        <time>2016-10-16T08:01:26Z</time>
      </trkpt>
      <trkpt lat="47.48541" lon="6.80558">
        <ele>319.57</ele>
        <time>2016-10-16T08:01:30Z</time>
      </trkpt>
      <trkpt lat="47.48548" lon="6.8053">
        <ele>318.9</ele>
        <time>2016-10-16T08:01:34Z</time>
      </trkpt>
      <trkpt lat="47.48555" lon="6.805">
        <ele>317.63</ele>
        <time>2016-10-16T08:01:38Z</time>
      </trkpt>
      <trkpt lat="47.48563" lon="6.8047">
        <ele>316.96</ele>
        <time>2016-10-16T08:01:42Z</time>
      </trkpt>
      <trkpt lat="47.48571" lon="6.8044">
        <ele>316.23</ele>
        <time>2016-10-16T08:01:46Z</time>
      </trkpt>
      <trkpt lat="47.48583" lon="6.80413">
        <ele>315.12</ele>
        <time>2016-10-16T08:01:50Z</time>
      </trkpt>
      <trkpt lat="47.48596" lon="6.80391">
        <ele>315.88</ele>
        <time>2016-10-16T08:01:54Z</time>
      </trkpt>
      <trkpt lat="47.4861" lon="6.80366">
        <ele>316.97</ele>
        <time>2016-10-16T08:01:58Z</time>
      </trkpt>
      <trkpt lat="47.48624" lon="6.80343">
        <ele>319.77</ele>
        <time>2016-10-16T08:02:02Z</time>
      </trkpt>
      <trkpt lat="47.48636" lon="6.80324">
        <ele>320.3</ele>
        <time>2016-10-16T08:02:05Z</time>
      </trkpt>
      <trkpt lat="47.4865" lon="6.803">
        <ele>321.18</ele>
        <time>2016-10-16T08:02:09Z</time>
      </trkpt>
      <trkpt lat="47.48662" lon="6.80277">
        <ele>320.34</ele>
        <time>2016-10-16T08:02:13Z</time>
      </trkpt>
      <trkpt lat="47.48675" lon="6.80253">
        <ele>321.87</ele>
        <time>2016-10-16T08:02:17Z</time>
      </trkpt>
      <trkpt lat="47.48689" lon="6.80229">
        <ele>320.65</ele>
        <time>2016-10-16T08:02:21Z</time>
      </trkpt>
      <trkpt lat="47.48701" lon="6.80204">
        <ele>319.49</ele>
        <time>2016-10-16T08:02:25Z</time>
      </trkpt>
      <trkpt lat="47.48707" lon="6.80172">
        <ele>318.94</ele>
        <time>2016-10-16T08:02:29Z</time>
      </trkpt>
      <trkpt lat="47.48708" lon="6.8014">
        <ele>318.43</ele>
        <time>2016-10-16T08:02:33Z</time>
      </trkpt>
      <trkpt lat="47.48707" lon="6.80108">
        <ele>318.8</ele>
        <time>2016-10-16T08:02:37Z</time>
      </trkpt>
      <trkpt lat="47.48708" lon="6.80078">
        <ele>318.2</ele>
        <time>2016-10-16T08:02:40Z</time>
      </trkpt>
      <trkpt lat="47.48708" lon="6.80048">
        <ele>317.31</ele>
        <time>2016-10-16T08:02:43Z</time>
      </trkpt>
      <trkpt lat="47.48709" lon="6.80017">
        <ele>316.1</ele>
        <time>2016-10-16T08:02:47Z</time>
      </trkpt>
      <trkpt lat="47.48708" lon="6.79983">
        <ele>315.14</ele>
        <time>2016-10-16T08:02:51Z</time>
      </trkpt>
      <trkpt lat="47.48706" lon="6.79951">
        <ele>314.82</ele>
        <time>2016-10-16T08:02:55Z</time>
      </trkpt>
      <trkpt lat="47.48704" lon="6.79918">
        <ele>313.26</ele>
        <time>2016-10-16T08:02:59Z</time>
      </trkpt>
      <trkpt lat="47.48702" lon="6.79891">
        <ele>313.46</ele>
        <time>2016-10-16T08:03:02Z</time>
      </trkpt>
      <trkpt lat="47.487" lon="6.79857">
        <ele>312.85</ele>
        <time>2016-10-16T08:03:06Z</time>
      </trkpt>
      <trkpt lat="47.48696" lon="6.79822">
        <ele>313.39</ele>
        <time>2016-10-16T08:03:10Z</time>
      </trkpt>
      <trkpt lat="47.48693" lon="6.79795">
        <ele>314</ele>
        <time>2016-10-16T08:03:13Z</time>
      </trkpt>
      <trkpt lat="47.48688" lon="6.79761">
        <ele>315.28</ele>
        <time>2016-10-16T08:03:17Z</time>
      </trkpt>
      <trkpt lat="47.48682" lon="6.79729">
        <ele>315.66</ele>
        <time>2016-10-16T08:03:21Z</time>
      </trkpt>
      <trkpt lat="47.48677" lon="6.79702">
        <ele>315.05</ele>
        <time>2016-10-16T08:03:24Z</time>
      </trkpt>
      <trkpt lat="47.48672" lon="6.79676">
        <ele>315.6</ele>
        <time>2016-10-16T08:03:27Z</time>
      </trkpt>
      <trkpt lat="47.48666" lon="6.7965">
        <ele>315.91</ele>
        <time>2016-10-16T08:03:30Z</time>
      </trkpt>
      <trkpt lat="47.48659" lon="6.79624">
        <ele>315.5</ele>
        <time>2016-10-16T08:03:33Z</time>
      </trkpt>
      <trkpt lat="47.48651" lon="6.796">
        <ele>314.9</ele>
        <time>2016-10-16T08:03:36Z</time>
      </trkpt>
      <trkpt lat="47.48638" lon="6.7957">
        <ele>312.58</ele>
        <time>2016-10-16T08:03:40Z</time>
      </trkpt>
      <trkpt lat="47.48625" lon="6.79543">
        <ele>312.07</ele>
        <time>2016-10-16T08:03:44Z</time>
      </trkpt>
      <trkpt lat="47.48611" lon="6.79517">
        <ele>312.89</ele>
        <time>2016-10-16T08:03:48Z</time>
      </trkpt>
      <trkpt lat="47.48597" lon="6.79491">
        <ele>311.2</ele>
        <time>2016-10-16T08:03:52Z</time>
      </trkpt>
      <trkpt lat="47.48585" lon="6.79469">
        <ele>308.13</ele>
        <time>2016-10-16T08:03:55Z</time>
      </trkpt>
      <trkpt lat="47.48574" lon="6.79448">
        <ele>306.16</ele>
        <time>2016-10-16T08:03:58Z</time>
      </trkpt>
      <trkpt lat="47.48562" lon="6.79422">
        <ele>304.78</ele>
        <time>2016-10-16T08:04:02Z</time>
      </trkpt>
      <trkpt lat="47.48548" lon="6.79393">
        <ele>304.41</ele>
        <time>2016-10-16T08:04:06Z</time>
      </trkpt>
      <trkpt lat="47.48533" lon="6.79365">
        <ele>305.43</ele>
        <time>2016-10-16T08:04:10Z</time>
      </trkpt>
      <trkpt lat="47.48519" lon="6.79338">
        <ele>305.36</ele>
        <time>2016-10-16T08:04:14Z</time>
      </trkpt>
      <trkpt lat="47.48506" lon="6.7931">
        <ele>306.86</ele>
        <time>2016-10-16T08:04:18Z</time>
      </trkpt>
      <trkpt lat="47.48493" lon="6.79282">
        <ele>308.87</ele>
        <time>2016-10-16T08:04:22Z</time>
      </trkpt>
      <trkpt lat="47.48482" lon="6.7926">
        <ele>309.2</ele>
        <time>2016-10-16T08:04:25Z</time>
      </trkpt>
      <trkpt lat="47.4847" lon="6.79239">
        <ele>307.32</ele>
        <time>2016-10-16T08:04:28Z</time>
      </trkpt>
      <trkpt lat="47.48459" lon="6.79217">
        <ele>306.12</ele>
        <time>2016-10-16T08:04:31Z</time>
      </trkpt>
      <trkpt lat="47.48445" lon="6.7919">
        <ele>307.21</ele>
        <time>2016-10-16T08:04:35Z</time>
      </trkpt>
      <trkpt lat="47.48432" lon="6.79162">
        <ele>309.33</ele>
        <time>2016-10-16T08:04:39Z</time>
      </trkpt>
      <trkpt lat="47.48421" lon="6.79136">
        <ele>312.55</ele>
        <time>2016-10-16T08:04:43Z</time>
      </trkpt>
      <trkpt lat="47.48412" lon="6.79113">
        <ele>316.02</ele>
        <time>2016-10-16T08:04:47Z</time>
      </trkpt>
      <trkpt lat="47.48412" lon="6.79084">
        <ele>318.11</ele>
        <time>2016-10-16T08:04:52Z</time>
      </trkpt>
      <trkpt lat="47.48417" lon="6.79056">
        <ele>318.26</ele>
        <time>2016-10-16T08:04:56Z</time>
      </trkpt>
      <trkpt lat="47.48422" lon="6.79028">
        <ele>319.11</ele>
        <time>2016-10-16T08:05:00Z</time>
      </trkpt>
      <trkpt lat="47.48428" lon="6.78997">
        <ele>318.78</ele>
        <time>2016-10-16T08:05:04Z</time>
      </trkpt>
      <trkpt lat="47.48433" lon="6.78968">
        <ele>318.14</ele>
        <time>2016-10-16T08:05:08Z</time>
      </trkpt>
      <trkpt lat="47.48439" lon="6.78936">
        <ele>317.24</ele>
        <time>2016-10-16T08:05:12Z</time>
      </trkpt>
      <trkpt lat="47.48443" lon="6.78905">
        <ele>318.23</ele>
        <time>2016-10-16T08:05:16Z</time>
      </trkpt>
      <trkpt lat="47.48449" lon="6.78873">
        <ele>316.93</ele>
        <time>2016-10-16T08:05:20Z</time>
      </trkpt>
      <trkpt lat="47.48453" lon="6.78839">
        <ele>316.56</ele>
        <time>2016-10-16T08:05:24Z</time>
      </trkpt>
      <trkpt lat="47.48461" lon="6.78808">
        <ele>316.84</ele>
        <time>2016-10-16T08:05:28Z</time>
      </trkpt>
      <trkpt lat="47.48467" lon="6.78779">
        <ele>316.87</ele>
        <time>2016-10-16T08:05:32Z</time>
      </trkpt>
      <trkpt lat="47.48474" lon="6.78748">
        <ele>318.03</ele>
        <time>2016-10-16T08:05:36Z</time>
      </trkpt>
      <trkpt lat="47.48481" lon="6.78715">
        <ele>319.46</ele>
        <time>2016-10-16T08:05:40Z</time>
      </trkpt>
      <trkpt lat="47.48487" lon="6.78685">
        <ele>318.84</ele>
        <time>2016-10-16T08:05:44Z</time>
      </trkpt>
      <trkpt lat="47.48493" lon="6.78655">
        <ele>317.6</ele>
        <time>2016-10-16T08:05:48Z</time>
      </trkpt>
      <trkpt lat="47.485" lon="6.78623">
        <ele>314.68</ele>
        <time>2016-10-16T08:05:52Z</time>
      </trkpt>
      <trkpt lat="47.48506" lon="6.78592">
        <ele>312.87</ele>
        <time>2016-10-16T08:05:56Z</time>
      </trkpt>
      <trkpt lat="47.48509" lon="6.78562">
        <ele>310.81</ele>
        <time>2016-10-16T08:06:00Z</time>
      </trkpt>
      <trkpt lat="47.48502" lon="6.7853">
        <ele>311.21</ele>
        <time>2016-10-16T08:06:04Z</time>
      </trkpt>
      <trkpt lat="47.48495" lon="6.78501">
        <ele>313.55</ele>
        <time>2016-10-16T08:06:08Z</time>
      </trkpt>
      <trkpt lat="47.48489" lon="6.78467">
        <ele>315.29</ele>
        <time>2016-10-16T08:06:12Z</time>
      </trkpt>
      <trkpt lat="47.48484" lon="6.78436">
        <ele>315.76</ele>
        <time>2016-10-16T08:06:16Z</time>
      </trkpt>
      <trkpt lat="47.4848" lon="6.78405">
        <ele>315.94</ele>
        <time>2016-10-16T08:06:20Z</time>
      </trkpt>
      <trkpt lat="47.48477" lon="6.78373">
        <ele>316.39</ele>
        <time>2016-10-16T08:06:24Z</time>
      </trkpt>
      <trkpt lat="47.48474" lon="6.78346">
        <ele>316.17</ele>
        <time>2016-10-16T08:06:27Z</time>
      </trkpt>
      <trkpt lat="47.4847" lon="6.78314">
        <ele>313.86</ele>
        <time>2016-10-16T08:06:31Z</time>
      </trkpt>
      <trkpt lat="47.48466" lon="6.78288">
        <ele>312.49</ele>
        <time>2016-10-16T08:06:34Z</time>
      </trkpt>
      <trkpt lat="47.48464" lon="6.78254">
        <ele>312.13</ele>
        <time>2016-10-16T08:06:38Z</time>
      </trkpt>
      <trkpt lat="47.4846" lon="6.78223">
        <ele>311.82</ele>
        <time>2016-10-16T08:06:42Z</time>
      </trkpt>
      <trkpt lat="47.48453" lon="6.78192">
        <ele>310.71</ele>
        <time>2016-10-16T08:06:46Z</time>
      </trkpt>
      <trkpt lat="47.48452" lon="6.78165">
        <ele>311.54</ele>
        <time>2016-10-16T08:06:49Z</time>
      </trkpt>
      <trkpt lat="47.48458" lon="6.78134">
        <ele>312.12</ele>
        <time>2016-10-16T08:06:53Z</time>
      </trkpt>
      <trkpt lat="47.48465" lon="6.78107">
        <ele>314</ele>
        <time>2016-10-16T08:06:57Z</time>
      </trkpt>
      <trkpt lat="47.48473" lon="6.78079">
        <ele>316.17</ele>
        <time>2016-10-16T08:07:01Z</time>
      </trkpt>
      <trkpt lat="47.48481" lon="6.78048">
        <ele>315.14</ele>
        <time>2016-10-16T08:07:05Z</time>
      </trkpt>
      <trkpt lat="47.48489" lon="6.78019">
        <ele>313.97</ele>
        <time>2016-10-16T08:07:09Z</time>
      </trkpt>
      <trkpt lat="47.485" lon="6.77995">
        <ele>313.13</ele>
        <time>2016-10-16T08:07:13Z</time>
      </trkpt>
      <trkpt lat="47.48517" lon="6.77979">
        <ele>313.62</ele>
        <time>2016-10-16T08:07:17Z</time>
      </trkpt>
      <trkpt lat="47.48536" lon="6.77979">
        <ele>310.97</ele>
        <time>2016-10-16T08:07:21Z</time>
      </trkpt>
      <trkpt lat="47.4855" lon="6.78">
        <ele>310.04</ele>
        <time>2016-10-16T08:07:25Z</time>
      </trkpt>
      <trkpt lat="47.48565" lon="6.78023">
        <ele>312.56</ele>
        <time>2016-10-16T08:07:29Z</time>
      </trkpt>
      <trkpt lat="47.48579" lon="6.78048">
        <ele>313.28</ele>
        <time>2016-10-16T08:07:33Z</time>
      </trkpt>
      <trkpt lat="47.48594" lon="6.78073">
        <ele>314.22</ele>
        <time>2016-10-16T08:07:37Z</time>
      </trkpt>
      <trkpt lat="47.48608" lon="6.78093">
        <ele>312.44</ele>
        <time>2016-10-16T08:07:41Z</time>
      </trkpt>
      <trkpt lat="47.48625" lon="6.78116">
        <ele>308.6</ele>
        <time>2016-10-16T08:07:45Z</time>
      </trkpt>
      <trkpt lat="47.48641" lon="6.78138">
        <ele>304.95</ele>
        <time>2016-10-16T08:07:49Z</time>
      </trkpt>
      <trkpt lat="47.48658" lon="6.7816">
        <ele>303.04</ele>
        <time>2016-10-16T08:07:53Z</time>
      </trkpt>
      <trkpt lat="47.48677" lon="6.78183">
        <ele>301.98</ele>
        <time>2016-10-16T08:07:57Z</time>
      </trkpt>
      <trkpt lat="47.48694" lon="6.78203">
        <ele>300.34</ele>
        <time>2016-10-16T08:08:01Z</time>
      </trkpt>
      <trkpt lat="47.48709" lon="6.78218">
        <ele>299.43</ele>
        <time>2016-10-16T08:08:04Z</time>
      </trkpt>
      <trkpt lat="47.48726" lon="6.78232">
        <ele>299.9</ele>
        <time>2016-10-16T08:08:07Z</time>
      </trkpt>
      <trkpt lat="47.48743" lon="6.78244">
        <ele>300.67</ele>
        <time>2016-10-16T08:08:10Z</time>
      </trkpt>
      <trkpt lat="47.4876" lon="6.78255">
        <ele>301.62</ele>
        <time>2016-10-16T08:08:13Z</time>
      </trkpt>
      <trkpt lat="47.48779" lon="6.78264">
        <ele>301.74</ele>
        <time>2016-10-16T08:08:16Z</time>
      </trkpt>
      <trkpt lat="47.48796" lon="6.78273">
        <ele>302.28</ele>
        <time>2016-10-16T08:08:19Z</time>
      </trkpt>
      <trkpt lat="47.48814" lon="6.78282">
        <ele>302.42</ele>
        <time>2016-10-16T08:08:22Z</time>
      </trkpt>
      <trkpt lat="47.48836" lon="6.78296">
        <ele>301.73</ele>
        <time>2016-10-16T08:08:26Z</time>
      </trkpt>
      <trkpt lat="47.48857" lon="6.78311">
        <ele>302.96</ele>
        <time>2016-10-16T08:08:30Z</time>
      </trkpt>
      <trkpt lat="47.48879" lon="6.78325">
        <ele>304.56</ele>
        <time>2016-10-16T08:08:34Z</time>
      </trkpt>
      <trkpt lat="47.48895" lon="6.78337">
        <ele>306.46</ele>
        <time>2016-10-16T08:08:37Z</time>
      </trkpt>
      <trkpt lat="47.48911" lon="6.78349">
        <ele>307.83</ele>
        <time>2016-10-16T08:08:40Z</time>
      </trkpt>
      <trkpt lat="47.48931" lon="6.78365">
        <ele>309.23</ele>
        <time>2016-10-16T08:08:43Z</time>
      </trkpt>
      <trkpt lat="47.48947" lon="6.78381">
        <ele>309.39</ele>
        <time>2016-10-16T08:08:46Z</time>
      </trkpt>
      <trkpt lat="47.48961" lon="6.784">
        <ele>309.43</ele>
        <time>2016-10-16T08:08:49Z</time>
      </trkpt>
      <trkpt lat="47.48975" lon="6.78419">
        <ele>307.43</ele>
        <time>2016-10-16T08:08:52Z</time>
      </trkpt>
      <trkpt lat="47.48991" lon="6.78438">
        <ele>306.14</ele>
        <time>2016-10-16T08:08:55Z</time>
      </trkpt>
      <trkpt lat="47.49006" lon="6.78457">
        <ele>306.3</ele>
        <time>2016-10-16T08:08:58Z</time>
      </trkpt>
      <trkpt lat="47.49021" lon="6.78475">
        <ele>306.54</ele>
        <time>2016-10-16T08:09:01Z</time>
      </trkpt>
      <trkpt lat="47.49036" lon="6.78495">
        <ele>306.32</ele>
        <time>2016-10-16T08:09:04Z</time>
      </trkpt>
      <trkpt lat="47.49052" lon="6.78512">
        <ele>306.59</ele>
        <time>2016-10-16T08:09:07Z</time>
      </trkpt>
      <trkpt lat="47.49068" lon="6.7853">
        <ele>306.28</ele>
        <time>2016-10-16T08:09:10Z</time>
      </trkpt>
      <trkpt lat="47.49084" lon="6.78549">
        <ele>305.71</ele>
        <time>2016-10-16T08:09:13Z</time>
      </trkpt>
      <trkpt lat="47.49098" lon="6.78571">
        <ele>305.57</ele>
        <time>2016-10-16T08:09:16Z</time>
      </trkpt>
      <trkpt lat="47.49109" lon="6.78594">
        <ele>305.44</ele>
        <time>2016-10-16T08:09:19Z</time>
      </trkpt>
      <trkpt lat="47.49123" lon="6.78621">
        <ele>305.81</ele>
        <time>2016-10-16T08:09:23Z</time>
      </trkpt>
      <trkpt lat="47.49137" lon="6.7864">
        <ele>305.84</ele>
        <time>2016-10-16T08:09:26Z</time>
      </trkpt>
      <trkpt lat="47.49151" lon="6.78662">
        <ele>306.28</ele>
        <time>2016-10-16T08:09:29Z</time>
      </trkpt>
      <trkpt lat="47.49172" lon="6.78679">
        <ele>304.08</ele>
        <time>2016-10-16T08:09:33Z</time>
      </trkpt>
      <trkpt lat="47.49189" lon="6.7869">
        <ele>304.4</ele>
        <time>2016-10-16T08:09:36Z</time>
      </trkpt>
      <trkpt lat="47.49203" lon="6.78712">
        <ele>306.13</ele>
        <time>2016-10-16T08:09:39Z</time>
      </trkpt>
      <trkpt lat="47.4922" lon="6.78736">
        <ele>307.69</ele>
        <time>2016-10-16T08:09:43Z</time>
      </trkpt>
      <trkpt lat="47.49227" lon="6.78765">
        <ele>308.12</ele>
        <time>2016-10-16T08:09:46Z</time>
      </trkpt>
      <trkpt lat="47.49235" lon="6.78792">
        <ele>308.11</ele>
        <time>2016-10-16T08:09:49Z</time>
      </trkpt>
      <trkpt lat="47.49244" lon="6.78818">
        <ele>306.49</ele>
        <time>2016-10-16T08:09:52Z</time>
      </trkpt>
      <trkpt lat="47.49254" lon="6.78845">
        <ele>306.03</ele>
        <time>2016-10-16T08:09:55Z</time>
      </trkpt>
      <trkpt lat="47.49266" lon="6.78877">
        <ele>305.11</ele>
        <time>2016-10-16T08:09:59Z</time>
      </trkpt>
      <trkpt lat="47.49275" lon="6.78903">
        <ele>305.43</ele>
        <time>2016-10-16T08:10:02Z</time>
      </trkpt>
      <trkpt lat="47.49284" lon="6.78932">
        <ele>308.13</ele>
        <time>2016-10-16T08:10:06Z</time>
      </trkpt>
      <trkpt lat="47.49286" lon="6.78959">
        <ele>309.51</ele>
        <time>2016-10-16T08:10:10Z</time>
      </trkpt>
      <trkpt lat="47.49281" lon="6.78992">
        <ele>310.21</ele>
        <time>2016-10-16T08:10:15Z</time>
      </trkpt>
      <trkpt lat="47.49277" lon="6.79021">
        <ele>309.4</ele>
        <time>2016-10-16T08:10:19Z</time>
      </trkpt>
      <trkpt lat="47.49276" lon="6.79051">
        <ele>306.26</ele>
        <time>2016-10-16T08:10:23Z</time>
      </trkpt>
      <trkpt lat="47.49277" lon="6.7908">
        <ele>309.01</ele>
        <time>2016-10-16T08:10:27Z</time>
      </trkpt>
      <trkpt lat="47.4928" lon="6.79108">
        <ele>312.61</ele>
        <time>2016-10-16T08:10:31Z</time>
      </trkpt>
      <trkpt lat="47.49281" lon="6.79136">
        <ele>313.88</ele>
        <time>2016-10-16T08:10:35Z</time>
      </trkpt>
      <trkpt lat="47.49281" lon="6.79164">
        <ele>314.48</ele>
        <time>2016-10-16T08:10:39Z</time>
      </trkpt>
      <trkpt lat="47.49282" lon="6.79193">
        <ele>316.64</ele>
        <time>2016-10-16T08:10:43Z</time>
      </trkpt>
      <trkpt lat="47.49284" lon="6.79225">
        <ele>317.63</ele>
        <time>2016-10-16T08:10:48Z</time>
      </trkpt>
      <trkpt lat="47.49291" lon="6.79251">
        <ele>317.6</ele>
        <time>2016-10-16T08:10:53Z</time>
      </trkpt>
      <trkpt lat="47.49302" lon="6.79274">
        <ele>317.31</ele>
        <time>2016-10-16T08:10:59Z</time>
      </trkpt>
      <trkpt lat="47.49316" lon="6.79293">
        <ele>317.03</ele>
        <time>2016-10-16T08:11:05Z</time>
      </trkpt>
      <trkpt lat="47.49337" lon="6.79291">
        <ele>316.76</ele>
        <time>2016-10-16T08:11:12Z</time>
      </trkpt>
      <trkpt lat="47.49353" lon="6.79273">
        <ele>318.29</ele>
        <time>2016-10-16T08:11:17Z</time>
      </trkpt>
      <trkpt lat="47.49368" lon="6.79253">
        <ele>319.22</ele>
        <time>2016-10-16T08:11:21Z</time>
      </trkpt>
      <trkpt lat="47.49382" lon="6.79233">
        <ele>319.69</ele>
        <time>2016-10-16T08:11:25Z</time>
      </trkpt>
      <trkpt lat="47.49398" lon="6.79217">
        <ele>318.2</ele>
        <time>2016-10-16T08:11:29Z</time>
      </trkpt>
      <trkpt lat="47.49415" lon="6.79201">
        <ele>317.78</ele>
        <time>2016-10-16T08:11:33Z</time>
      </trkpt>
      <trkpt lat="47.49432" lon="6.7919">
        <ele>318.12</ele>
        <time>2016-10-16T08:11:37Z</time>
      </trkpt>
      <trkpt lat="47.49448" lon="6.79175">
        <ele>318.49</ele>
        <time>2016-10-16T08:11:42Z</time>
      </trkpt>
      <trkpt lat="47.49455" lon="6.79146">
        <ele>320.25</ele>
        <time>2016-10-16T08:11:47Z</time>
      </trkpt>
      <trkpt lat="47.49455" lon="6.79117">
        <ele>321.01</ele>
        <time>2016-10-16T08:11:52Z</time>
      </trkpt>
      <trkpt lat="47.49451" lon="6.79089">
        <ele>321.17</ele>
        <time>2016-10-16T08:11:59Z</time>
      </trkpt>
      <trkpt lat="47.49442" lon="6.79065">
        <ele>321.5</ele>
        <time>2016-10-16T08:12:07Z</time>
      </trkpt>
      <trkpt lat="47.49429" lon="6.79046">
        <ele>322.21</ele>
        <time>2016-10-16T08:12:15Z</time>
      </trkpt>
      <trkpt lat="47.4942" lon="6.79022">
        <ele>323.94</ele>
        <time>2016-10-16T08:12:25Z</time>
      </trkpt>
      <trkpt lat="47.49404" lon="6.79002">
        <ele>326.13</ele>
        <time>2016-10-16T08:12:34Z</time>
      </trkpt>
      <trkpt lat="47.49391" lon="6.78983">
        <ele>327.89</ele>
        <time>2016-10-16T08:12:42Z</time>
      </trkpt>
      <trkpt lat="47.49377" lon="6.78964">
        <ele>329.12</ele>
        <time>2016-10-16T08:12:49Z</time>
      </trkpt>
      <trkpt lat="47.49361" lon="6.78948">
        <ele>330.55</ele>
        <time>2016-10-16T08:12:56Z</time>
      </trkpt>
      <trkpt lat="47.4935" lon="6.78926">
        <ele>332.08</ele>
        <time>2016-10-16T08:13:04Z</time>
      </trkpt>
      <trkpt lat="47.49343" lon="6.78899">
        <ele>333.38</ele>
        <time>2016-10-16T08:13:11Z</time>
      </trkpt>
      <trkpt lat="47.49332" lon="6.78874">
        <ele>334.63</ele>
        <time>2016-10-16T08:13:18Z</time>
      </trkpt>
      <trkpt lat="47.49328" lon="6.78848">
        <ele>335.66</ele>
        <time>2016-10-16T08:13:24Z</time>
      </trkpt>
      <trkpt lat="47.49323" lon="6.78822">
        <ele>335.96</ele>
        <time>2016-10-16T08:13:29Z</time>
      </trkpt>
      <trkpt lat="47.49321" lon="6.78796">
        <ele>336.46</ele>
        <time>2016-10-16T08:13:35Z</time>
      </trkpt>
      <trkpt lat="47.49314" lon="6.78767">
        <ele>337.41</ele>
        <time>2016-10-16T08:13:41Z</time>
      </trkpt>
      <trkpt lat="47.49299" lon="6.78752">
        <ele>341.35</ele>
        <time>2016-10-16T08:13:45Z</time>
      </trkpt>
      <trkpt lat="47.49284" lon="6.78735">
        <ele>343.11</ele>
        <time>2016-10-16T08:13:48Z</time>
      </trkpt>
      <trkpt lat="47.49268" lon="6.78713">
        <ele>343.33</ele>
        <time>2016-10-16T08:13:53Z</time>
      </trkpt>
      <trkpt lat="47.49255" lon="6.78691">
        <ele>343.81</ele>
        <time>2016-10-16T08:13:58Z</time>
      </trkpt>
      <trkpt lat="47.49243" lon="6.78663">
        <ele>344.68</ele>
        <time>2016-10-16T08:14:05Z</time>
      </trkpt>
      <trkpt lat="47.49233" lon="6.7864">
        <ele>345.15</ele>
        <time>2016-10-16T08:14:10Z</time>
      </trkpt>
      <trkpt lat="47.4922" lon="6.78618">
        <ele>347.04</ele>
        <time>2016-10-16T08:14:15Z</time>
      </trkpt>
      <trkpt lat="47.49207" lon="6.78599">
        <ele>349.06</ele>
        <time>2016-10-16T08:14:19Z</time>
      </trkpt>
      <trkpt lat="47.49195" lon="6.78576">
        <ele>349.03</ele>
        <time>2016-10-16T08:14:23Z</time>
      </trkpt>
      <trkpt lat="47.49187" lon="6.7855">
        <ele>348.31</ele>
        <time>2016-10-16T08:14:27Z</time>
      </trkpt>
      <trkpt lat="47.49184" lon="6.78518">
        <ele>346.94</ele>
        <time>2016-10-16T08:14:32Z</time>
      </trkpt>
      <trkpt lat="47.4917" lon="6.78494">
        <ele>346.5</ele>
        <time>2016-10-16T08:14:37Z</time>
      </trkpt>
      <trkpt lat="47.49152" lon="6.78481">
        <ele>345.94</ele>
        <time>2016-10-16T08:14:42Z</time>
      </trkpt>
      <trkpt lat="47.49136" lon="6.78462">
        <ele>345.1</ele>
        <time>2016-10-16T08:14:49Z</time>
      </trkpt>
      <trkpt lat="47.49122" lon="6.7844">
        <ele>344.72</ele>
        <time>2016-10-16T08:14:56Z</time>
      </trkpt>
      <trkpt lat="47.4911" lon="6.78415">
        <ele>344.51</ele>
        <time>2016-10-16T08:15:05Z</time>
      </trkpt>
      <trkpt lat="47.49099" lon="6.78392">
        <ele>344.21</ele>
        <time>2016-10-16T08:15:13Z</time>
      </trkpt>
      <trkpt lat="47.49089" lon="6.7837">
        <ele>344.34</ele>
        <time>2016-10-16T08:15:21Z</time>
      </trkpt>
      <trkpt lat="47.4908" lon="6.78345">
        <ele>344.79</ele>
        <time>2016-10-16T08:15:29Z</time>
      </trkpt>
      <trkpt lat="47.49073" lon="6.7832">
        <ele>344.89</ele>
        <time>2016-10-16T08:15:35Z</time>
      </trkpt>
      <trkpt lat="47.49063" lon="6.78297">
        <ele>345.07</ele>
        <time>2016-10-16T08:15:45Z</time>
      </trkpt>
      <trkpt lat="47.49049" lon="6.78276">
        <ele>345.42</ele>
        <time>2016-10-16T08:15:54Z</time>
      </trkpt>
      <trkpt lat="47.49033" lon="6.78258">
        <ele>345.92</ele>
        <time>2016-10-16T08:16:01Z</time>
      </trkpt>
      <trkpt lat="47.49017" lon="6.78238">
        <ele>346.04</ele>
        <time>2016-10-16T08:16:09Z</time>
      </trkpt>
      <trkpt lat="47.49006" lon="6.78212">
        <ele>346.49</ele>
        <time>2016-10-16T08:16:16Z</time>
      </trkpt>
      <trkpt lat="47.48994" lon="6.78189">
        <ele>347.17</ele>
        <time>2016-10-16T08:16:24Z</time>
      </trkpt>
      <trkpt lat="47.48983" lon="6.78167">
        <ele>347.64</ele>
        <time>2016-10-16T08:16:31Z</time>
      </trkpt>
      <trkpt lat="47.4897" lon="6.78143">
        <ele>348.09</ele>
        <time>2016-10-16T08:16:37Z</time>
      </trkpt>
      <trkpt lat="47.48959" lon="6.78118">
        <ele>348.49</ele>
        <time>2016-10-16T08:16:43Z</time>
      </trkpt>
      <trkpt lat="47.48946" lon="6.78095">
        <ele>349.02</ele>
        <time>2016-10-16T08:16:48Z</time>
      </trkpt>
      <trkpt lat="47.48935" lon="6.78069">
        <ele>348.82</ele>
        <time>2016-10-16T08:16:54Z</time>
      </trkpt>
      <trkpt lat="47.48926" lon="6.78044">
        <ele>349.15</ele>
        <time>2016-10-16T08:17:00Z</time>
      </trkpt>
      <trkpt lat="47.48915" lon="6.78022">
        <ele>348.75</ele>
        <time>2016-10-16T08:17:04Z</time>
      </trkpt>
      <trkpt lat="47.48911" lon="6.77994">
        <ele>348.42</ele>
        <time>2016-10-16T08:17:10Z</time>
      </trkpt>
      <trkpt lat="47.489" lon="6.7797">
        <ele>348.11</ele>
        <time>2016-10-16T08:17:15Z</time>
      </trkpt>
      <trkpt lat="47.48886" lon="6.77947">
        <ele>348.11</ele>
        <time>2016-10-16T08:17:23Z</time>
      </trkpt>
      <trkpt lat="47.48876" lon="6.77921">
        <ele>348.29</ele>
        <time>2016-10-16T08:17:29Z</time>
      </trkpt>
      <trkpt lat="47.48863" lon="6.77892">
        <ele>347.48</ele>
        <time>2016-10-16T08:17:33Z</time>
      </trkpt>
      <trkpt lat="47.48854" lon="6.77869">
        <ele>347.37</ele>
        <time>2016-10-16T08:17:37Z</time>
      </trkpt>
      <trkpt lat="47.48839" lon="6.77841">
        <ele>348.17</ele>
        <time>2016-10-16T08:17:42Z</time>
      </trkpt>
      <trkpt lat="47.48828" lon="6.77815">
        <ele>347.47</ele>
        <time>2016-10-16T08:17:46Z</time>
      </trkpt>
      <trkpt lat="47.48817" lon="6.77793">
        <ele>347.15</ele>
        <time>2016-10-16T08:17:50Z</time>
      </trkpt>
      <trkpt lat="47.48805" lon="6.77769">
        <ele>345.9</ele>
        <time>2016-10-16T08:17:54Z</time>
      </trkpt>
      <trkpt lat="47.48792" lon="6.77747">
        <ele>345.31</ele>
        <time>2016-10-16T08:17:58Z</time>
      </trkpt>
      <trkpt lat="47.4878" lon="6.77727">
        <ele>345.1</ele>
        <time>2016-10-16T08:18:02Z</time>
      </trkpt>
      <trkpt lat="47.48769" lon="6.77706">
        <ele>345.08</ele>
        <time>2016-10-16T08:18:09Z</time>
      </trkpt>
      <trkpt lat="47.48756" lon="6.77686">
        <ele>344.38</ele>
        <time>2016-10-16T08:18:22Z</time>
      </trkpt>
      <trkpt lat="47.48741" lon="6.77671">
        <ele>344.86</ele>
        <time>2016-10-16T08:18:33Z</time>
      </trkpt>
      <trkpt lat="47.48728" lon="6.7765">
        <ele>344.95</ele>
        <time>2016-10-16T08:18:43Z</time>
      </trkpt>
      <trkpt lat="47.48714" lon="6.7763">
        <ele>345.54</ele>
        <time>2016-10-16T08:18:53Z</time>
      </trkpt>
      <trkpt lat="47.48702" lon="6.77609">
        <ele>346.05</ele>
        <time>2016-10-16T08:19:00Z</time>
      </trkpt>
      <trkpt lat="47.48689" lon="6.77591">
        <ele>347.06</ele>
        <time>2016-10-16T08:19:07Z</time>
      </trkpt>
      <trkpt lat="47.48674" lon="6.77572">
        <ele>348.26</ele>
        <time>2016-10-16T08:19:15Z</time>
      </trkpt>
      <trkpt lat="47.4866" lon="6.77553">
        <ele>349.86</ele>
        <time>2016-10-16T08:19:22Z</time>
      </trkpt>
      <trkpt lat="47.4865" lon="6.77531">
        <ele>350.48</ele>
        <time>2016-10-16T08:19:28Z</time>
      </trkpt>
      <trkpt lat="47.48636" lon="6.77513">
        <ele>350.62</ele>
        <time>2016-10-16T08:19:38Z</time>
      </trkpt>
      <trkpt lat="47.48619" lon="6.77501">
        <ele>349.2</ele>
        <time>2016-10-16T08:19:48Z</time>
      </trkpt>
      <trkpt lat="47.48604" lon="6.77484">
        <ele>347.6</ele>
        <time>2016-10-16T08:19:56Z</time>
      </trkpt>
      <trkpt lat="47.48589" lon="6.77467">
        <ele>346.6</ele>
        <time>2016-10-16T08:20:05Z</time>
      </trkpt>
      <trkpt lat="47.48573" lon="6.77449">
        <ele>345.77</ele>
        <time>2016-10-16T08:20:13Z</time>
      </trkpt>
      <trkpt lat="47.48557" lon="6.77437">
        <ele>345.34</ele>
        <time>2016-10-16T08:20:19Z</time>
      </trkpt>
      <trkpt lat="47.48541" lon="6.77423">
        <ele>345.31</ele>
        <time>2016-10-16T08:20:26Z</time>
      </trkpt>
      <trkpt lat="47.48525" lon="6.77406">
        <ele>345.33</ele>
        <time>2016-10-16T08:20:32Z</time>
      </trkpt>
      <trkpt lat="47.48508" lon="6.77387">
        <ele>345.42</ele>
        <time>2016-10-16T08:20:38Z</time>
      </trkpt>
      <trkpt lat="47.48492" lon="6.77369">
        <ele>346.07</ele>
        <time>2016-10-16T08:20:43Z</time>
      </trkpt>
      <trkpt lat="47.48475" lon="6.77351">
        <ele>346.7</ele>
        <time>2016-10-16T08:20:48Z</time>
      </trkpt>
      <trkpt lat="47.4846" lon="6.77332">
        <ele>346.87</ele>
        <time>2016-10-16T08:20:54Z</time>
      </trkpt>
      <trkpt lat="47.48443" lon="6.77314">
        <ele>346.69</ele>
        <time>2016-10-16T08:20:59Z</time>
      </trkpt>
      <trkpt lat="47.48427" lon="6.77297">
        <ele>346.67</ele>
        <time>2016-10-16T08:21:04Z</time>
      </trkpt>
      <trkpt lat="47.4841" lon="6.77283">
        <ele>346.72</ele>
        <time>2016-10-16T08:21:09Z</time>
      </trkpt>
      <trkpt lat="47.48395" lon="6.77262">
        <ele>346.5</ele>
        <time>2016-10-16T08:21:14Z</time>
      </trkpt>
      <trkpt lat="47.48379" lon="6.77248">
        <ele>345.61</ele>
        <time>2016-10-16T08:21:17Z</time>
      </trkpt>
      <trkpt lat="47.4836" lon="6.77237">
        <ele>345.84</ele>
        <time>2016-10-16T08:21:21Z</time>
      </trkpt>
      <trkpt lat="47.48341" lon="6.77228">
        <ele>345.71</ele>
        <time>2016-10-16T08:21:25Z</time>
      </trkpt>
      <trkpt lat="47.48319" lon="6.77218">
        <ele>345.35</ele>
        <time>2016-10-16T08:21:30Z</time>
      </trkpt>
      <trkpt lat="47.483" lon="6.77212">
        <ele>344.75</ele>
        <time>2016-10-16T08:21:35Z</time>
      </trkpt>
      <trkpt lat="47.48288" lon="6.77192">
        <ele>342.66</ele>
        <time>2016-10-16T08:21:46Z</time>
      </trkpt>
      <trkpt lat="47.48297" lon="6.77167">
        <ele>341.13</ele>
        <time>2016-10-16T08:21:54Z</time>
      </trkpt>
      <trkpt lat="47.48317" lon="6.77162">
        <ele>338.17</ele>
        <time>2016-10-16T08:22:04Z</time>
      </trkpt>
      <trkpt lat="47.48334" lon="6.77148">
        <ele>336.02</ele>
        <time>2016-10-16T08:22:13Z</time>
      </trkpt>
      <trkpt lat="47.48326" lon="6.77124">
        <ele>329.41</ele>
        <time>2016-10-16T08:22:18Z</time>
      </trkpt>
      <trkpt lat="47.4831" lon="6.77104">
        <ele>324.66</ele>
        <time>2016-10-16T08:22:22Z</time>
      </trkpt>
      <trkpt lat="47.48289" lon="6.77098">
        <ele>321.27</ele>
        <time>2016-10-16T08:22:27Z</time>
      </trkpt>
      <trkpt lat="47.4827" lon="6.77115">
        <ele>321.58</ele>
        <time>2016-10-16T08:22:30Z</time>
      </trkpt>
      <trkpt lat="47.48262" lon="6.7709">
        <ele>320.46</ele>
        <time>2016-10-16T08:22:43Z</time>
      </trkpt>
      <trkpt lat="47.48268" lon="6.77061">
        <ele>319.86</ele>
        <time>2016-10-16T08:22:51Z</time>
      </trkpt>
      <trkpt lat="47.48276" lon="6.77036">
        <ele>318.74</ele>
        <time>2016-10-16T08:22:58Z</time>
      </trkpt>
      <trkpt lat="47.48278" lon="6.77007">
        <ele>316.78</ele>
        <time>2016-10-16T08:23:09Z</time>
      </trkpt>
      <trkpt lat="47.48262" lon="6.76995">
        <ele>315.97</ele>
        <time>2016-10-16T08:23:16Z</time>
      </trkpt>
      <trkpt lat="47.48243" lon="6.76984">
        <ele>315.24</ele>
        <time>2016-10-16T08:23:23Z</time>
      </trkpt>
      <trkpt lat="47.48225" lon="6.76976">
        <ele>314.3</ele>
        <time>2016-10-16T08:23:28Z</time>
      </trkpt>
      <trkpt lat="47.48208" lon="6.76961">
        <ele>313.55</ele>
        <time>2016-10-16T08:23:34Z</time>
      </trkpt>
      <trkpt lat="47.48189" lon="6.76952">
        <ele>313.36</ele>
        <time>2016-10-16T08:23:40Z</time>
      </trkpt>
      <trkpt lat="47.48171" lon="6.76942">
        <ele>313.08</ele>
        <time>2016-10-16T08:23:45Z</time>
      </trkpt>
      <trkpt lat="47.48154" lon="6.76931">
        <ele>311.9</ele>
        <time>2016-10-16T08:23:50Z</time>
      </trkpt>
      <trkpt lat="47.48136" lon="6.76921">
        <ele>310.18</ele>
        <time>2016-10-16T08:23:55Z</time>
      </trkpt>
      <trkpt lat="47.48117" lon="6.76911">
        <ele>308.8</ele>
        <time>2016-10-16T08:24:00Z</time>
      </trkpt>
      <trkpt lat="47.481" lon="6.76895">
        <ele>308.49</ele>
        <time>2016-10-16T08:24:05Z</time>
      </trkpt>
      <trkpt lat="47.48084" lon="6.76881">
        <ele>309.3</ele>
        <time>2016-10-16T08:24:09Z</time>
      </trkpt>
      <trkpt lat="47.48066" lon="6.76865">
        <ele>308.86</ele>
        <time>2016-10-16T08:24:14Z</time>
      </trkpt>
      <trkpt lat="47.48052" lon="6.76847">
        <ele>310.45</ele>
        <time>2016-10-16T08:24:19Z</time>
      </trkpt>
      <trkpt lat="47.48036" lon="6.76823">
        <ele>312.06</ele>
        <time>2016-10-16T08:24:24Z</time>
      </trkpt>
      <trkpt lat="47.48023" lon="6.76803">
        <ele>310.89</ele>
        <time>2016-10-16T08:24:28Z</time>
      </trkpt>
      <trkpt lat="47.48008" lon="6.76777">
        <ele>310.95</ele>
        <time>2016-10-16T08:24:33Z</time>
      </trkpt>
      <trkpt lat="47.47998" lon="6.76755">
        <ele>310.69</ele>
        <time>2016-10-16T08:24:37Z</time>
      </trkpt>
      <trkpt lat="47.47989" lon="6.76729">
        <ele>310.56</ele>
        <time>2016-10-16T08:24:41Z</time>
      </trkpt>
      <trkpt lat="47.47981" lon="6.76698">
        <ele>311.38</ele>
        <time>2016-10-16T08:24:46Z</time>
      </trkpt>
      <trkpt lat="47.47976" lon="6.76671">
        <ele>312</ele>
        <time>2016-10-16T08:24:50Z</time>
      </trkpt>
      <trkpt lat="47.47971" lon="6.7664">
        <ele>312.53</ele>
        <time>2016-10-16T08:24:55Z</time>
      </trkpt>
      <trkpt lat="47.47964" lon="6.76611">
        <ele>311.72</ele>
        <time>2016-10-16T08:24:59Z</time>
      </trkpt>
      <trkpt lat="47.47952" lon="6.76589">
        <ele>311.56</ele>
        <time>2016-10-16T08:25:03Z</time>
      </trkpt>
      <trkpt lat="47.47943" lon="6.7656">
        <ele>310.82</ele>
        <time>2016-10-16T08:25:08Z</time>
      </trkpt>
      <trkpt lat="47.47936" lon="6.76533">
        <ele>310.51</ele>
        <time>2016-10-16T08:25:12Z</time>
      </trkpt>
      <trkpt lat="47.4793" lon="6.76505">
        <ele>309.47</ele>
        <time>2016-10-16T08:25:16Z</time>
      </trkpt>
      <trkpt lat="47.47924" lon="6.76479">
        <ele>308.66</ele>
        <time>2016-10-16T08:25:20Z</time>
      </trkpt>
      <trkpt lat="47.47916" lon="6.76448">
        <ele>308.12</ele>
        <time>2016-10-16T08:25:24Z</time>
      </trkpt>
      <trkpt lat="47.47908" lon="6.76419">
        <ele>309.39</ele>
        <time>2016-10-16T08:25:28Z</time>
      </trkpt>
      <trkpt lat="47.47899" lon="6.76393">
        <ele>310.27</ele>
        <time>2016-10-16T08:25:32Z</time>
      </trkpt>
      <trkpt lat="47.47888" lon="6.76368">
        <ele>311.27</ele>
        <time>2016-10-16T08:25:36Z</time>
      </trkpt>
      <trkpt lat="47.47876" lon="6.76343">
        <ele>311.59</ele>
        <time>2016-10-16T08:25:40Z</time>
      </trkpt>
      <trkpt lat="47.47861" lon="6.76316">
        <ele>310.41</ele>
        <time>2016-10-16T08:25:44Z</time>
      </trkpt>
      <trkpt lat="47.47848" lon="6.76293">
        <ele>309.53</ele>
        <time>2016-10-16T08:25:48Z</time>
      </trkpt>
      <trkpt lat="47.47835" lon="6.76275">
        <ele>310.36</ele>
        <time>2016-10-16T08:25:52Z</time>
      </trkpt>
      <trkpt lat="47.47814" lon="6.76262">
        <ele>310.61</ele>
        <time>2016-10-16T08:25:56Z</time>
      </trkpt>
      <trkpt lat="47.47794" lon="6.76253">
        <ele>309.9</ele>
        <time>2016-10-16T08:26:00Z</time>
      </trkpt>
      <trkpt lat="47.47779" lon="6.76238">
        <ele>310.65</ele>
        <time>2016-10-16T08:26:04Z</time>
      </trkpt>
      <trkpt lat="47.47765" lon="6.76216">
        <ele>310.38</ele>
        <time>2016-10-16T08:26:08Z</time>
      </trkpt>
      <trkpt lat="47.47752" lon="6.76194">
        <ele>308.62</ele>
        <time>2016-10-16T08:26:12Z</time>
      </trkpt>
      <trkpt lat="47.47739" lon="6.76175">
        <ele>308.7</ele>
        <time>2016-10-16T08:26:16Z</time>
      </trkpt>
      <trkpt lat="47.47725" lon="6.76154">
        <ele>309.64</ele>
        <time>2016-10-16T08:26:20Z</time>
      </trkpt>
      <trkpt lat="47.47712" lon="6.76133">
        <ele>310.93</ele>
        <time>2016-10-16T08:26:24Z</time>
      </trkpt>
      <trkpt lat="47.47698" lon="6.76111">
        <ele>310.98</ele>
        <time>2016-10-16T08:26:28Z</time>
      </trkpt>
      <trkpt lat="47.47681" lon="6.76096">
        <ele>311.12</ele>
        <time>2016-10-16T08:26:32Z</time>
      </trkpt>
      <trkpt lat="47.47664" lon="6.76113">
        <ele>309.74</ele>
        <time>2016-10-16T08:26:36Z</time>
      </trkpt>
      <trkpt lat="47.47653" lon="6.76141">
        <ele>309.52</ele>
        <time>2016-10-16T08:26:40Z</time>
      </trkpt>
      <trkpt lat="47.47645" lon="6.76168">
        <ele>309.03</ele>
        <time>2016-10-16T08:26:44Z</time>
      </trkpt>
      <trkpt lat="47.47635" lon="6.76195">
        <ele>308.87</ele>
        <time>2016-10-16T08:26:48Z</time>
      </trkpt>
      <trkpt lat="47.47622" lon="6.76218">
        <ele>308.01</ele>
        <time>2016-10-16T08:26:52Z</time>
      </trkpt>
      <trkpt lat="47.4761" lon="6.76243">
        <ele>308.18</ele>
        <time>2016-10-16T08:26:56Z</time>
      </trkpt>
      <trkpt lat="47.47599" lon="6.76268">
        <ele>308.53</ele>
        <time>2016-10-16T08:27:00Z</time>
      </trkpt>
      <trkpt lat="47.47585" lon="6.76291">
        <ele>309.76</ele>
        <time>2016-10-16T08:27:04Z</time>
      </trkpt>
      <trkpt lat="47.47572" lon="6.76315">
        <ele>310.48</ele>
        <time>2016-10-16T08:27:08Z</time>
      </trkpt>
      <trkpt lat="47.47559" lon="6.7634">
        <ele>310.04</ele>
        <time>2016-10-16T08:27:12Z</time>
      </trkpt>
      <trkpt lat="47.47548" lon="6.76363">
        <ele>309.44</ele>
        <time>2016-10-16T08:27:15Z</time>
      </trkpt>
      <trkpt lat="47.47542" lon="6.76392">
        <ele>307.92</ele>
        <time>2016-10-16T08:27:19Z</time>
      </trkpt>
      <trkpt lat="47.47529" lon="6.76416">
        <ele>306.19</ele>
        <time>2016-10-16T08:27:23Z</time>
      </trkpt>
      <trkpt lat="47.47518" lon="6.76437">
        <ele>304.78</ele>
        <time>2016-10-16T08:27:26Z</time>
      </trkpt>
      <trkpt lat="47.47503" lon="6.76457">
        <ele>304.61</ele>
        <time>2016-10-16T08:27:30Z</time>
      </trkpt>
      <trkpt lat="47.47482" lon="6.76448">
        <ele>308.11</ele>
        <time>2016-10-16T08:27:36Z</time>
      </trkpt>
      <trkpt lat="47.47462" lon="6.76437">
        <ele>307.75</ele>
        <time>2016-10-16T08:27:41Z</time>
      </trkpt>
      <trkpt lat="47.47444" lon="6.76433">
        <ele>308.08</ele>
        <time>2016-10-16T08:27:46Z</time>
      </trkpt>
      <trkpt lat="47.47428" lon="6.7645">
        <ele>308.36</ele>
        <time>2016-10-16T08:27:54Z</time>
      </trkpt>
      <trkpt lat="47.47409" lon="6.7644">
        <ele>308.81</ele>
        <time>2016-10-16T08:28:01Z</time>
      </trkpt>
      <trkpt lat="47.47393" lon="6.76426">
        <ele>309.21</ele>
        <time>2016-10-16T08:28:08Z</time>
      </trkpt>
      <trkpt lat="47.47376" lon="6.76414">
        <ele>309.25</ele>
        <time>2016-10-16T08:28:14Z</time>
      </trkpt>
      <trkpt lat="47.47359" lon="6.76402">
        <ele>309.04</ele>
        <time>2016-10-16T08:28:19Z</time>
      </trkpt>
      <trkpt lat="47.4734" lon="6.7639">
        <ele>306.4</ele>
        <time>2016-10-16T08:28:25Z</time>
      </trkpt>
      <trkpt lat="47.47322" lon="6.76382">
        <ele>304.62</ele>
        <time>2016-10-16T08:28:29Z</time>
      </trkpt>
      <trkpt lat="47.47302" lon="6.76375">
        <ele>306.17</ele>
        <time>2016-10-16T08:28:34Z</time>
      </trkpt>
      <trkpt lat="47.4728" lon="6.76378">
        <ele>307.18</ele>
        <time>2016-10-16T08:28:39Z</time>
      </trkpt>
      <trkpt lat="47.47258" lon="6.76383">
        <ele>306.49</ele>
        <time>2016-10-16T08:28:44Z</time>
      </trkpt>
      <trkpt lat="47.47241" lon="6.76388">
        <ele>306.2</ele>
        <time>2016-10-16T08:28:48Z</time>
      </trkpt>
      <trkpt lat="47.47219" lon="6.76389">
        <ele>305.27</ele>
        <time>2016-10-16T08:28:53Z</time>
      </trkpt>
      <trkpt lat="47.47201" lon="6.76385">
        <ele>304.88</ele>
        <time>2016-10-16T08:28:57Z</time>
      </trkpt>
      <trkpt lat="47.4718" lon="6.7638">
        <ele>305.14</ele>
        <time>2016-10-16T08:29:02Z</time>
      </trkpt>
      <trkpt lat="47.47158" lon="6.76374">
        <ele>305.09</ele>
        <time>2016-10-16T08:29:07Z</time>
      </trkpt>
      <trkpt lat="47.47139" lon="6.76369">
        <ele>305.7</ele>
        <time>2016-10-16T08:29:12Z</time>
      </trkpt>
      <trkpt lat="47.4712" lon="6.76366">
        <ele>306.7</ele>
        <time>2016-10-16T08:29:17Z</time>
      </trkpt>
      <trkpt lat="47.47098" lon="6.76362">
        <ele>308.73</ele>
        <time>2016-10-16T08:29:23Z</time>
      </trkpt>
      <trkpt lat="47.47078" lon="6.76357">
        <ele>310.76</ele>
        <time>2016-10-16T08:29:28Z</time>
      </trkpt>
      <trkpt lat="47.47057" lon="6.76354">
        <ele>311.68</ele>
        <time>2016-10-16T08:29:33Z</time>
      </trkpt>
      <trkpt lat="47.47039" lon="6.7635">
        <ele>312.09</ele>
        <time>2016-10-16T08:29:37Z</time>
      </trkpt>
      <trkpt lat="47.47021" lon="6.76345">
        <ele>311.42</ele>
        <time>2016-10-16T08:29:41Z</time>
      </trkpt>
      <trkpt lat="47.47" lon="6.7634">
        <ele>309.97</ele>
        <time>2016-10-16T08:29:46Z</time>
      </trkpt>
      <trkpt lat="47.46978" lon="6.76336">
        <ele>311.96</ele>
        <time>2016-10-16T08:29:51Z</time>
      </trkpt>
      <trkpt lat="47.46959" lon="6.76333">
        <ele>315.88</ele>
        <time>2016-10-16T08:29:56Z</time>
      </trkpt>
      <trkpt lat="47.46939" lon="6.76329">
        <ele>317.47</ele>
        <time>2016-10-16T08:30:01Z</time>
      </trkpt>
      <trkpt lat="47.46917" lon="6.76325">
        <ele>316.24</ele>
        <time>2016-10-16T08:30:06Z</time>
      </trkpt>
      <trkpt lat="47.46896" lon="6.76326">
        <ele>314.33</ele>
        <time>2016-10-16T08:30:11Z</time>
      </trkpt>
      <trkpt lat="47.46874" lon="6.7633">
        <ele>313.62</ele>
        <time>2016-10-16T08:30:16Z</time>
      </trkpt>
      <trkpt lat="47.46852" lon="6.76328">
        <ele>314.17</ele>
        <time>2016-10-16T08:30:21Z</time>
      </trkpt>
      <trkpt lat="47.46833" lon="6.76319">
        <ele>314.7</ele>
        <time>2016-10-16T08:30:26Z</time>
      </trkpt>
      <trkpt lat="47.46814" lon="6.76307">
        <ele>316.34</ele>
        <time>2016-10-16T08:30:31Z</time>
      </trkpt>
      <trkpt lat="47.46796" lon="6.76298">
        <ele>317.21</ele>
        <time>2016-10-16T08:30:35Z</time>
      </trkpt>
      <trkpt lat="47.46778" lon="6.76294">
        <ele>318.72</ele>
        <time>2016-10-16T08:30:40Z</time>
      </trkpt>
      <trkpt lat="47.46745" lon="6.76296">
        <ele>319.21</ele>
        <time>2016-10-16T08:30:49Z</time>
      </trkpt>
      <trkpt lat="47.46725" lon="6.76295">
        <ele>317.1</ele>
        <time>2016-10-16T08:30:53Z</time>
      </trkpt>
      <trkpt lat="47.46704" lon="6.763">
        <ele>316.26</ele>
        <time>2016-10-16T08:30:59Z</time>
      </trkpt>
      <trkpt lat="47.46686" lon="6.76305">
        <ele>316.23</ele>
        <time>2016-10-16T08:31:04Z</time>
      </trkpt>
      <trkpt lat="47.46665" lon="6.76306">
        <ele>316.54</ele>
        <time>2016-10-16T08:31:10Z</time>
      </trkpt>
      <trkpt lat="47.46645" lon="6.76306">
        <ele>316.51</ele>
        <time>2016-10-16T08:31:17Z</time>
      </trkpt>
      <trkpt lat="47.46626" lon="6.76305">
        <ele>316.42</ele>
        <time>2016-10-16T08:31:23Z</time>
      </trkpt>
      <trkpt lat="47.46607" lon="6.76305">
        <ele>316.48</ele>
        <time>2016-10-16T08:31:29Z</time>
      </trkpt>
      <trkpt lat="47.4659" lon="6.76294">
        <ele>316.6</ele>
        <time>2016-10-16T08:31:36Z</time>
      </trkpt>
      <trkpt lat="47.46572" lon="6.76284">
        <ele>316.47</ele>
        <time>2016-10-16T08:31:51Z</time>
      </trkpt>
      <trkpt lat="47.46571" lon="6.76256">
        <ele>329.84</ele>
        <time>2016-10-16T08:39:06Z</time>
      </trkpt>
      <trkpt lat="47.46574" lon="6.7623">
        <ele>331.62</ele>
        <time>2016-10-16T08:39:22Z</time>
      </trkpt>
      <trkpt lat="47.46574" lon="6.76203">
        <ele>332.57</ele>
        <time>2016-10-16T08:39:43Z</time>
      </trkpt>
      <trkpt lat="47.46577" lon="6.76175">
        <ele>333.34</ele>
        <time>2016-10-16T08:39:57Z</time>
      </trkpt>
      <trkpt lat="47.46579" lon="6.76148">
        <ele>334.23</ele>
        <time>2016-10-16T08:40:11Z</time>
      </trkpt>
      <trkpt lat="47.46578" lon="6.7612">
        <ele>335.86</ele>
        <time>2016-10-16T08:40:23Z</time>
      </trkpt>
      <trkpt lat="47.46586" lon="6.76095">
        <ele>336.29</ele>
        <time>2016-10-16T08:40:31Z</time>
      </trkpt>
      <trkpt lat="47.46593" lon="6.76069">
        <ele>337.47</ele>
        <time>2016-10-16T08:40:41Z</time>
      </trkpt>
      <trkpt lat="47.46607" lon="6.7605">
        <ele>339.52</ele>
        <time>2016-10-16T08:40:50Z</time>
      </trkpt>
      <trkpt lat="47.46621" lon="6.76029">
        <ele>341.64</ele>
        <time>2016-10-16T08:40:59Z</time>
      </trkpt>
      <trkpt lat="47.46634" lon="6.76008">
        <ele>343.46</ele>
        <time>2016-10-16T08:41:06Z</time>
      </trkpt>
      <trkpt lat="47.46648" lon="6.75987">
        <ele>345.4</ele>
        <time>2016-10-16T08:41:15Z</time>
      </trkpt>
      <trkpt lat="47.46658" lon="6.75965">
        <ele>347.14</ele>
        <time>2016-10-16T08:41:25Z</time>
      </trkpt>
      <trkpt lat="47.46646" lon="6.75944">
        <ele>347.89</ele>
        <time>2016-10-16T08:41:34Z</time>
      </trkpt>
      <trkpt lat="47.46635" lon="6.75921">
        <ele>348.14</ele>
        <time>2016-10-16T08:41:41Z</time>
      </trkpt>
      <trkpt lat="47.46621" lon="6.75903">
        <ele>348.54</ele>
        <time>2016-10-16T08:41:49Z</time>
      </trkpt>
      <trkpt lat="47.46604" lon="6.75884">
        <ele>349.05</ele>
        <time>2016-10-16T08:41:56Z</time>
      </trkpt>
      <trkpt lat="47.46587" lon="6.75868">
        <ele>349.18</ele>
        <time>2016-10-16T08:42:04Z</time>
      </trkpt>
      <trkpt lat="47.46572" lon="6.75851">
        <ele>349.86</ele>
        <time>2016-10-16T08:42:20Z</time>
      </trkpt>
      <trkpt lat="47.46554" lon="6.75853">
        <ele>349.27</ele>
        <time>2016-10-16T08:42:33Z</time>
      </trkpt>
      <trkpt lat="47.46535" lon="6.75851">
        <ele>350.22</ele>
        <time>2016-10-16T08:42:45Z</time>
      </trkpt>
      <trkpt lat="47.46528" lon="6.75827">
        <ele>353.53</ele>
        <time>2016-10-16T08:43:06Z</time>
      </trkpt>
      <trkpt lat="47.46535" lon="6.75802">
        <ele>357.78</ele>
        <time>2016-10-16T08:43:20Z</time>
      </trkpt>
      <trkpt lat="47.4654" lon="6.75775">
        <ele>361.08</ele>
        <time>2016-10-16T08:43:32Z</time>
      </trkpt>
      <trkpt lat="47.46545" lon="6.75748">
        <ele>364.39</ele>
        <time>2016-10-16T08:43:45Z</time>
      </trkpt>
      <trkpt lat="47.46541" lon="6.75721">
        <ele>368.89</ele>
        <time>2016-10-16T08:44:07Z</time>
      </trkpt>
      <trkpt lat="47.46525" lon="6.75708">
        <ele>371.64</ele>
        <time>2016-10-16T08:44:20Z</time>
      </trkpt>
      <trkpt lat="47.46508" lon="6.75698">
        <ele>373.67</ele>
        <time>2016-10-16T08:44:30Z</time>
      </trkpt>
      <trkpt lat="47.46489" lon="6.75692">
        <ele>375.8</ele>
        <time>2016-10-16T08:44:38Z</time>
      </trkpt>
      <trkpt lat="47.46471" lon="6.75683">
        <ele>376.89</ele>
        <time>2016-10-16T08:44:46Z</time>
      </trkpt>
      <trkpt lat="47.46454" lon="6.75671">
        <ele>377.43</ele>
        <time>2016-10-16T08:44:52Z</time>
      </trkpt>
      <trkpt lat="47.46434" lon="6.75663">
        <ele>377.41</ele>
        <time>2016-10-16T08:44:58Z</time>
      </trkpt>
      <trkpt lat="47.46416" lon="6.75655">
        <ele>377.51</ele>
        <time>2016-10-16T08:45:03Z</time>
      </trkpt>
      <trkpt lat="47.46396" lon="6.75643">
        <ele>378.12</ele>
        <time>2016-10-16T08:45:07Z</time>
      </trkpt>
      <trkpt lat="47.46375" lon="6.75634">
        <ele>376.17</ele>
        <time>2016-10-16T08:45:11Z</time>
      </trkpt>
      <trkpt lat="47.46354" lon="6.75625">
        <ele>376.4</ele>
        <time>2016-10-16T08:45:15Z</time>
      </trkpt>
      <trkpt lat="47.46336" lon="6.7561">
        <ele>376.51</ele>
        <time>2016-10-16T08:45:20Z</time>
      </trkpt>
      <trkpt lat="47.46343" lon="6.75583">
        <ele>375.94</ele>
        <time>2016-10-16T08:45:29Z</time>
      </trkpt>
      <trkpt lat="47.46337" lon="6.75558">
        <ele>373.52</ele>
        <time>2016-10-16T08:45:53Z</time>
      </trkpt>
      <trkpt lat="47.46332" lon="6.7553">
        <ele>373.54</ele>
        <time>2016-10-16T08:46:01Z</time>
      </trkpt>
      <trkpt lat="47.46327" lon="6.75503">
        <ele>374.45</ele>
        <time>2016-10-16T08:46:09Z</time>
      </trkpt>
      <trkpt lat="47.46321" lon="6.75474">
        <ele>376.24</ele>
        <time>2016-10-16T08:46:17Z</time>
      </trkpt>
      <trkpt lat="47.46317" lon="6.75447">
        <ele>378.08</ele>
        <time>2016-10-16T08:46:25Z</time>
      </trkpt>
      <trkpt lat="47.46308" lon="6.7542">
        <ele>379.02</ele>
        <time>2016-10-16T08:46:31Z</time>
      </trkpt>
      <trkpt lat="47.46303" lon="6.7539">
        <ele>379.59</ele>
        <time>2016-10-16T08:46:38Z</time>
      </trkpt>
      <trkpt lat="47.46295" lon="6.75364">
        <ele>380.48</ele>
        <time>2016-10-16T08:46:44Z</time>
      </trkpt>
      <trkpt lat="47.46293" lon="6.75336">
        <ele>381.1</ele>
        <time>2016-10-16T08:46:50Z</time>
      </trkpt>
      <trkpt lat="47.46288" lon="6.75305">
        <ele>381.77</ele>
        <time>2016-10-16T08:46:56Z</time>
      </trkpt>
      <trkpt lat="47.46286" lon="6.75276">
        <ele>382.22</ele>
        <time>2016-10-16T08:47:02Z</time>
      </trkpt>
      <trkpt lat="47.46286" lon="6.75247">
        <ele>382.74</ele>
        <time>2016-10-16T08:47:07Z</time>
      </trkpt>
      <trkpt lat="47.46284" lon="6.7522">
        <ele>383.35</ele>
        <time>2016-10-16T08:47:13Z</time>
      </trkpt>
      <trkpt lat="47.46283" lon="6.75193">
        <ele>383.63</ele>
        <time>2016-10-16T08:47:19Z</time>
      </trkpt>
      <trkpt lat="47.46279" lon="6.75166">
        <ele>384.3</ele>
        <time>2016-10-16T08:47:25Z</time>
      </trkpt>
      <trkpt lat="47.46277" lon="6.75136">
        <ele>385.07</ele>
        <time>2016-10-16T08:47:31Z</time>
      </trkpt>
      <trkpt lat="47.46275" lon="6.75108">
        <ele>385.8</ele>
        <time>2016-10-16T08:47:38Z</time>
      </trkpt>
      <trkpt lat="47.46271" lon="6.75081">
        <ele>386.35</ele>
        <time>2016-10-16T08:47:44Z</time>
      </trkpt>
      <trkpt lat="47.46276" lon="6.75055">
        <ele>387.85</ele>
        <time>2016-10-16T08:47:53Z</time>
      </trkpt>
      <trkpt lat="47.46293" lon="6.75048">
        <ele>389.84</ele>
        <time>2016-10-16T08:48:05Z</time>
      </trkpt>
      <trkpt lat="47.46312" lon="6.75049">
        <ele>390.69</ele>
        <time>2016-10-16T08:48:15Z</time>
      </trkpt>
      <trkpt lat="47.46331" lon="6.7505">
        <ele>391.44</ele>
        <time>2016-10-16T08:48:25Z</time>
      </trkpt>
      <trkpt lat="47.46346" lon="6.75035">
        <ele>392.32</ele>
        <time>2016-10-16T08:48:35Z</time>
      </trkpt>
      <trkpt lat="47.46344" lon="6.75008">
        <ele>393.55</ele>
        <time>2016-10-16T08:48:43Z</time>
      </trkpt>
      <trkpt lat="47.46329" lon="6.74989">
        <ele>394.74</ele>
        <time>2016-10-16T08:48:50Z</time>
      </trkpt>
      <trkpt lat="47.46309" lon="6.74986">
        <ele>395.21</ele>
        <time>2016-10-16T08:48:57Z</time>
      </trkpt>
      <trkpt lat="47.46295" lon="6.74969">
        <ele>394.23</ele>
        <time>2016-10-16T08:49:15Z</time>
      </trkpt>
      <trkpt lat="47.46293" lon="6.7494">
        <ele>394.2</ele>
        <time>2016-10-16T08:49:24Z</time>
      </trkpt>
      <trkpt lat="47.46288" lon="6.74912">
        <ele>394.99</ele>
        <time>2016-10-16T08:49:32Z</time>
      </trkpt>
      <trkpt lat="47.46271" lon="6.74924">
        <ele>395.31</ele>
        <time>2016-10-16T08:49:45Z</time>
      </trkpt>
      <trkpt lat="47.46253" lon="6.74918">
        <ele>395.74</ele>
        <time>2016-10-16T08:49:53Z</time>
      </trkpt>
      <trkpt lat="47.46235" lon="6.74919">
        <ele>396.12</ele>
        <time>2016-10-16T08:50:01Z</time>
      </trkpt>
      <trkpt lat="47.46216" lon="6.74918">
        <ele>395.84</ele>
        <time>2016-10-16T08:50:10Z</time>
      </trkpt>
      <trkpt lat="47.46198" lon="6.74921">
        <ele>395.24</ele>
        <time>2016-10-16T08:50:17Z</time>
      </trkpt>
      <trkpt lat="47.46177" lon="6.74929">
        <ele>394.18</ele>
        <time>2016-10-16T08:50:25Z</time>
      </trkpt>
      <trkpt lat="47.46159" lon="6.74929">
        <ele>393.21</ele>
        <time>2016-10-16T08:50:40Z</time>
      </trkpt>
      <trkpt lat="47.4617" lon="6.74905">
        <ele>393.57</ele>
        <time>2016-10-16T08:50:50Z</time>
      </trkpt>
      <trkpt lat="47.46172" lon="6.74878">
        <ele>393.82</ele>
        <time>2016-10-16T08:50:57Z</time>
      </trkpt>
      <trkpt lat="47.46175" lon="6.74848">
        <ele>394.33</ele>
        <time>2016-10-16T08:51:05Z</time>
      </trkpt>
      <trkpt lat="47.46165" lon="6.74821">
        <ele>394.84</ele>
        <time>2016-10-16T08:51:12Z</time>
      </trkpt>
      <trkpt lat="47.46146" lon="6.74811">
        <ele>395.15</ele>
        <time>2016-10-16T08:51:18Z</time>
      </trkpt>
      <trkpt lat="47.46126" lon="6.74808">
        <ele>395.99</ele>
        <time>2016-10-16T08:51:25Z</time>
      </trkpt>
      <trkpt lat="47.46108" lon="6.74798">
        <ele>396.55</ele>
        <time>2016-10-16T08:51:32Z</time>
      </trkpt>
      <trkpt lat="47.46092" lon="6.74784">
        <ele>397.14</ele>
        <time>2016-10-16T08:51:39Z</time>
      </trkpt>
      <trkpt lat="47.46074" lon="6.74779">
        <ele>397.72</ele>
        <time>2016-10-16T08:51:45Z</time>
      </trkpt>
      <trkpt lat="47.46055" lon="6.74781">
        <ele>398.46</ele>
        <time>2016-10-16T08:51:52Z</time>
      </trkpt>
      <trkpt lat="47.46035" lon="6.74778">
        <ele>398.7</ele>
        <time>2016-10-16T08:51:59Z</time>
      </trkpt>
      <trkpt lat="47.46014" lon="6.74779">
        <ele>399.15</ele>
        <time>2016-10-16T08:52:06Z</time>
      </trkpt>
      <trkpt lat="47.45996" lon="6.74772">
        <ele>400.05</ele>
        <time>2016-10-16T08:52:13Z</time>
      </trkpt>
      <trkpt lat="47.45981" lon="6.74758">
        <ele>401</ele>
        <time>2016-10-16T08:52:19Z</time>
      </trkpt>
      <trkpt lat="47.45968" lon="6.74738">
        <ele>401.56</ele>
        <time>2016-10-16T08:52:24Z</time>
      </trkpt>
      <trkpt lat="47.45956" lon="6.74717">
        <ele>406.42</ele>
        <time>2016-10-16T08:52:29Z</time>
      </trkpt>
      <trkpt lat="47.45939" lon="6.74705">
        <ele>409.12</ele>
        <time>2016-10-16T08:52:34Z</time>
      </trkpt>
      <trkpt lat="47.45919" lon="6.74698">
        <ele>409.95</ele>
        <time>2016-10-16T08:52:39Z</time>
      </trkpt>
      <trkpt lat="47.45901" lon="6.74687">
        <ele>409.77</ele>
        <time>2016-10-16T08:52:44Z</time>
      </trkpt>
      <trkpt lat="47.45882" lon="6.74677">
        <ele>406.34</ele>
        <time>2016-10-16T08:52:49Z</time>
      </trkpt>
      <trkpt lat="47.45863" lon="6.74667">
        <ele>402.78</ele>
        <time>2016-10-16T08:52:54Z</time>
      </trkpt>
      <trkpt lat="47.45842" lon="6.74674">
        <ele>402.79</ele>
        <time>2016-10-16T08:53:00Z</time>
      </trkpt>
      <trkpt lat="47.45831" lon="6.74701">
        <ele>403.42</ele>
        <time>2016-10-16T08:53:06Z</time>
      </trkpt>
      <trkpt lat="47.4581" lon="6.74705">
        <ele>405.14</ele>
        <time>2016-10-16T08:53:14Z</time>
      </trkpt>
      <trkpt lat="47.45791" lon="6.74705">
        <ele>406.08</ele>
        <time>2016-10-16T08:53:18Z</time>
      </trkpt>
      <trkpt lat="47.45769" lon="6.74701">
        <ele>406.46</ele>
        <time>2016-10-16T08:53:24Z</time>
      </trkpt>
      <trkpt lat="47.45748" lon="6.74697">
        <ele>406.63</ele>
        <time>2016-10-16T08:53:29Z</time>
      </trkpt>
      <trkpt lat="47.4573" lon="6.74689">
        <ele>407.18</ele>
        <time>2016-10-16T08:53:37Z</time>
      </trkpt>
      <trkpt lat="47.45715" lon="6.74673">
        <ele>408.37</ele>
        <time>2016-10-16T08:53:44Z</time>
      </trkpt>
      <trkpt lat="47.457" lon="6.74657">
        <ele>410.4</ele>
        <time>2016-10-16T08:53:53Z</time>
      </trkpt>
      <trkpt lat="47.45688" lon="6.74636">
        <ele>412.29</ele>
        <time>2016-10-16T08:54:01Z</time>
      </trkpt>
      <trkpt lat="47.45673" lon="6.74618">
        <ele>414.24</ele>
        <time>2016-10-16T08:54:09Z</time>
      </trkpt>
      <trkpt lat="47.45665" lon="6.74593">
        <ele>419.2</ele>
        <time>2016-10-16T08:54:47Z</time>
      </trkpt>
      <trkpt lat="47.45651" lon="6.74574">
        <ele>421.1</ele>
        <time>2016-10-16T08:54:56Z</time>
      </trkpt>
      <trkpt lat="47.45633" lon="6.74563">
        <ele>423.18</ele>
        <time>2016-10-16T08:55:05Z</time>
      </trkpt>
      <trkpt lat="47.45622" lon="6.74543">
        <ele>423.84</ele>
        <time>2016-10-16T08:55:12Z</time>
      </trkpt>
      <trkpt lat="47.45617" lon="6.74516">
        <ele>424.58</ele>
        <time>2016-10-16T08:55:24Z</time>
      </trkpt>
      <trkpt lat="47.45623" lon="6.74491">
        <ele>426.18</ele>
        <time>2016-10-16T08:55:35Z</time>
      </trkpt>
      <trkpt lat="47.45629" lon="6.74466">
        <ele>427.93</ele>
        <time>2016-10-16T08:55:43Z</time>
      </trkpt>
      <trkpt lat="47.45636" lon="6.74439">
        <ele>429.56</ele>
        <time>2016-10-16T08:55:51Z</time>
      </trkpt>
      <trkpt lat="47.45641" lon="6.74411">
        <ele>430.58</ele>
        <time>2016-10-16T08:55:56Z</time>
      </trkpt>
      <trkpt lat="47.45648" lon="6.74386">
        <ele>431.52</ele>
        <time>2016-10-16T08:56:04Z</time>
      </trkpt>
      <trkpt lat="47.45655" lon="6.74359">
        <ele>431.68</ele>
        <time>2016-10-16T08:56:12Z</time>
      </trkpt>
      <trkpt lat="47.45661" lon="6.7433">
        <ele>431.49</ele>
        <time>2016-10-16T08:56:21Z</time>
      </trkpt>
      <trkpt lat="47.45664" lon="6.74302">
        <ele>430.84</ele>
        <time>2016-10-16T08:56:28Z</time>
      </trkpt>
      <trkpt lat="47.45669" lon="6.74271">
        <ele>431.01</ele>
        <time>2016-10-16T08:56:32Z</time>
      </trkpt>
      <trkpt lat="47.45673" lon="6.74244">
        <ele>431.92</ele>
        <time>2016-10-16T08:56:35Z</time>
      </trkpt>
      <trkpt lat="47.45674" lon="6.74217">
        <ele>432.82</ele>
        <time>2016-10-16T08:56:38Z</time>
      </trkpt>
      <trkpt lat="47.45677" lon="6.74189">
        <ele>435.52</ele>
        <time>2016-10-16T08:56:45Z</time>
      </trkpt>
      <trkpt lat="47.45684" lon="6.74162">
        <ele>436.93</ele>
        <time>2016-10-16T08:56:51Z</time>
      </trkpt>
      <trkpt lat="47.45694" lon="6.74135">
        <ele>438.53</ele>
        <time>2016-10-16T08:56:59Z</time>
      </trkpt>
      <trkpt lat="47.45699" lon="6.74106">
        <ele>438.73</ele>
        <time>2016-10-16T08:57:07Z</time>
      </trkpt>
      <trkpt lat="47.45702" lon="6.74078">
        <ele>438.57</ele>
        <time>2016-10-16T08:57:14Z</time>
      </trkpt>
      <trkpt lat="47.45707" lon="6.74049">
        <ele>438</ele>
        <time>2016-10-16T08:57:20Z</time>
      </trkpt>
      <trkpt lat="47.45699" lon="6.74021">
        <ele>436.74</ele>
        <time>2016-10-16T08:57:27Z</time>
      </trkpt>
      <trkpt lat="47.45687" lon="6.74001">
        <ele>435.66</ele>
        <time>2016-10-16T08:57:32Z</time>
      </trkpt>
      <trkpt lat="47.45673" lon="6.73984">
        <ele>434.56</ele>
        <time>2016-10-16T08:57:38Z</time>
      </trkpt>
      <trkpt lat="47.45659" lon="6.73965">
        <ele>433.17</ele>
        <time>2016-10-16T08:57:46Z</time>
      </trkpt>
      <trkpt lat="47.45646" lon="6.73941">
        <ele>432.41</ele>
        <time>2016-10-16T08:57:52Z</time>
      </trkpt>
      <trkpt lat="47.45634" lon="6.73919">
        <ele>433.04</ele>
        <time>2016-10-16T08:57:57Z</time>
      </trkpt>
      <trkpt lat="47.45623" lon="6.73899">
        <ele>434.84</ele>
        <time>2016-10-16T08:58:03Z</time>
      </trkpt>
      <trkpt lat="47.45616" lon="6.73873">
        <ele>438.12</ele>
        <time>2016-10-16T08:58:13Z</time>
      </trkpt>
      <trkpt lat="47.45597" lon="6.73879">
        <ele>440.85</ele>
        <time>2016-10-16T08:59:11Z</time>
      </trkpt>
      <trkpt lat="47.45579" lon="6.73882">
        <ele>440.34</ele>
        <time>2016-10-16T08:59:18Z</time>
      </trkpt>
      <trkpt lat="47.45561" lon="6.73891">
        <ele>439.48</ele>
        <time>2016-10-16T08:59:23Z</time>
      </trkpt>
      <trkpt lat="47.45543" lon="6.73904">
        <ele>439.66</ele>
        <time>2016-10-16T08:59:28Z</time>
      </trkpt>
      <trkpt lat="47.45526" lon="6.73912">
        <ele>439.45</ele>
        <time>2016-10-16T08:59:34Z</time>
      </trkpt>
      <trkpt lat="47.45505" lon="6.7392">
        <ele>438.18</ele>
        <time>2016-10-16T08:59:39Z</time>
      </trkpt>
      <trkpt lat="47.4548" lon="6.73934">
        <ele>435.89</ele>
        <time>2016-10-16T08:59:44Z</time>
      </trkpt>
      <trkpt lat="47.4546" lon="6.73943">
        <ele>432.53</ele>
        <time>2016-10-16T08:59:47Z</time>
      </trkpt>
      <trkpt lat="47.4544" lon="6.7396">
        <ele>430.48</ele>
        <time>2016-10-16T08:59:51Z</time>
      </trkpt>
      <trkpt lat="47.4542" lon="6.73973">
        <ele>431.01</ele>
        <time>2016-10-16T08:59:55Z</time>
      </trkpt>
      <trkpt lat="47.45404" lon="6.73987">
        <ele>430.27</ele>
        <time>2016-10-16T09:00:02Z</time>
      </trkpt>
      <trkpt lat="47.45423" lon="6.73988">
        <ele>438.83</ele>
        <time>2016-10-16T09:01:05Z</time>
      </trkpt>
      <trkpt lat="47.45442" lon="6.73984">
        <ele>443.65</ele>
        <time>2016-10-16T09:01:16Z</time>
      </trkpt>
      <trkpt lat="47.45463" lon="6.73975">
        <ele>445.89</ele>
        <time>2016-10-16T09:01:23Z</time>
      </trkpt>
      <trkpt lat="47.4548" lon="6.73961">
        <ele>448.72</ele>
        <time>2016-10-16T09:01:31Z</time>
      </trkpt>
      <trkpt lat="47.45496" lon="6.73949">
        <ele>449.95</ele>
        <time>2016-10-16T09:01:38Z</time>
      </trkpt>
      <trkpt lat="47.4551" lon="6.73929">
        <ele>452.18</ele>
        <time>2016-10-16T09:01:47Z</time>
      </trkpt>
      <trkpt lat="47.45518" lon="6.73902">
        <ele>453.37</ele>
        <time>2016-10-16T09:01:54Z</time>
      </trkpt>
      <trkpt lat="47.45528" lon="6.73878">
        <ele>453.98</ele>
        <time>2016-10-16T09:02:03Z</time>
      </trkpt>
      <trkpt lat="47.45537" lon="6.73853">
        <ele>454.83</ele>
        <time>2016-10-16T09:02:14Z</time>
      </trkpt>
      <trkpt lat="47.45543" lon="6.73828">
        <ele>454.68</ele>
        <time>2016-10-16T09:02:20Z</time>
      </trkpt>
      <trkpt lat="47.45546" lon="6.73801">
        <ele>453.84</ele>
        <time>2016-10-16T09:02:26Z</time>
      </trkpt>
      <trkpt lat="47.45551" lon="6.73774">
        <ele>452.52</ele>
        <time>2016-10-16T09:02:34Z</time>
      </trkpt>
      <trkpt lat="47.4556" lon="6.7375">
        <ele>451.11</ele>
        <time>2016-10-16T09:02:43Z</time>
      </trkpt>
      <trkpt lat="47.45568" lon="6.73724">
        <ele>449.95</ele>
        <time>2016-10-16T09:02:56Z</time>
      </trkpt>
      <trkpt lat="47.4557" lon="6.73695">
        <ele>452.98</ele>
        <time>2016-10-16T09:03:26Z</time>
      </trkpt>
      <trkpt lat="47.45553" lon="6.73678">
        <ele>457.07</ele>
        <time>2016-10-16T09:03:59Z</time>
      </trkpt>
      <trkpt lat="47.45535" lon="6.73663">
        <ele>457.55</ele>
        <time>2016-10-16T09:04:05Z</time>
      </trkpt>
      <trkpt lat="47.45519" lon="6.7365">
        <ele>457.69</ele>
        <time>2016-10-16T09:04:10Z</time>
      </trkpt>
      <trkpt lat="47.45502" lon="6.73634">
        <ele>457.99</ele>
        <time>2016-10-16T09:04:15Z</time>
      </trkpt>
      <trkpt lat="47.45488" lon="6.73618">
        <ele>457.93</ele>
        <time>2016-10-16T09:04:19Z</time>
      </trkpt>
      <trkpt lat="47.4547" lon="6.7361">
        <ele>456.75</ele>
        <time>2016-10-16T09:04:23Z</time>
      </trkpt>
      <trkpt lat="47.45459" lon="6.73587">
        <ele>455.33</ele>
        <time>2016-10-16T09:04:29Z</time>
      </trkpt>
      <trkpt lat="47.45454" lon="6.73559">
        <ele>454.24</ele>
        <time>2016-10-16T09:04:33Z</time>
      </trkpt>
      <trkpt lat="47.45448" lon="6.73529">
        <ele>452.35</ele>
        <time>2016-10-16T09:04:39Z</time>
      </trkpt>
      <trkpt lat="47.45447" lon="6.73501">
        <ele>451.04</ele>
        <time>2016-10-16T09:04:44Z</time>
      </trkpt>
      <trkpt lat="47.45448" lon="6.73473">
        <ele>450.02</ele>
        <time>2016-10-16T09:04:50Z</time>
      </trkpt>
      <trkpt lat="47.45447" lon="6.73443">
        <ele>449.23</ele>
        <time>2016-10-16T09:04:56Z</time>
      </trkpt>
      <trkpt lat="47.45453" lon="6.73414">
        <ele>447.45</ele>
        <time>2016-10-16T09:05:02Z</time>
      </trkpt>
      <trkpt lat="47.45461" lon="6.73387">
        <ele>446.91</ele>
        <time>2016-10-16T09:05:05Z</time>
      </trkpt>
      <trkpt lat="47.45476" lon="6.73364">
        <ele>445.85</ele>
        <time>2016-10-16T09:05:10Z</time>
      </trkpt>
      <trkpt lat="47.45498" lon="6.73342">
        <ele>446.14</ele>
        <time>2016-10-16T09:05:15Z</time>
      </trkpt>
      <trkpt lat="47.45512" lon="6.7332">
        <ele>448.71</ele>
        <time>2016-10-16T09:05:19Z</time>
      </trkpt>
      <trkpt lat="47.4553" lon="6.73305">
        <ele>449.36</ele>
        <time>2016-10-16T09:05:25Z</time>
      </trkpt>
      <trkpt lat="47.45547" lon="6.73291">
        <ele>449.75</ele>
        <time>2016-10-16T09:05:29Z</time>
      </trkpt>
      <trkpt lat="47.45561" lon="6.73272">
        <ele>450.28</ele>
        <time>2016-10-16T09:05:34Z</time>
      </trkpt>
      <trkpt lat="47.45576" lon="6.73257">
        <ele>450.81</ele>
        <time>2016-10-16T09:05:39Z</time>
      </trkpt>
      <trkpt lat="47.45588" lon="6.73235">
        <ele>451.34</ele>
        <time>2016-10-16T09:05:45Z</time>
      </trkpt>
      <trkpt lat="47.45597" lon="6.73208">
        <ele>451.38</ele>
        <time>2016-10-16T09:05:49Z</time>
      </trkpt>
      <trkpt lat="47.456" lon="6.73181">
        <ele>451.13</ele>
        <time>2016-10-16T09:05:54Z</time>
      </trkpt>
      <trkpt lat="47.45599" lon="6.73153">
        <ele>449.06</ele>
        <time>2016-10-16T09:05:59Z</time>
      </trkpt>
      <trkpt lat="47.456" lon="6.73125">
        <ele>448.76</ele>
        <time>2016-10-16T09:06:05Z</time>
      </trkpt>
      <trkpt lat="47.45595" lon="6.73093">
        <ele>448.32</ele>
        <time>2016-10-16T09:06:10Z</time>
      </trkpt>
      <trkpt lat="47.45587" lon="6.73065">
        <ele>444.94</ele>
        <time>2016-10-16T09:06:15Z</time>
      </trkpt>
      <trkpt lat="47.45568" lon="6.73043">
        <ele>440.75</ele>
        <time>2016-10-16T09:06:19Z</time>
      </trkpt>
      <trkpt lat="47.45554" lon="6.73024">
        <ele>440.44</ele>
        <time>2016-10-16T09:06:24Z</time>
      </trkpt>
      <trkpt lat="47.45545" lon="6.72997">
        <ele>440.84</ele>
        <time>2016-10-16T09:06:28Z</time>
      </trkpt>
      <trkpt lat="47.45534" lon="6.72971">
        <ele>442.13</ele>
        <time>2016-10-16T09:06:32Z</time>
      </trkpt>
      <trkpt lat="47.45523" lon="6.7295">
        <ele>445.76</ele>
        <time>2016-10-16T09:06:35Z</time>
      </trkpt>
      <trkpt lat="47.45512" lon="6.72923">
        <ele>453.75</ele>
        <time>2016-10-16T09:06:39Z</time>
      </trkpt>
      <trkpt lat="47.45496" lon="6.72906">
        <ele>454.95</ele>
        <time>2016-10-16T09:06:43Z</time>
      </trkpt>
      <trkpt lat="47.45482" lon="6.72887">
        <ele>456.57</ele>
        <time>2016-10-16T09:06:50Z</time>
      </trkpt>
      <trkpt lat="47.45476" lon="6.72861">
        <ele>457.42</ele>
        <time>2016-10-16T09:06:55Z</time>
      </trkpt>
      <trkpt lat="47.45471" lon="6.72829">
        <ele>456.54</ele>
        <time>2016-10-16T09:07:00Z</time>
      </trkpt>
      <trkpt lat="47.45464" lon="6.72802">
        <ele>457.19</ele>
        <time>2016-10-16T09:07:03Z</time>
      </trkpt>
      <trkpt lat="47.45451" lon="6.72778">
        <ele>457.41</ele>
        <time>2016-10-16T09:07:08Z</time>
      </trkpt>
      <trkpt lat="47.45433" lon="6.72769">
        <ele>457.84</ele>
        <time>2016-10-16T09:07:12Z</time>
      </trkpt>
      <trkpt lat="47.45414" lon="6.72772">
        <ele>458.24</ele>
        <time>2016-10-16T09:07:17Z</time>
      </trkpt>
      <trkpt lat="47.45395" lon="6.7277">
        <ele>458.54</ele>
        <time>2016-10-16T09:07:22Z</time>
      </trkpt>
      <trkpt lat="47.45375" lon="6.72775">
        <ele>460.48</ele>
        <time>2016-10-16T09:07:27Z</time>
      </trkpt>
      <trkpt lat="47.45356" lon="6.7278">
        <ele>461.23</ele>
        <time>2016-10-16T09:07:32Z</time>
      </trkpt>
      <trkpt lat="47.45345" lon="6.72803">
        <ele>460.05</ele>
        <time>2016-10-16T09:07:37Z</time>
      </trkpt>
      <trkpt lat="47.45328" lon="6.72814">
        <ele>459.56</ele>
        <time>2016-10-16T09:08:06Z</time>
      </trkpt>
      <trkpt lat="47.45308" lon="6.72824">
        <ele>456.92</ele>
        <time>2016-10-16T09:08:25Z</time>
      </trkpt>
      <trkpt lat="47.45292" lon="6.72842">
        <ele>453.56</ele>
        <time>2016-10-16T09:08:30Z</time>
      </trkpt>
      <trkpt lat="47.4529" lon="6.72872">
        <ele>452.53</ele>
        <time>2016-10-16T09:08:34Z</time>
      </trkpt>
      <trkpt lat="47.45291" lon="6.72898">
        <ele>453.39</ele>
        <time>2016-10-16T09:08:38Z</time>
      </trkpt>
      <trkpt lat="47.45302" lon="6.7292">
        <ele>452.93</ele>
        <time>2016-10-16T09:08:43Z</time>
      </trkpt>
      <trkpt lat="47.45293" lon="6.72895">
        <ele>450.59</ele>
        <time>2016-10-16T09:09:14Z</time>
      </trkpt>
      <trkpt lat="47.45293" lon="6.72868">
        <ele>450.32</ele>
        <time>2016-10-16T09:09:20Z</time>
      </trkpt>
      <trkpt lat="47.45296" lon="6.72837">
        <ele>450.32</ele>
        <time>2016-10-16T09:09:26Z</time>
      </trkpt>
      <trkpt lat="47.45315" lon="6.72825">
        <ele>450.52</ele>
        <time>2016-10-16T09:09:34Z</time>
      </trkpt>
      <trkpt lat="47.45333" lon="6.72821">
        <ele>451.12</ele>
        <time>2016-10-16T09:09:49Z</time>
      </trkpt>
      <trkpt lat="47.4533" lon="6.72851">
        <ele>460.01</ele>
        <time>2016-10-16T09:11:41Z</time>
      </trkpt>
      <trkpt lat="47.45334" lon="6.72879">
        <ele>463.52</ele>
        <time>2016-10-16T09:11:44Z</time>
      </trkpt>
      <trkpt lat="47.45337" lon="6.72907">
        <ele>463.23</ele>
        <time>2016-10-16T09:11:47Z</time>
      </trkpt>
      <trkpt lat="47.45341" lon="6.72941">
        <ele>461.89</ele>
        <time>2016-10-16T09:11:50Z</time>
      </trkpt>
      <trkpt lat="47.45346" lon="6.72971">
        <ele>458.07</ele>
        <time>2016-10-16T09:11:53Z</time>
      </trkpt>
      <trkpt lat="47.45348" lon="6.73004">
        <ele>453.21</ele>
        <time>2016-10-16T09:11:56Z</time>
      </trkpt>
      <trkpt lat="47.4535" lon="6.73032">
        <ele>449.74</ele>
        <time>2016-10-16T09:11:59Z</time>
      </trkpt>
      <trkpt lat="47.45355" lon="6.7306">
        <ele>446.24</ele>
        <time>2016-10-16T09:12:02Z</time>
      </trkpt>
      <trkpt lat="47.45357" lon="6.73089">
        <ele>443.93</ele>
        <time>2016-10-16T09:12:06Z</time>
      </trkpt>
      <trkpt lat="47.45338" lon="6.73089">
        <ele>443.76</ele>
        <time>2016-10-16T09:12:13Z</time>
      </trkpt>
      <trkpt lat="47.45315" lon="6.73074">
        <ele>444.13</ele>
        <time>2016-10-16T09:12:18Z</time>
      </trkpt>
      <trkpt lat="47.45292" lon="6.73068">
        <ele>443.12</ele>
        <time>2016-10-16T09:12:21Z</time>
      </trkpt>
      <trkpt lat="47.45269" lon="6.73081">
        <ele>440.26</ele>
        <time>2016-10-16T09:12:24Z</time>
      </trkpt>
      <trkpt lat="47.45262" lon="6.73106">
        <ele>434.56</ele>
        <time>2016-10-16T09:12:27Z</time>
      </trkpt>
      <trkpt lat="47.45248" lon="6.73133">
        <ele>430.89</ele>
        <time>2016-10-16T09:12:30Z</time>
      </trkpt>
      <trkpt lat="47.45234" lon="6.73158">
        <ele>429.77</ele>
        <time>2016-10-16T09:12:33Z</time>
      </trkpt>
      <trkpt lat="47.45217" lon="6.73188">
        <ele>427.54</ele>
        <time>2016-10-16T09:12:36Z</time>
      </trkpt>
      <trkpt lat="47.45201" lon="6.73215">
        <ele>423.86</ele>
        <time>2016-10-16T09:12:39Z</time>
      </trkpt>
      <trkpt lat="47.45189" lon="6.73244">
        <ele>421.04</ele>
        <time>2016-10-16T09:12:42Z</time>
      </trkpt>
      <trkpt lat="47.45176" lon="6.73264">
        <ele>419.38</ele>
        <time>2016-10-16T09:12:44Z</time>
      </trkpt>
      <trkpt lat="47.45159" lon="6.73287">
        <ele>416.88</ele>
        <time>2016-10-16T09:12:47Z</time>
      </trkpt>
      <trkpt lat="47.4514" lon="6.73316">
        <ele>415.41</ele>
        <time>2016-10-16T09:12:50Z</time>
      </trkpt>
      <trkpt lat="47.45126" lon="6.73337">
        <ele>413.91</ele>
        <time>2016-10-16T09:12:52Z</time>
      </trkpt>
      <trkpt lat="47.45112" lon="6.7336">
        <ele>411.83</ele>
        <time>2016-10-16T09:12:54Z</time>
      </trkpt>
      <trkpt lat="47.45102" lon="6.73382">
        <ele>406.8</ele>
        <time>2016-10-16T09:12:58Z</time>
      </trkpt>
      <trkpt lat="47.45091" lon="6.73408">
        <ele>406.03</ele>
        <time>2016-10-16T09:13:06Z</time>
      </trkpt>
      <trkpt lat="47.4508" lon="6.73436">
        <ele>404.36</ele>
        <time>2016-10-16T09:13:11Z</time>
      </trkpt>
      <trkpt lat="47.45069" lon="6.73466">
        <ele>404.53</ele>
        <time>2016-10-16T09:13:16Z</time>
      </trkpt>
      <trkpt lat="47.45061" lon="6.73498">
        <ele>403.55</ele>
        <time>2016-10-16T09:13:20Z</time>
      </trkpt>
      <trkpt lat="47.45057" lon="6.73525">
        <ele>402.08</ele>
        <time>2016-10-16T09:13:24Z</time>
      </trkpt>
      <trkpt lat="47.45049" lon="6.7355">
        <ele>401.62</ele>
        <time>2016-10-16T09:13:27Z</time>
      </trkpt>
      <trkpt lat="47.45043" lon="6.73577">
        <ele>400.42</ele>
        <time>2016-10-16T09:13:30Z</time>
      </trkpt>
      <trkpt lat="47.45033" lon="6.7361">
        <ele>398.72</ele>
        <time>2016-10-16T09:13:35Z</time>
      </trkpt>
      <trkpt lat="47.45028" lon="6.73638">
        <ele>397.04</ele>
        <time>2016-10-16T09:13:39Z</time>
      </trkpt>
      <trkpt lat="47.4502" lon="6.73663">
        <ele>395.39</ele>
        <time>2016-10-16T09:13:42Z</time>
      </trkpt>
      <trkpt lat="47.45019" lon="6.737">
        <ele>390.82</ele>
        <time>2016-10-16T09:13:45Z</time>
      </trkpt>
      <trkpt lat="47.45014" lon="6.73736">
        <ele>385.64</ele>
        <time>2016-10-16T09:13:48Z</time>
      </trkpt>
      <trkpt lat="47.45007" lon="6.7377">
        <ele>382.39</ele>
        <time>2016-10-16T09:13:52Z</time>
      </trkpt>
      <trkpt lat="47.45002" lon="6.73802">
        <ele>380.77</ele>
        <time>2016-10-16T09:13:55Z</time>
      </trkpt>
      <trkpt lat="47.44997" lon="6.7383">
        <ele>381.37</ele>
        <time>2016-10-16T09:13:58Z</time>
      </trkpt>
      <trkpt lat="47.44993" lon="6.73863">
        <ele>384.06</ele>
        <time>2016-10-16T09:14:02Z</time>
      </trkpt>
      <trkpt lat="47.44984" lon="6.73897">
        <ele>383.45</ele>
        <time>2016-10-16T09:14:06Z</time>
      </trkpt>
      <trkpt lat="47.44976" lon="6.73927">
        <ele>383.87</ele>
        <time>2016-10-16T09:14:09Z</time>
      </trkpt>
      <trkpt lat="47.44971" lon="6.7396">
        <ele>382.05</ele>
        <time>2016-10-16T09:14:12Z</time>
      </trkpt>
      <trkpt lat="47.44968" lon="6.73994">
        <ele>380.6</ele>
        <time>2016-10-16T09:14:15Z</time>
      </trkpt>
      <trkpt lat="47.44962" lon="6.74024">
        <ele>378.09</ele>
        <time>2016-10-16T09:14:18Z</time>
      </trkpt>
      <trkpt lat="47.44955" lon="6.74051">
        <ele>377.44</ele>
        <time>2016-10-16T09:14:21Z</time>
      </trkpt>
      <trkpt lat="47.4495" lon="6.74084">
        <ele>379.72</ele>
        <time>2016-10-16T09:14:25Z</time>
      </trkpt>
      <trkpt lat="47.44951" lon="6.74113">
        <ele>378.34</ele>
        <time>2016-10-16T09:14:28Z</time>
      </trkpt>
      <trkpt lat="47.44952" lon="6.74145">
        <ele>377.06</ele>
        <time>2016-10-16T09:14:31Z</time>
      </trkpt>
      <trkpt lat="47.44953" lon="6.74176">
        <ele>376.07</ele>
        <time>2016-10-16T09:14:35Z</time>
      </trkpt>
      <trkpt lat="47.44954" lon="6.74206">
        <ele>370.37</ele>
        <time>2016-10-16T09:14:39Z</time>
      </trkpt>
      <trkpt lat="47.44959" lon="6.74236">
        <ele>369.68</ele>
        <time>2016-10-16T09:14:44Z</time>
      </trkpt>
      <trkpt lat="47.44945" lon="6.74259">
        <ele>369.34</ele>
        <time>2016-10-16T09:14:54Z</time>
      </trkpt>
      <trkpt lat="47.44938" lon="6.74286">
        <ele>370.6</ele>
        <time>2016-10-16T09:15:20Z</time>
      </trkpt>
      <trkpt lat="47.44944" lon="6.74314">
        <ele>371.96</ele>
        <time>2016-10-16T09:15:28Z</time>
      </trkpt>
      <trkpt lat="47.4495" lon="6.7434">
        <ele>373.29</ele>
        <time>2016-10-16T09:15:35Z</time>
      </trkpt>
      <trkpt lat="47.44957" lon="6.74367">
        <ele>374.02</ele>
        <time>2016-10-16T09:15:40Z</time>
      </trkpt>
      <trkpt lat="47.44966" lon="6.74393">
        <ele>374.59</ele>
        <time>2016-10-16T09:15:46Z</time>
      </trkpt>
      <trkpt lat="47.44967" lon="6.74424">
        <ele>375.83</ele>
        <time>2016-10-16T09:16:12Z</time>
      </trkpt>
      <trkpt lat="47.44979" lon="6.74446">
        <ele>375.06</ele>
        <time>2016-10-16T09:16:19Z</time>
      </trkpt>
      <trkpt lat="47.44995" lon="6.74486">
        <ele>373.68</ele>
        <time>2016-10-16T09:16:33Z</time>
      </trkpt>
      <trkpt lat="47.4501" lon="6.74503">
        <ele>374.32</ele>
        <time>2016-10-16T09:16:38Z</time>
      </trkpt>
      <trkpt lat="47.45023" lon="6.74524">
        <ele>375.66</ele>
        <time>2016-10-16T09:16:44Z</time>
      </trkpt>
      <trkpt lat="47.45034" lon="6.74549">
        <ele>376.93</ele>
        <time>2016-10-16T09:16:49Z</time>
      </trkpt>
      <trkpt lat="47.45047" lon="6.74572">
        <ele>378.09</ele>
        <time>2016-10-16T09:16:54Z</time>
      </trkpt>
      <trkpt lat="47.4506" lon="6.74599">
        <ele>380.27</ele>
        <time>2016-10-16T09:16:59Z</time>
      </trkpt>
      <trkpt lat="47.45071" lon="6.7463">
        <ele>381.21</ele>
        <time>2016-10-16T09:17:04Z</time>
      </trkpt>
      <trkpt lat="47.45083" lon="6.74658">
        <ele>381.41</ele>
        <time>2016-10-16T09:17:08Z</time>
      </trkpt>
      <trkpt lat="47.451" lon="6.74679">
        <ele>379.55</ele>
        <time>2016-10-16T09:17:12Z</time>
      </trkpt>
      <trkpt lat="47.45115" lon="6.74694">
        <ele>379.16</ele>
        <time>2016-10-16T09:17:16Z</time>
      </trkpt>
      <trkpt lat="47.45129" lon="6.74716">
        <ele>377.12</ele>
        <time>2016-10-16T09:17:20Z</time>
      </trkpt>
      <trkpt lat="47.45143" lon="6.74737">
        <ele>376.21</ele>
        <time>2016-10-16T09:17:24Z</time>
      </trkpt>
      <trkpt lat="47.45157" lon="6.74757">
        <ele>375.95</ele>
        <time>2016-10-16T09:17:27Z</time>
      </trkpt>
      <trkpt lat="47.45171" lon="6.7478">
        <ele>374.62</ele>
        <time>2016-10-16T09:17:31Z</time>
      </trkpt>
      <trkpt lat="47.45183" lon="6.74804">
        <ele>373.79</ele>
        <time>2016-10-16T09:17:34Z</time>
      </trkpt>
      <trkpt lat="47.45196" lon="6.74829">
        <ele>373.65</ele>
        <time>2016-10-16T09:17:37Z</time>
      </trkpt>
      <trkpt lat="47.4521" lon="6.74849">
        <ele>372.3</ele>
        <time>2016-10-16T09:17:40Z</time>
      </trkpt>
      <trkpt lat="47.45224" lon="6.74873">
        <ele>371.41</ele>
        <time>2016-10-16T09:17:43Z</time>
      </trkpt>
      <trkpt lat="47.45231" lon="6.749">
        <ele>371</ele>
        <time>2016-10-16T09:17:46Z</time>
      </trkpt>
      <trkpt lat="47.45234" lon="6.74928">
        <ele>366.52</ele>
        <time>2016-10-16T09:17:50Z</time>
      </trkpt>
      <trkpt lat="47.45238" lon="6.74958">
        <ele>365.44</ele>
        <time>2016-10-16T09:17:55Z</time>
      </trkpt>
      <trkpt lat="47.45241" lon="6.74985">
        <ele>363.17</ele>
        <time>2016-10-16T09:17:59Z</time>
      </trkpt>
      <trkpt lat="47.45246" lon="6.75016">
        <ele>359.57</ele>
        <time>2016-10-16T09:18:04Z</time>
      </trkpt>
      <trkpt lat="47.45253" lon="6.75043">
        <ele>355.23</ele>
        <time>2016-10-16T09:18:08Z</time>
      </trkpt>
      <trkpt lat="47.45262" lon="6.75074">
        <ele>351.29</ele>
        <time>2016-10-16T09:18:12Z</time>
      </trkpt>
      <trkpt lat="47.45272" lon="6.751">
        <ele>349.44</ele>
        <time>2016-10-16T09:18:16Z</time>
      </trkpt>
      <trkpt lat="47.45285" lon="6.75125">
        <ele>348.12</ele>
        <time>2016-10-16T09:18:20Z</time>
      </trkpt>
      <trkpt lat="47.45298" lon="6.75152">
        <ele>346.95</ele>
        <time>2016-10-16T09:18:24Z</time>
      </trkpt>
      <trkpt lat="47.45316" lon="6.75173">
        <ele>347</ele>
        <time>2016-10-16T09:18:28Z</time>
      </trkpt>
      <trkpt lat="47.45335" lon="6.75193">
        <ele>344.47</ele>
        <time>2016-10-16T09:18:32Z</time>
      </trkpt>
      <trkpt lat="47.4535" lon="6.75216">
        <ele>344.68</ele>
        <time>2016-10-16T09:18:36Z</time>
      </trkpt>
      <trkpt lat="47.45363" lon="6.7524">
        <ele>344.92</ele>
        <time>2016-10-16T09:18:40Z</time>
      </trkpt>
      <trkpt lat="47.45377" lon="6.75265">
        <ele>347.16</ele>
        <time>2016-10-16T09:18:44Z</time>
      </trkpt>
      <trkpt lat="47.45386" lon="6.75288">
        <ele>348.15</ele>
        <time>2016-10-16T09:18:49Z</time>
      </trkpt>
      <trkpt lat="47.4537" lon="6.75301">
        <ele>347.76</ele>
        <time>2016-10-16T09:18:56Z</time>
      </trkpt>
      <trkpt lat="47.45351" lon="6.75309">
        <ele>347.26</ele>
        <time>2016-10-16T09:19:02Z</time>
      </trkpt>
      <trkpt lat="47.45333" lon="6.75319">
        <ele>346.94</ele>
        <time>2016-10-16T09:19:10Z</time>
      </trkpt>
      <trkpt lat="47.45316" lon="6.75334">
        <ele>347.18</ele>
        <time>2016-10-16T09:19:16Z</time>
      </trkpt>
      <trkpt lat="47.45322" lon="6.75361">
        <ele>348.29</ele>
        <time>2016-10-16T09:19:20Z</time>
      </trkpt>
      <trkpt lat="47.45333" lon="6.75383">
        <ele>346.15</ele>
        <time>2016-10-16T09:19:23Z</time>
      </trkpt>
      <trkpt lat="47.45342" lon="6.75407">
        <ele>343.73</ele>
        <time>2016-10-16T09:19:26Z</time>
      </trkpt>
      <trkpt lat="47.45347" lon="6.7544">
        <ele>342.16</ele>
        <time>2016-10-16T09:19:30Z</time>
      </trkpt>
      <trkpt lat="47.45351" lon="6.75468">
        <ele>343.19</ele>
        <time>2016-10-16T09:19:34Z</time>
      </trkpt>
      <trkpt lat="47.45356" lon="6.75495">
        <ele>343.63</ele>
        <time>2016-10-16T09:19:38Z</time>
      </trkpt>
      <trkpt lat="47.4536" lon="6.75524">
        <ele>342.72</ele>
        <time>2016-10-16T09:19:43Z</time>
      </trkpt>
      <trkpt lat="47.45364" lon="6.75554">
        <ele>342.11</ele>
        <time>2016-10-16T09:19:49Z</time>
      </trkpt>
      <trkpt lat="47.45369" lon="6.7558">
        <ele>342.42</ele>
        <time>2016-10-16T09:19:55Z</time>
      </trkpt>
      <trkpt lat="47.45369" lon="6.75608">
        <ele>342.8</ele>
        <time>2016-10-16T09:20:04Z</time>
      </trkpt>
      <trkpt lat="47.45368" lon="6.75635">
        <ele>344.21</ele>
        <time>2016-10-16T09:20:16Z</time>
      </trkpt>
      <trkpt lat="47.45359" lon="6.75671">
        <ele>347.52</ele>
        <time>2016-10-16T09:20:36Z</time>
      </trkpt>
      <trkpt lat="47.45358" lon="6.757">
        <ele>350.57</ele>
        <time>2016-10-16T09:20:50Z</time>
      </trkpt>
      <trkpt lat="47.45366" lon="6.75727">
        <ele>352.79</ele>
        <time>2016-10-16T09:21:02Z</time>
      </trkpt>
      <trkpt lat="47.45372" lon="6.75752">
        <ele>364</ele>
        <time>2016-10-16T09:23:09Z</time>
      </trkpt>
      <trkpt lat="47.4538" lon="6.75776">
        <ele>367.54</ele>
        <time>2016-10-16T09:23:21Z</time>
      </trkpt>
      <trkpt lat="47.45385" lon="6.75804">
        <ele>370.03</ele>
        <time>2016-10-16T09:23:33Z</time>
      </trkpt>
      <trkpt lat="47.45384" lon="6.75833">
        <ele>372.91</ele>
        <time>2016-10-16T09:23:45Z</time>
      </trkpt>
      <trkpt lat="47.45391" lon="6.75859">
        <ele>374.83</ele>
        <time>2016-10-16T09:23:55Z</time>
      </trkpt>
      <trkpt lat="47.4538" lon="6.75882">
        <ele>377.46</ele>
        <time>2016-10-16T09:24:08Z</time>
      </trkpt>
      <trkpt lat="47.45363" lon="6.75894">
        <ele>379.42</ele>
        <time>2016-10-16T09:24:18Z</time>
      </trkpt>
      <trkpt lat="47.45345" lon="6.75894">
        <ele>381.39</ele>
        <time>2016-10-16T09:24:29Z</time>
      </trkpt>
      <trkpt lat="47.45324" lon="6.7589">
        <ele>383.18</ele>
        <time>2016-10-16T09:24:37Z</time>
      </trkpt>
      <trkpt lat="47.45307" lon="6.75881">
        <ele>385.39</ele>
        <time>2016-10-16T09:24:47Z</time>
      </trkpt>
      <trkpt lat="47.45287" lon="6.75872">
        <ele>386.78</ele>
        <time>2016-10-16T09:24:54Z</time>
      </trkpt>
      <trkpt lat="47.45267" lon="6.75867">
        <ele>388.73</ele>
        <time>2016-10-16T09:25:04Z</time>
      </trkpt>
      <trkpt lat="47.45249" lon="6.75862">
        <ele>390.47</ele>
        <time>2016-10-16T09:25:13Z</time>
      </trkpt>
      <trkpt lat="47.45231" lon="6.75854">
        <ele>390.58</ele>
        <time>2016-10-16T09:25:19Z</time>
      </trkpt>
      <trkpt lat="47.45213" lon="6.75849">
        <ele>391.07</ele>
        <time>2016-10-16T09:25:32Z</time>
      </trkpt>
      <trkpt lat="47.45196" lon="6.75836">
        <ele>392.29</ele>
        <time>2016-10-16T09:25:42Z</time>
      </trkpt>
      <trkpt lat="47.45178" lon="6.7583">
        <ele>392.03</ele>
        <time>2016-10-16T09:25:48Z</time>
      </trkpt>
      <trkpt lat="47.45158" lon="6.75826">
        <ele>390.82</ele>
        <time>2016-10-16T09:25:55Z</time>
      </trkpt>
      <trkpt lat="47.4514" lon="6.75826">
        <ele>389.56</ele>
        <time>2016-10-16T09:26:02Z</time>
      </trkpt>
      <trkpt lat="47.45121" lon="6.75828">
        <ele>388.46</ele>
        <time>2016-10-16T09:26:10Z</time>
      </trkpt>
      <trkpt lat="47.451" lon="6.75834">
        <ele>387.59</ele>
        <time>2016-10-16T09:26:18Z</time>
      </trkpt>
      <trkpt lat="47.45081" lon="6.75838">
        <ele>386.16</ele>
        <time>2016-10-16T09:26:25Z</time>
      </trkpt>
      <trkpt lat="47.45062" lon="6.75842">
        <ele>384.67</ele>
        <time>2016-10-16T09:26:31Z</time>
      </trkpt>
      <trkpt lat="47.45043" lon="6.75847">
        <ele>383.25</ele>
        <time>2016-10-16T09:26:37Z</time>
      </trkpt>
      <trkpt lat="47.45026" lon="6.75861">
        <ele>382.43</ele>
        <time>2016-10-16T09:26:45Z</time>
      </trkpt>
      <trkpt lat="47.45009" lon="6.7587">
        <ele>382.17</ele>
        <time>2016-10-16T09:26:52Z</time>
      </trkpt>
      <trkpt lat="47.44989" lon="6.75872">
        <ele>382.46</ele>
        <time>2016-10-16T09:27:00Z</time>
      </trkpt>
      <trkpt lat="47.44973" lon="6.75885">
        <ele>383.17</ele>
        <time>2016-10-16T09:27:07Z</time>
      </trkpt>
      <trkpt lat="47.44955" lon="6.75903">
        <ele>384.56</ele>
        <time>2016-10-16T09:27:15Z</time>
      </trkpt>
      <trkpt lat="47.44942" lon="6.75924">
        <ele>386.38</ele>
        <time>2016-10-16T09:27:22Z</time>
      </trkpt>
      <trkpt lat="47.44925" lon="6.75933">
        <ele>388.18</ele>
        <time>2016-10-16T09:27:28Z</time>
      </trkpt>
      <trkpt lat="47.44903" lon="6.75944">
        <ele>393.66</ele>
        <time>2016-10-16T09:27:33Z</time>
      </trkpt>
      <trkpt lat="47.44885" lon="6.7596">
        <ele>393.85</ele>
        <time>2016-10-16T09:27:37Z</time>
      </trkpt>
      <trkpt lat="47.44867" lon="6.75971">
        <ele>396.15</ele>
        <time>2016-10-16T09:27:42Z</time>
      </trkpt>
      <trkpt lat="47.44848" lon="6.75978">
        <ele>394.63</ele>
        <time>2016-10-16T09:27:46Z</time>
      </trkpt>
      <trkpt lat="47.44827" lon="6.75981">
        <ele>392.46</ele>
        <time>2016-10-16T09:27:51Z</time>
      </trkpt>
      <trkpt lat="47.44808" lon="6.75984">
        <ele>391.63</ele>
        <time>2016-10-16T09:27:56Z</time>
      </trkpt>
      <trkpt lat="47.44789" lon="6.75996">
        <ele>391.09</ele>
        <time>2016-10-16T09:28:04Z</time>
      </trkpt>
      <trkpt lat="47.44769" lon="6.75996">
        <ele>390.39</ele>
        <time>2016-10-16T09:28:13Z</time>
      </trkpt>
      <trkpt lat="47.44749" lon="6.75999">
        <ele>390.32</ele>
        <time>2016-10-16T09:28:22Z</time>
      </trkpt>
      <trkpt lat="47.44729" lon="6.75995">
        <ele>390.18</ele>
        <time>2016-10-16T09:28:29Z</time>
      </trkpt>
      <trkpt lat="47.4471" lon="6.75995">
        <ele>390.75</ele>
        <time>2016-10-16T09:28:37Z</time>
      </trkpt>
      <trkpt lat="47.44695" lon="6.76011">
        <ele>391.17</ele>
        <time>2016-10-16T09:28:52Z</time>
      </trkpt>
      <trkpt lat="47.44691" lon="6.76037">
        <ele>391.79</ele>
        <time>2016-10-16T09:29:00Z</time>
      </trkpt>
      <trkpt lat="47.44684" lon="6.76065">
        <ele>392.48</ele>
        <time>2016-10-16T09:29:08Z</time>
      </trkpt>
      <trkpt lat="47.44674" lon="6.76091">
        <ele>393.27</ele>
        <time>2016-10-16T09:29:15Z</time>
      </trkpt>
      <trkpt lat="47.44665" lon="6.76115">
        <ele>394.03</ele>
        <time>2016-10-16T09:29:20Z</time>
      </trkpt>
      <trkpt lat="47.44658" lon="6.7614">
        <ele>394.32</ele>
        <time>2016-10-16T09:29:25Z</time>
      </trkpt>
      <trkpt lat="47.44652" lon="6.76165">
        <ele>394.32</ele>
        <time>2016-10-16T09:29:31Z</time>
      </trkpt>
      <trkpt lat="47.44642" lon="6.76189">
        <ele>393.93</ele>
        <time>2016-10-16T09:29:37Z</time>
      </trkpt>
      <trkpt lat="47.44639" lon="6.76217">
        <ele>393.68</ele>
        <time>2016-10-16T09:29:43Z</time>
      </trkpt>
      <trkpt lat="47.44634" lon="6.76245">
        <ele>393.3</ele>
        <time>2016-10-16T09:29:49Z</time>
      </trkpt>
      <trkpt lat="47.44627" lon="6.76271">
        <ele>393.28</ele>
        <time>2016-10-16T09:29:56Z</time>
      </trkpt>
      <trkpt lat="47.44622" lon="6.76298">
        <ele>394.72</ele>
        <time>2016-10-16T09:30:05Z</time>
      </trkpt>
      <trkpt lat="47.44628" lon="6.76327">
        <ele>397.08</ele>
        <time>2016-10-16T09:30:13Z</time>
      </trkpt>
      <trkpt lat="47.4463" lon="6.76356">
        <ele>399.74</ele>
        <time>2016-10-16T09:30:21Z</time>
      </trkpt>
      <trkpt lat="47.44638" lon="6.76382">
        <ele>401.76</ele>
        <time>2016-10-16T09:30:28Z</time>
      </trkpt>
      <trkpt lat="47.44647" lon="6.76407">
        <ele>403.66</ele>
        <time>2016-10-16T09:30:36Z</time>
      </trkpt>
      <trkpt lat="47.44659" lon="6.76427">
        <ele>404.84</ele>
        <time>2016-10-16T09:30:43Z</time>
      </trkpt>
      <trkpt lat="47.44671" lon="6.76448">
        <ele>405.59</ele>
        <time>2016-10-16T09:30:49Z</time>
      </trkpt>
      <trkpt lat="47.44685" lon="6.76471">
        <ele>406.41</ele>
        <time>2016-10-16T09:30:57Z</time>
      </trkpt>
      <trkpt lat="47.44702" lon="6.76491">
        <ele>406.98</ele>
        <time>2016-10-16T09:31:03Z</time>
      </trkpt>
      <trkpt lat="47.44715" lon="6.76511">
        <ele>407.16</ele>
        <time>2016-10-16T09:31:08Z</time>
      </trkpt>
      <trkpt lat="47.44732" lon="6.76532">
        <ele>407.37</ele>
        <time>2016-10-16T09:31:14Z</time>
      </trkpt>
      <trkpt lat="47.44749" lon="6.76555">
        <ele>407.16</ele>
        <time>2016-10-16T09:31:19Z</time>
      </trkpt>
      <trkpt lat="47.44764" lon="6.76575">
        <ele>406.66</ele>
        <time>2016-10-16T09:31:23Z</time>
      </trkpt>
      <trkpt lat="47.44782" lon="6.76592">
        <ele>406.02</ele>
        <time>2016-10-16T09:31:27Z</time>
      </trkpt>
      <trkpt lat="47.44799" lon="6.76613">
        <ele>404.76</ele>
        <time>2016-10-16T09:31:31Z</time>
      </trkpt>
      <trkpt lat="47.44814" lon="6.76631">
        <ele>403.64</ele>
        <time>2016-10-16T09:31:35Z</time>
      </trkpt>
      <trkpt lat="47.44831" lon="6.76646">
        <ele>402.45</ele>
        <time>2016-10-16T09:31:38Z</time>
      </trkpt>
      <trkpt lat="47.44852" lon="6.76672">
        <ele>402.61</ele>
        <time>2016-10-16T09:31:41Z</time>
      </trkpt>
      <trkpt lat="47.44868" lon="6.76698">
        <ele>402.37</ele>
        <time>2016-10-16T09:31:44Z</time>
      </trkpt>
      <trkpt lat="47.4489" lon="6.76708">
        <ele>401.22</ele>
        <time>2016-10-16T09:31:49Z</time>
      </trkpt>
      <trkpt lat="47.44905" lon="6.76727">
        <ele>397</ele>
        <time>2016-10-16T09:31:53Z</time>
      </trkpt>
      <trkpt lat="47.44918" lon="6.76751">
        <ele>392.36</ele>
        <time>2016-10-16T09:31:57Z</time>
      </trkpt>
      <trkpt lat="47.44935" lon="6.76771">
        <ele>392.01</ele>
        <time>2016-10-16T09:32:00Z</time>
      </trkpt>
      <trkpt lat="47.44951" lon="6.76791">
        <ele>391.15</ele>
        <time>2016-10-16T09:32:03Z</time>
      </trkpt>
      <trkpt lat="47.44972" lon="6.76818">
        <ele>388.73</ele>
        <time>2016-10-16T09:32:06Z</time>
      </trkpt>
      <trkpt lat="47.44993" lon="6.76839">
        <ele>385.17</ele>
        <time>2016-10-16T09:32:09Z</time>
      </trkpt>
      <trkpt lat="47.45012" lon="6.76852">
        <ele>382.76</ele>
        <time>2016-10-16T09:32:12Z</time>
      </trkpt>
      <trkpt lat="47.45033" lon="6.76851">
        <ele>381.41</ele>
        <time>2016-10-16T09:32:15Z</time>
      </trkpt>
      <trkpt lat="47.45052" lon="6.76847">
        <ele>381.13</ele>
        <time>2016-10-16T09:32:19Z</time>
      </trkpt>
      <trkpt lat="47.4507" lon="6.76843">
        <ele>380.88</ele>
        <time>2016-10-16T09:32:26Z</time>
      </trkpt>
      <trkpt lat="47.45089" lon="6.76854">
        <ele>381.08</ele>
        <time>2016-10-16T09:32:36Z</time>
      </trkpt>
      <trkpt lat="47.45102" lon="6.76873">
        <ele>381.54</ele>
        <time>2016-10-16T09:32:42Z</time>
      </trkpt>
      <trkpt lat="47.45115" lon="6.76897">
        <ele>381.76</ele>
        <time>2016-10-16T09:32:48Z</time>
      </trkpt>
      <trkpt lat="47.45125" lon="6.76928">
        <ele>382.43</ele>
        <time>2016-10-16T09:32:58Z</time>
      </trkpt>
      <trkpt lat="47.45123" lon="6.76955">
        <ele>381.03</ele>
        <time>2016-10-16T09:34:09Z</time>
      </trkpt>
      <trkpt lat="47.4511" lon="6.76978">
        <ele>380.86</ele>
        <time>2016-10-16T09:34:16Z</time>
      </trkpt>
      <trkpt lat="47.45099" lon="6.77004">
        <ele>381.22</ele>
        <time>2016-10-16T09:34:21Z</time>
      </trkpt>
      <trkpt lat="47.45089" lon="6.77027">
        <ele>377.82</ele>
        <time>2016-10-16T09:34:25Z</time>
      </trkpt>
      <trkpt lat="47.45079" lon="6.77051">
        <ele>375.48</ele>
        <time>2016-10-16T09:34:29Z</time>
      </trkpt>
      <trkpt lat="47.45074" lon="6.77078">
        <ele>374.84</ele>
        <time>2016-10-16T09:34:32Z</time>
      </trkpt>
      <trkpt lat="47.45066" lon="6.77111">
        <ele>376.05</ele>
        <time>2016-10-16T09:34:36Z</time>
      </trkpt>
      <trkpt lat="47.45061" lon="6.77144">
        <ele>373.9</ele>
        <time>2016-10-16T09:34:40Z</time>
      </trkpt>
      <trkpt lat="47.45057" lon="6.77172">
        <ele>371.64</ele>
        <time>2016-10-16T09:34:43Z</time>
      </trkpt>
      <trkpt lat="47.45057" lon="6.77201">
        <ele>371.93</ele>
        <time>2016-10-16T09:34:46Z</time>
      </trkpt>
      <trkpt lat="47.45053" lon="6.77231">
        <ele>372.18</ele>
        <time>2016-10-16T09:34:49Z</time>
      </trkpt>
      <trkpt lat="47.45046" lon="6.77263">
        <ele>371.88</ele>
        <time>2016-10-16T09:34:52Z</time>
      </trkpt>
      <trkpt lat="47.45034" lon="6.77294">
        <ele>371.93</ele>
        <time>2016-10-16T09:34:55Z</time>
      </trkpt>
      <trkpt lat="47.45021" lon="6.77325">
        <ele>371.53</ele>
        <time>2016-10-16T09:34:58Z</time>
      </trkpt>
      <trkpt lat="47.45011" lon="6.77355">
        <ele>370.91</ele>
        <time>2016-10-16T09:35:01Z</time>
      </trkpt>
      <trkpt lat="47.45001" lon="6.77384">
        <ele>369.71</ele>
        <time>2016-10-16T09:35:04Z</time>
      </trkpt>
      <trkpt lat="47.44989" lon="6.77411">
        <ele>369.82</ele>
        <time>2016-10-16T09:35:07Z</time>
      </trkpt>
      <trkpt lat="47.44968" lon="6.77413">
        <ele>370.26</ele>
        <time>2016-10-16T09:35:11Z</time>
      </trkpt>
      <trkpt lat="47.44948" lon="6.77397">
        <ele>367.26</ele>
        <time>2016-10-16T09:35:15Z</time>
      </trkpt>
      <trkpt lat="47.44931" lon="6.77385">
        <ele>366.93</ele>
        <time>2016-10-16T09:35:19Z</time>
      </trkpt>
      <trkpt lat="47.44913" lon="6.774">
        <ele>365.77</ele>
        <time>2016-10-16T09:35:24Z</time>
      </trkpt>
      <trkpt lat="47.44898" lon="6.77424">
        <ele>367.35</ele>
        <time>2016-10-16T09:35:29Z</time>
      </trkpt>
      <trkpt lat="47.44887" lon="6.77444">
        <ele>367.54</ele>
        <time>2016-10-16T09:35:33Z</time>
      </trkpt>
      <trkpt lat="47.44875" lon="6.77469">
        <ele>366.45</ele>
        <time>2016-10-16T09:35:37Z</time>
      </trkpt>
      <trkpt lat="47.44866" lon="6.77497">
        <ele>364.24</ele>
        <time>2016-10-16T09:35:41Z</time>
      </trkpt>
      <trkpt lat="47.44857" lon="6.77523">
        <ele>363.47</ele>
        <time>2016-10-16T09:35:44Z</time>
      </trkpt>
      <trkpt lat="47.44841" lon="6.77543">
        <ele>362.33</ele>
        <time>2016-10-16T09:35:47Z</time>
      </trkpt>
      <trkpt lat="47.44823" lon="6.77557">
        <ele>360.31</ele>
        <time>2016-10-16T09:35:50Z</time>
      </trkpt>
      <trkpt lat="47.44805" lon="6.77566">
        <ele>359.24</ele>
        <time>2016-10-16T09:35:53Z</time>
      </trkpt>
      <trkpt lat="47.44784" lon="6.77576">
        <ele>360.18</ele>
        <time>2016-10-16T09:35:57Z</time>
      </trkpt>
      <trkpt lat="47.44765" lon="6.77588">
        <ele>359.36</ele>
        <time>2016-10-16T09:36:01Z</time>
      </trkpt>
      <trkpt lat="47.44743" lon="6.77601">
        <ele>360.75</ele>
        <time>2016-10-16T09:36:06Z</time>
      </trkpt>
      <trkpt lat="47.44726" lon="6.77609">
        <ele>360.82</ele>
        <time>2016-10-16T09:36:10Z</time>
      </trkpt>
      <trkpt lat="47.44707" lon="6.77614">
        <ele>361.38</ele>
        <time>2016-10-16T09:36:14Z</time>
      </trkpt>
      <trkpt lat="47.44686" lon="6.77621">
        <ele>361.59</ele>
        <time>2016-10-16T09:36:18Z</time>
      </trkpt>
      <trkpt lat="47.44664" lon="6.77627">
        <ele>360.17</ele>
        <time>2016-10-16T09:36:22Z</time>
      </trkpt>
      <trkpt lat="47.44642" lon="6.77629">
        <ele>359.9</ele>
        <time>2016-10-16T09:36:26Z</time>
      </trkpt>
      <trkpt lat="47.44618" lon="6.77629">
        <ele>359.5</ele>
        <time>2016-10-16T09:36:30Z</time>
      </trkpt>
      <trkpt lat="47.44598" lon="6.7763">
        <ele>358.48</ele>
        <time>2016-10-16T09:36:34Z</time>
      </trkpt>
      <trkpt lat="47.4458" lon="6.77631">
        <ele>359.48</ele>
        <time>2016-10-16T09:36:38Z</time>
      </trkpt>
      <trkpt lat="47.4456" lon="6.7763">
        <ele>361.34</ele>
        <time>2016-10-16T09:36:43Z</time>
      </trkpt>
      <trkpt lat="47.44538" lon="6.77625">
        <ele>362.83</ele>
        <time>2016-10-16T09:36:48Z</time>
      </trkpt>
      <trkpt lat="47.44521" lon="6.77615">
        <ele>362.49</ele>
        <time>2016-10-16T09:36:52Z</time>
      </trkpt>
      <trkpt lat="47.44503" lon="6.77607">
        <ele>363.69</ele>
        <time>2016-10-16T09:36:57Z</time>
      </trkpt>
      <trkpt lat="47.44484" lon="6.77599">
        <ele>362.88</ele>
        <time>2016-10-16T09:37:02Z</time>
      </trkpt>
      <trkpt lat="47.44466" lon="6.77594">
        <ele>362.39</ele>
        <time>2016-10-16T09:37:06Z</time>
      </trkpt>
      <trkpt lat="47.44445" lon="6.77593">
        <ele>363.72</ele>
        <time>2016-10-16T09:37:12Z</time>
      </trkpt>
      <trkpt lat="47.44424" lon="6.77584">
        <ele>364.1</ele>
        <time>2016-10-16T09:37:18Z</time>
      </trkpt>
      <trkpt lat="47.44406" lon="6.77575">
        <ele>363.53</ele>
        <time>2016-10-16T09:37:23Z</time>
      </trkpt>
      <trkpt lat="47.44388" lon="6.77568">
        <ele>363.87</ele>
        <time>2016-10-16T09:37:28Z</time>
      </trkpt>
      <trkpt lat="47.44368" lon="6.77559">
        <ele>364.25</ele>
        <time>2016-10-16T09:37:33Z</time>
      </trkpt>
      <trkpt lat="47.4435" lon="6.7755">
        <ele>363.49</ele>
        <time>2016-10-16T09:37:38Z</time>
      </trkpt>
      <trkpt lat="47.4433" lon="6.77543">
        <ele>363.55</ele>
        <time>2016-10-16T09:37:43Z</time>
      </trkpt>
      <trkpt lat="47.44312" lon="6.77537">
        <ele>363.28</ele>
        <time>2016-10-16T09:37:47Z</time>
      </trkpt>
      <trkpt lat="47.44291" lon="6.7753">
        <ele>365.1</ele>
        <time>2016-10-16T09:37:52Z</time>
      </trkpt>
      <trkpt lat="47.4427" lon="6.77519">
        <ele>365.81</ele>
        <time>2016-10-16T09:37:57Z</time>
      </trkpt>
      <trkpt lat="47.44249" lon="6.77508">
        <ele>366.51</ele>
        <time>2016-10-16T09:38:02Z</time>
      </trkpt>
      <trkpt lat="47.44229" lon="6.77499">
        <ele>367.02</ele>
        <time>2016-10-16T09:38:06Z</time>
      </trkpt>
      <trkpt lat="47.44213" lon="6.77481">
        <ele>366.93</ele>
        <time>2016-10-16T09:38:11Z</time>
      </trkpt>
      <trkpt lat="47.44197" lon="6.77468">
        <ele>367.59</ele>
        <time>2016-10-16T09:38:15Z</time>
      </trkpt>
      <trkpt lat="47.44179" lon="6.77458">
        <ele>366.61</ele>
        <time>2016-10-16T09:38:19Z</time>
      </trkpt>
      <trkpt lat="47.44156" lon="6.77449">
        <ele>366.82</ele>
        <time>2016-10-16T09:38:23Z</time>
      </trkpt>
      <trkpt lat="47.44134" lon="6.77441">
        <ele>367.14</ele>
        <time>2016-10-16T09:38:27Z</time>
      </trkpt>
      <trkpt lat="47.44112" lon="6.77431">
        <ele>366.17</ele>
        <time>2016-10-16T09:38:31Z</time>
      </trkpt>
      <trkpt lat="47.4409" lon="6.7742">
        <ele>365.58</ele>
        <time>2016-10-16T09:38:35Z</time>
      </trkpt>
      <trkpt lat="47.44072" lon="6.77412">
        <ele>363.98</ele>
        <time>2016-10-16T09:38:38Z</time>
      </trkpt>
      <trkpt lat="47.44052" lon="6.77402">
        <ele>364.37</ele>
        <time>2016-10-16T09:38:42Z</time>
      </trkpt>
      <trkpt lat="47.44028" lon="6.77395">
        <ele>365.53</ele>
        <time>2016-10-16T09:38:46Z</time>
      </trkpt>
      <trkpt lat="47.44006" lon="6.77385">
        <ele>365.75</ele>
        <time>2016-10-16T09:38:50Z</time>
      </trkpt>
      <trkpt lat="47.43983" lon="6.77379">
        <ele>365.14</ele>
        <time>2016-10-16T09:38:54Z</time>
      </trkpt>
      <trkpt lat="47.4396" lon="6.77374">
        <ele>363.69</ele>
        <time>2016-10-16T09:38:58Z</time>
      </trkpt>
      <trkpt lat="47.43939" lon="6.77371">
        <ele>362.12</ele>
        <time>2016-10-16T09:39:02Z</time>
      </trkpt>
      <trkpt lat="47.43917" lon="6.77367">
        <ele>362.63</ele>
        <time>2016-10-16T09:39:06Z</time>
      </trkpt>
      <trkpt lat="47.43897" lon="6.77362">
        <ele>362.07</ele>
        <time>2016-10-16T09:39:10Z</time>
      </trkpt>
      <trkpt lat="47.43878" lon="6.77354">
        <ele>362.25</ele>
        <time>2016-10-16T09:39:14Z</time>
      </trkpt>
      <trkpt lat="47.43859" lon="6.77344">
        <ele>362.97</ele>
        <time>2016-10-16T09:39:18Z</time>
      </trkpt>
      <trkpt lat="47.4384" lon="6.77339">
        <ele>362.35</ele>
        <time>2016-10-16T09:39:22Z</time>
      </trkpt>
      <trkpt lat="47.43818" lon="6.77335">
        <ele>360.75</ele>
        <time>2016-10-16T09:39:27Z</time>
      </trkpt>
      <trkpt lat="47.43798" lon="6.7733">
        <ele>361.26</ele>
        <time>2016-10-16T09:39:31Z</time>
      </trkpt>
      <trkpt lat="47.43787" lon="6.77308">
        <ele>360.96</ele>
        <time>2016-10-16T09:39:36Z</time>
      </trkpt>
      <trkpt lat="47.43771" lon="6.77292">
        <ele>360.75</ele>
        <time>2016-10-16T09:39:44Z</time>
      </trkpt>
      <trkpt lat="47.43753" lon="6.77292">
        <ele>360.22</ele>
        <time>2016-10-16T09:39:51Z</time>
      </trkpt>
      <trkpt lat="47.43734" lon="6.77288">
        <ele>355.16</ele>
        <time>2016-10-16T09:39:55Z</time>
      </trkpt>
      <trkpt lat="47.43714" lon="6.7728">
        <ele>354.35</ele>
        <time>2016-10-16T09:40:02Z</time>
      </trkpt>
      <trkpt lat="47.43696" lon="6.77289">
        <ele>353.5</ele>
        <time>2016-10-16T09:40:10Z</time>
      </trkpt>
      <trkpt lat="47.43679" lon="6.77302">
        <ele>353.32</ele>
        <time>2016-10-16T09:40:19Z</time>
      </trkpt>
      <trkpt lat="47.43658" lon="6.77307">
        <ele>355.95</ele>
        <time>2016-10-16T09:40:31Z</time>
      </trkpt>
      <trkpt lat="47.43639" lon="6.7731">
        <ele>357.73</ele>
        <time>2016-10-16T09:40:37Z</time>
      </trkpt>
      <trkpt lat="47.4362" lon="6.7731">
        <ele>358.96</ele>
        <time>2016-10-16T09:40:42Z</time>
      </trkpt>
      <trkpt lat="47.43599" lon="6.77312">
        <ele>359.72</ele>
        <time>2016-10-16T09:40:47Z</time>
      </trkpt>
      <trkpt lat="47.43579" lon="6.77317">
        <ele>360.07</ele>
        <time>2016-10-16T09:40:51Z</time>
      </trkpt>
      <trkpt lat="47.4356" lon="6.77321">
        <ele>361.12</ele>
        <time>2016-10-16T09:40:59Z</time>
      </trkpt>
      <trkpt lat="47.43538" lon="6.77322">
        <ele>362.27</ele>
        <time>2016-10-16T09:41:16Z</time>
      </trkpt>
      <trkpt lat="47.43517" lon="6.77326">
        <ele>362.72</ele>
        <time>2016-10-16T09:41:24Z</time>
      </trkpt>
      <trkpt lat="47.43498" lon="6.7733">
        <ele>363.13</ele>
        <time>2016-10-16T09:41:29Z</time>
      </trkpt>
      <trkpt lat="47.43481" lon="6.77343">
        <ele>363.33</ele>
        <time>2016-10-16T09:41:33Z</time>
      </trkpt>
      <trkpt lat="47.43461" lon="6.77356">
        <ele>361.96</ele>
        <time>2016-10-16T09:41:36Z</time>
      </trkpt>
      <trkpt lat="47.43443" lon="6.77369">
        <ele>360.73</ele>
        <time>2016-10-16T09:41:39Z</time>
      </trkpt>
      <trkpt lat="47.43426" lon="6.77378">
        <ele>357.72</ele>
        <time>2016-10-16T09:41:41Z</time>
      </trkpt>
      <trkpt lat="47.43406" lon="6.7739">
        <ele>357</ele>
        <time>2016-10-16T09:41:46Z</time>
      </trkpt>
      <trkpt lat="47.43387" lon="6.77401">
        <ele>356.44</ele>
        <time>2016-10-16T09:41:52Z</time>
      </trkpt>
      <trkpt lat="47.43369" lon="6.77409">
        <ele>355.93</ele>
        <time>2016-10-16T09:41:56Z</time>
      </trkpt>
      <trkpt lat="47.43352" lon="6.77424">
        <ele>353.45</ele>
        <time>2016-10-16T09:42:00Z</time>
      </trkpt>
      <trkpt lat="47.43336" lon="6.77444">
        <ele>348.93</ele>
        <time>2016-10-16T09:42:04Z</time>
      </trkpt>
      <trkpt lat="47.43317" lon="6.77464">
        <ele>348.41</ele>
        <time>2016-10-16T09:42:07Z</time>
      </trkpt>
      <trkpt lat="47.43301" lon="6.77483">
        <ele>350.51</ele>
        <time>2016-10-16T09:42:09Z</time>
      </trkpt>
      <trkpt lat="47.43287" lon="6.77505">
        <ele>352.17</ele>
        <time>2016-10-16T09:42:12Z</time>
      </trkpt>
      <trkpt lat="47.43268" lon="6.77529">
        <ele>352.98</ele>
        <time>2016-10-16T09:42:16Z</time>
      </trkpt>
      <trkpt lat="47.43252" lon="6.77543">
        <ele>351.53</ele>
        <time>2016-10-16T09:42:19Z</time>
      </trkpt>
      <trkpt lat="47.43237" lon="6.77559">
        <ele>350.26</ele>
        <time>2016-10-16T09:42:22Z</time>
      </trkpt>
      <trkpt lat="47.43221" lon="6.77574">
        <ele>349.8</ele>
        <time>2016-10-16T09:42:26Z</time>
      </trkpt>
      <trkpt lat="47.43201" lon="6.77594">
        <ele>350.34</ele>
        <time>2016-10-16T09:42:29Z</time>
      </trkpt>
      <trkpt lat="47.43183" lon="6.77614">
        <ele>350.01</ele>
        <time>2016-10-16T09:42:32Z</time>
      </trkpt>
      <trkpt lat="47.43162" lon="6.77626">
        <ele>346.42</ele>
        <time>2016-10-16T09:42:35Z</time>
      </trkpt>
      <trkpt lat="47.43143" lon="6.77635">
        <ele>347.23</ele>
        <time>2016-10-16T09:42:38Z</time>
      </trkpt>
      <trkpt lat="47.43123" lon="6.77651">
        <ele>349.54</ele>
        <time>2016-10-16T09:42:41Z</time>
      </trkpt>
      <trkpt lat="47.43105" lon="6.77668">
        <ele>351.33</ele>
        <time>2016-10-16T09:42:45Z</time>
      </trkpt>
      <trkpt lat="47.43082" lon="6.77678">
        <ele>351.59</ele>
        <time>2016-10-16T09:42:50Z</time>
      </trkpt>
      <trkpt lat="47.43063" lon="6.77691">
        <ele>351.69</ele>
        <time>2016-10-16T09:42:54Z</time>
      </trkpt>
      <trkpt lat="47.43044" lon="6.77701">
        <ele>351.71</ele>
        <time>2016-10-16T09:42:57Z</time>
      </trkpt>
      <trkpt lat="47.4302" lon="6.77709">
        <ele>351.09</ele>
        <time>2016-10-16T09:43:00Z</time>
      </trkpt>
      <trkpt lat="47.42998" lon="6.77722">
        <ele>353.22</ele>
        <time>2016-10-16T09:43:03Z</time>
      </trkpt>
      <trkpt lat="47.42979" lon="6.77732">
        <ele>356.47</ele>
        <time>2016-10-16T09:43:06Z</time>
      </trkpt>
      <trkpt lat="47.42959" lon="6.77738">
        <ele>356.71</ele>
        <time>2016-10-16T09:43:09Z</time>
      </trkpt>
      <trkpt lat="47.42938" lon="6.7774">
        <ele>359.53</ele>
        <time>2016-10-16T09:43:13Z</time>
      </trkpt>
      <trkpt lat="47.42918" lon="6.77737">
        <ele>364.49</ele>
        <time>2016-10-16T09:44:44Z</time>
      </trkpt>
      <trkpt lat="47.429" lon="6.7774">
        <ele>364.7</ele>
        <time>2016-10-16T09:44:51Z</time>
      </trkpt>
      <trkpt lat="47.42881" lon="6.7774">
        <ele>365.03</ele>
        <time>2016-10-16T09:44:59Z</time>
      </trkpt>
      <trkpt lat="47.42861" lon="6.77738">
        <ele>365.89</ele>
        <time>2016-10-16T09:46:35Z</time>
      </trkpt>
      <trkpt lat="47.42845" lon="6.77727">
        <ele>365</ele>
        <time>2016-10-16T09:46:39Z</time>
      </trkpt>
      <trkpt lat="47.42824" lon="6.77729">
        <ele>361.02</ele>
        <time>2016-10-16T09:46:42Z</time>
      </trkpt>
      <trkpt lat="47.42804" lon="6.77737">
        <ele>357.2</ele>
        <time>2016-10-16T09:46:46Z</time>
      </trkpt>
      <trkpt lat="47.42784" lon="6.77737">
        <ele>356.24</ele>
        <time>2016-10-16T09:46:53Z</time>
      </trkpt>
      <trkpt lat="47.42766" lon="6.77726">
        <ele>355.57</ele>
        <time>2016-10-16T09:47:03Z</time>
      </trkpt>
      <trkpt lat="47.42747" lon="6.77718">
        <ele>355.54</ele>
        <time>2016-10-16T09:47:10Z</time>
      </trkpt>
      <trkpt lat="47.42727" lon="6.77708">
        <ele>355.27</ele>
        <time>2016-10-16T09:47:16Z</time>
      </trkpt>
      <trkpt lat="47.42707" lon="6.77701">
        <ele>354.93</ele>
        <time>2016-10-16T09:47:22Z</time>
      </trkpt>
      <trkpt lat="47.42689" lon="6.777">
        <ele>355.22</ele>
        <time>2016-10-16T09:47:26Z</time>
      </trkpt>
      <trkpt lat="47.42668" lon="6.77694">
        <ele>355.36</ele>
        <time>2016-10-16T09:47:32Z</time>
      </trkpt>
      <trkpt lat="47.42644" lon="6.77691">
        <ele>355.61</ele>
        <time>2016-10-16T09:47:37Z</time>
      </trkpt>
      <trkpt lat="47.42621" lon="6.77687">
        <ele>355.95</ele>
        <time>2016-10-16T09:47:41Z</time>
      </trkpt>
      <trkpt lat="47.42602" lon="6.77685">
        <ele>356.21</ele>
        <time>2016-10-16T09:47:45Z</time>
      </trkpt>
      <trkpt lat="47.42584" lon="6.77684">
        <ele>356.29</ele>
        <time>2016-10-16T09:47:50Z</time>
      </trkpt>
      <trkpt lat="47.42564" lon="6.7768">
        <ele>356.26</ele>
        <time>2016-10-16T09:47:57Z</time>
      </trkpt>
      <trkpt lat="47.42546" lon="6.77674">
        <ele>355.88</ele>
        <time>2016-10-16T09:48:02Z</time>
      </trkpt>
      <trkpt lat="47.42527" lon="6.7767">
        <ele>355.3</ele>
        <time>2016-10-16T09:48:07Z</time>
      </trkpt>
      <trkpt lat="47.42505" lon="6.77665">
        <ele>354.84</ele>
        <time>2016-10-16T09:48:12Z</time>
      </trkpt>
      <trkpt lat="47.42484" lon="6.77667">
        <ele>354.61</ele>
        <time>2016-10-16T09:48:17Z</time>
      </trkpt>
      <trkpt lat="47.42465" lon="6.77675">
        <ele>354.54</ele>
        <time>2016-10-16T09:48:20Z</time>
      </trkpt>
      <trkpt lat="47.42446" lon="6.77672">
        <ele>354.42</ele>
        <time>2016-10-16T09:48:23Z</time>
      </trkpt>
      <trkpt lat="47.42426" lon="6.77671">
        <ele>354.24</ele>
        <time>2016-10-16T09:48:28Z</time>
      </trkpt>
      <trkpt lat="47.42407" lon="6.77667">
        <ele>353.81</ele>
        <time>2016-10-16T09:48:36Z</time>
      </trkpt>
      <trkpt lat="47.42389" lon="6.77665">
        <ele>353.66</ele>
        <time>2016-10-16T09:48:42Z</time>
      </trkpt>
      <trkpt lat="47.42371" lon="6.77653">
        <ele>352.77</ele>
        <time>2016-10-16T09:48:50Z</time>
      </trkpt>
      <trkpt lat="47.42349" lon="6.77653">
        <ele>352.94</ele>
        <time>2016-10-16T09:48:55Z</time>
      </trkpt>
      <trkpt lat="47.42332" lon="6.77662">
        <ele>352.23</ele>
        <time>2016-10-16T09:49:01Z</time>
      </trkpt>
      <trkpt lat="47.42313" lon="6.77656">
        <ele>353.03</ele>
        <time>2016-10-16T09:49:13Z</time>
      </trkpt>
      <trkpt lat="47.42298" lon="6.7764">
        <ele>355.25</ele>
        <time>2016-10-16T09:49:29Z</time>
      </trkpt>
      <trkpt lat="47.42286" lon="6.7762">
        <ele>357.57</ele>
        <time>2016-10-16T09:49:53Z</time>
      </trkpt>
      <trkpt lat="47.42271" lon="6.77606">
        <ele>361.43</ele>
        <time>2016-10-16T09:50:21Z</time>
      </trkpt>
      <trkpt lat="47.42259" lon="6.77627">
        <ele>367.62</ele>
        <time>2016-10-16T09:50:57Z</time>
      </trkpt>
      <trkpt lat="47.42255" lon="6.77654">
        <ele>368.71</ele>
        <time>2016-10-16T09:51:11Z</time>
      </trkpt>
      <trkpt lat="47.42238" lon="6.7767">
        <ele>368.7</ele>
        <time>2016-10-16T09:51:18Z</time>
      </trkpt>
      <trkpt lat="47.42218" lon="6.77671">
        <ele>366.92</ele>
        <time>2016-10-16T09:51:24Z</time>
      </trkpt>
      <trkpt lat="47.422" lon="6.77672">
        <ele>367.52</ele>
        <time>2016-10-16T09:51:28Z</time>
      </trkpt>
      <trkpt lat="47.42177" lon="6.77674">
        <ele>368.32</ele>
        <time>2016-10-16T09:51:32Z</time>
      </trkpt>
      <trkpt lat="47.42155" lon="6.77673">
        <ele>367.38</ele>
        <time>2016-10-16T09:51:36Z</time>
      </trkpt>
      <trkpt lat="47.42133" lon="6.77672">
        <ele>369.91</ele>
        <time>2016-10-16T09:51:40Z</time>
      </trkpt>
      <trkpt lat="47.42112" lon="6.77671">
        <ele>373.36</ele>
        <time>2016-10-16T09:51:44Z</time>
      </trkpt>
      <trkpt lat="47.42091" lon="6.77672">
        <ele>374.16</ele>
        <time>2016-10-16T09:51:48Z</time>
      </trkpt>
      <trkpt lat="47.42073" lon="6.77668">
        <ele>373.27</ele>
        <time>2016-10-16T09:51:51Z</time>
      </trkpt>
      <trkpt lat="47.42051" lon="6.77658">
        <ele>373.44</ele>
        <time>2016-10-16T09:51:55Z</time>
      </trkpt>
      <trkpt lat="47.42029" lon="6.77653">
        <ele>374.17</ele>
        <time>2016-10-16T09:51:59Z</time>
      </trkpt>
      <trkpt lat="47.42011" lon="6.77657">
        <ele>374.54</ele>
        <time>2016-10-16T09:52:03Z</time>
      </trkpt>
      <trkpt lat="47.4199" lon="6.77665">
        <ele>373.18</ele>
        <time>2016-10-16T09:52:07Z</time>
      </trkpt>
      <trkpt lat="47.41971" lon="6.77668">
        <ele>372.48</ele>
        <time>2016-10-16T09:52:12Z</time>
      </trkpt>
      <trkpt lat="47.41952" lon="6.77663">
        <ele>372.51</ele>
        <time>2016-10-16T09:52:17Z</time>
      </trkpt>
      <trkpt lat="47.41933" lon="6.77657">
        <ele>372.66</ele>
        <time>2016-10-16T09:52:22Z</time>
      </trkpt>
      <trkpt lat="47.41913" lon="6.77647">
        <ele>373.2</ele>
        <time>2016-10-16T09:52:25Z</time>
      </trkpt>
      <trkpt lat="47.41892" lon="6.77647">
        <ele>373.14</ele>
        <time>2016-10-16T09:52:28Z</time>
      </trkpt>
      <trkpt lat="47.41869" lon="6.77649">
        <ele>372.59</ele>
        <time>2016-10-16T09:52:31Z</time>
      </trkpt>
      <trkpt lat="47.4185" lon="6.77654">
        <ele>371.42</ele>
        <time>2016-10-16T09:52:37Z</time>
      </trkpt>
      <trkpt lat="47.41827" lon="6.77658">
        <ele>368.49</ele>
        <time>2016-10-16T09:52:40Z</time>
      </trkpt>
      <trkpt lat="47.41808" lon="6.77661">
        <ele>366.35</ele>
        <time>2016-10-16T09:52:42Z</time>
      </trkpt>
      <trkpt lat="47.41784" lon="6.77657">
        <ele>363.57</ele>
        <time>2016-10-16T09:52:45Z</time>
      </trkpt>
      <trkpt lat="47.41761" lon="6.77654">
        <ele>360.72</ele>
        <time>2016-10-16T09:52:49Z</time>
      </trkpt>
      <trkpt lat="47.4174" lon="6.77661">
        <ele>358.45</ele>
        <time>2016-10-16T09:52:52Z</time>
      </trkpt>
      <trkpt lat="47.41719" lon="6.7767">
        <ele>356.01</ele>
        <time>2016-10-16T09:52:55Z</time>
      </trkpt>
      <trkpt lat="47.41697" lon="6.77679">
        <ele>353.45</ele>
        <time>2016-10-16T09:52:58Z</time>
      </trkpt>
      <trkpt lat="47.41677" lon="6.7767">
        <ele>351.12</ele>
        <time>2016-10-16T09:53:01Z</time>
      </trkpt>
      <trkpt lat="47.41656" lon="6.77652">
        <ele>348.71</ele>
        <time>2016-10-16T09:53:04Z</time>
      </trkpt>
      <trkpt lat="47.41633" lon="6.77633">
        <ele>347.85</ele>
        <time>2016-10-16T09:53:07Z</time>
      </trkpt>
      <trkpt lat="47.41614" lon="6.77618">
        <ele>346.81</ele>
        <time>2016-10-16T09:53:10Z</time>
      </trkpt>
      <trkpt lat="47.41592" lon="6.77605">
        <ele>346.39</ele>
        <time>2016-10-16T09:53:14Z</time>
      </trkpt>
      <trkpt lat="47.41574" lon="6.77597">
        <ele>346.05</ele>
        <time>2016-10-16T09:53:17Z</time>
      </trkpt>
      <trkpt lat="47.41554" lon="6.77594">
        <ele>346.32</ele>
        <time>2016-10-16T09:53:21Z</time>
      </trkpt>
      <trkpt lat="47.41533" lon="6.77594">
        <ele>347.19</ele>
        <time>2016-10-16T09:53:25Z</time>
      </trkpt>
      <trkpt lat="47.41514" lon="6.77597">
        <ele>346.49</ele>
        <time>2016-10-16T09:53:29Z</time>
      </trkpt>
      <trkpt lat="47.41492" lon="6.776">
        <ele>346.02</ele>
        <time>2016-10-16T09:53:34Z</time>
      </trkpt>
      <trkpt lat="47.41475" lon="6.77608">
        <ele>345.4</ele>
        <time>2016-10-16T09:53:38Z</time>
      </trkpt>
      <trkpt lat="47.41461" lon="6.77629">
        <ele>347.05</ele>
        <time>2016-10-16T09:53:42Z</time>
      </trkpt>
      <trkpt lat="47.4145" lon="6.77652">
        <ele>348.03</ele>
        <time>2016-10-16T09:53:46Z</time>
      </trkpt>
      <trkpt lat="47.41442" lon="6.77682">
        <ele>348.09</ele>
        <time>2016-10-16T09:53:50Z</time>
      </trkpt>
      <trkpt lat="47.41435" lon="6.7771">
        <ele>348.06</ele>
        <time>2016-10-16T09:53:57Z</time>
      </trkpt>
      <trkpt lat="47.41431" lon="6.77739">
        <ele>349.31</ele>
        <time>2016-10-16T09:54:03Z</time>
      </trkpt>
      <trkpt lat="47.41422" lon="6.77763">
        <ele>350.37</ele>
        <time>2016-10-16T09:54:07Z</time>
      </trkpt>
      <trkpt lat="47.4141" lon="6.77791">
        <ele>349.55</ele>
        <time>2016-10-16T09:54:12Z</time>
      </trkpt>
      <trkpt lat="47.41399" lon="6.77816">
        <ele>346.53</ele>
        <time>2016-10-16T09:54:16Z</time>
      </trkpt>
      <trkpt lat="47.41388" lon="6.77842">
        <ele>344.38</ele>
        <time>2016-10-16T09:54:20Z</time>
      </trkpt>
      <trkpt lat="47.41378" lon="6.77866">
        <ele>342.3</ele>
        <time>2016-10-16T09:54:24Z</time>
      </trkpt>
      <trkpt lat="47.41369" lon="6.77892">
        <ele>342.26</ele>
        <time>2016-10-16T09:54:28Z</time>
      </trkpt>
      <trkpt lat="47.41363" lon="6.77921">
        <ele>341.55</ele>
        <time>2016-10-16T09:54:32Z</time>
      </trkpt>
      <trkpt lat="47.41358" lon="6.77949">
        <ele>341.8</ele>
        <time>2016-10-16T09:54:36Z</time>
      </trkpt>
      <trkpt lat="47.41355" lon="6.77981">
        <ele>342.48</ele>
        <time>2016-10-16T09:54:40Z</time>
      </trkpt>
      <trkpt lat="47.41357" lon="6.78011">
        <ele>341.82</ele>
        <time>2016-10-16T09:54:44Z</time>
      </trkpt>
      <trkpt lat="47.41364" lon="6.78036">
        <ele>342.83</ele>
        <time>2016-10-16T09:54:48Z</time>
      </trkpt>
      <trkpt lat="47.41365" lon="6.78068">
        <ele>343.33</ele>
        <time>2016-10-16T09:54:53Z</time>
      </trkpt>
      <trkpt lat="47.41381" lon="6.78086">
        <ele>342.31</ele>
        <time>2016-10-16T09:54:57Z</time>
      </trkpt>
      <trkpt lat="47.41398" lon="6.781">
        <ele>342.06</ele>
        <time>2016-10-16T09:55:01Z</time>
      </trkpt>
      <trkpt lat="47.41414" lon="6.78117">
        <ele>344.47</ele>
        <time>2016-10-16T09:55:05Z</time>
      </trkpt>
      <trkpt lat="47.41431" lon="6.78132">
        <ele>344.91</ele>
        <time>2016-10-16T09:55:09Z</time>
      </trkpt>
      <trkpt lat="47.41448" lon="6.78146">
        <ele>343.85</ele>
        <time>2016-10-16T09:55:13Z</time>
      </trkpt>
      <trkpt lat="47.41465" lon="6.78159">
        <ele>343.43</ele>
        <time>2016-10-16T09:55:17Z</time>
      </trkpt>
      <trkpt lat="47.41482" lon="6.78168">
        <ele>344.35</ele>
        <time>2016-10-16T09:55:21Z</time>
      </trkpt>
      <trkpt lat="47.41488" lon="6.78198">
        <ele>344.62</ele>
        <time>2016-10-16T09:55:26Z</time>
      </trkpt>
      <trkpt lat="47.41482" lon="6.78227">
        <ele>344.83</ele>
        <time>2016-10-16T09:55:30Z</time>
      </trkpt>
      <trkpt lat="47.41477" lon="6.78258">
        <ele>344.26</ele>
        <time>2016-10-16T09:55:34Z</time>
      </trkpt>
      <trkpt lat="47.4147" lon="6.78287">
        <ele>344.69</ele>
        <time>2016-10-16T09:55:38Z</time>
      </trkpt>
      <trkpt lat="47.41463" lon="6.78318">
        <ele>345.23</ele>
        <time>2016-10-16T09:55:42Z</time>
      </trkpt>
      <trkpt lat="47.41458" lon="6.78344">
        <ele>345.56</ele>
        <time>2016-10-16T09:55:46Z</time>
      </trkpt>
      <trkpt lat="47.4145" lon="6.78372">
        <ele>346.25</ele>
        <time>2016-10-16T09:55:50Z</time>
      </trkpt>
      <trkpt lat="47.41443" lon="6.78397">
        <ele>344.77</ele>
        <time>2016-10-16T09:55:54Z</time>
      </trkpt>
      <trkpt lat="47.41437" lon="6.78425">
        <ele>343.5</ele>
        <time>2016-10-16T09:55:58Z</time>
      </trkpt>
      <trkpt lat="47.41417" lon="6.78436">
        <ele>340.18</ele>
        <time>2016-10-16T09:56:03Z</time>
      </trkpt>
    </trkseg>
  </trk>
</gpx>